[[{"header":{"parameterUnit":"m.s-1","parameterCategory":1,"la1":31.0,"la2":29.5877,"lo1":-88.7671,"lo2":-86.6584,"dy":0.0162,"dx":0.0185,"nx":115,"ny":88,"refTime":"2024-03-20T18:00:00:Z","depth":0,"parameterNumber":2,"parameterNumberName":"U-component_of_WINDS"},"data":[0.0,0.0,0.0,0.0,0.0,0.0,0.0,0.0,0.0,0.0,0.0,0.0,0.0,0.0,0.0,0.0,0.0,0.0,0.0,0.0,0.0,0.0,0.0,0.0,0.0,0.0,0.0,0.0,0.0,0.0,0.0,0.0,0.0,0.0,0.0,0.0,0.0,0.0,0.0,0.0,0.0,0.0,0.0,0.0,0.0,0.0,0.0,0.0,0.0,0.0,0.0,0.0,0.0,0.0,0.0,0.0,0.0,0.0,0.0,0.0,0.0,0.0,0.0,0.0,0.0,0.0,0.0,0.0,0.0,0.0,0.0,0.0,0.0,0.0,0.0,0.0,0.0,0.0,0.0,0.0,0.0,0.0,0.0,0.0,0.0,0.0,0.0,0.0,0.0,0.0,0.0,0.0,0.0,0.0,0.0,0.0,0.0,0.0,0.0,0.0,0.0,0.0,0.0,0.0,0.0,0.0,0.0,0.0,0.0,0.0,0.0,0.0,0.0,0.0,0.0,0.0,0.0,0.0,0.0,0.0,0.0,0.0,0.0,0.0,0.0,0.0,0.0,0.0,0.0,0.0,0.0,0.0,0.0,0.0,0.0,0.0,0.0,0.0,0.0,0.0,0.0,0.0,0.0,0.0,0.0,0.0,0.0,0.0,0.0,0.0,0.0,0.0,0.0,0.0,0.0,0.0,0.0,0.0,0.0,0.0,0.0,0.0,0.0,0.0,0.0,0.0,0.0,0.0,0.0,0.0,0.0,0.0,0.0,0.0,0.0,0.0,0.0,0.0,0.0,0.0,0.0,0.0,0.0,0.0,0.0,0.0,0.0,0.0,0.0,0.0,0.0,0.0,0.0,0.0,0.0,0.0,0.0,0.0,0.0,0.0,0.0,0.0,0.0,0.0,0.0,0.0,0.0,0.0,0.0,0.0,0.0,0.0,0.0,0.0,0.0,0.0,0.0,0.0,0.0,0.0,0.0,0.0,0.0,0.0,0.0,0.0,0.0,0.0,0.0,0.0,0.0,0.0,0.0,0.0,0.0,0.0,0.0,0.0,0.0,0.0,0.0,0.0,0.0,0.0,0.0,0.0,0.0,0.0,0.0,0.0,0.0,0.0,0.0,0.0,0.0,0.0,0.0,0.0,0.0,0.0,0.0,0.0,0.0,0.0,0.0,0.0,0.0,0.0,0.0,0.0,0.0,0.0,0.0,0.0,0.0,0.0,0.0,0.0,0.0,0.0,0.0,0.0,0.0,0.0,0.0,0.0,0.0,0.0,0.0,0.0,0.0,0.0,0.0,0.0,0.0,0.0,0.0,0.0,0.0,0.0,0.0,0.0,0.0,0.0,0.0,0.0,0.0,0.0,0.0,0.0,0.0,0.0,0.0,0.0,0.0,0.0,0.0,0.0,0.0,0.0,0.0,0.0,0.0,0.0,0.0,0.0,0.0,0.0,0.0,0.0,0.0,0.0,0.0,0.0,0.0,0.0,0.0,0.0,0.0,0.0,0.0,0.0,0.0,0.0,0.0,0.0,0.0,0.0,0.0,0.0,0.0,0.0,0.0,0.0,0.0,0.0,0.0,0.0,0.0,0.0,0.0,0.0,0.0,0.0,0.0,0.0,0.0,0.0,0.0,0.0,0.0,0.0,0.0,0.0,0.0,0.0,0.0,0.0,0.0,0.0,0.0,0.0,0.0,0.0,0.0,0.0,0.0,0.0,0.0,0.0,0.0,0.0,0.0,0.0,0.0,0.0,0.0,0.0,0.0,0.0,0.0,0.0,0.0,0.0,0.0,0.0,0.0,0.0,0.0,0.0,0.0,0.0,0.0,0.0,0.0,0.0,0.0,0.0,0.0,0.0,0.0,0.0,0.0,0.0,0.0,0.0,0.0,0.0,0.0,0.0,0.0,0.0,0.0,0.0,0.0,0.0,0.0,0.0,0.0,0.0,0.0,0.0,0.0,0.0,0.0,0.0,0.0,0.0,0.0,0.0,0.0,0.0,0.0,0.0,0.0,0.0,0.0,0.0,0.0,0.0,0.0,0.0,0.0,0.0,0.0,0.0,0.0,0.0,0.0,0.0,0.0,0.0,0.0,0.0,0.0,0.0,0.0,0.0,0.0,0.0,0.0,0.0,0.0,0.0,0.0,0.0,0.0,0.0,0.0,0.0,0.0,0.0,0.0,0.0,0.0,0.0,0.0,0.0,0.0,0.0,0.0,0.0,0.0,0.0,0.0,0.0,0.0,0.0,0.0,0.0,0.0,0.0,0.0,0.0,0.0,0.0,0.0,0.0,0.0,0.0,0.0,0.0,0.0,0.0,0.0,0.0,0.0,0.0,0.0,0.0,0.0,0.0,0.0,0.0,0.0,0.0,0.0,0.0,0.0,0.0,0.0,0.0,0.0,0.0,0.0,0.0,0.0,0.0,0.0,0.0,0.0,0.0,0.0,0.0,0.0,0.0,0.0,0.0,0.0,0.0,0.0,0.0,0.0,0.0,0.0,0.0,0.0,0.0,0.0,0.0,0.0,0.0,0.0,0.0,0.0,0.0,0.0,0.0,0.0,0.0,0.0,0.0,0.0,0.0,0.0,0.0,0.0,0.0,0.0,0.0,0.0,0.0,0.0,0.0,0.0,0.0,0.0,0.0,0.0,0.0,0.0,0.0,0.0,0.0,0.0,0.0,0.0,0.0,0.0,0.0,0.0,0.0,0.0,0.0,0.0,0.0,0.0,0.0,0.0,0.0,0.0,0.0,0.0,0.0,0.0,0.0,0.0,0.0,0.0,0.0,0.0,0.0,0.0,0.0,0.0,0.0,0.0,0.0,0.0,0.0,0.0,0.0,0.0,0.0,0.0,0.0,0.0,0.0,0.0,0.0,0.0,0.0,0.0,0.0,0.0,0.0,0.0,0.0,0.0,0.0,0.0,0.0,0.0,0.0,0.0,0.0,0.0,0.0,0.0,0.0,0.0,0.0,0.0,0.0,0.0,0.0,0.0,0.0,0.0,0.0,0.0,0.0,0.0,0.0,0.0,0.0,0.0,0.0,0.0,0.0,0.0,0.0,0.0,0.0,0.0,0.0,0.0,0.0,0.0,0.0,0.0,0.0,0.0,0.0,0.0,0.0,0.0,0.0,0.0,0.0,0.0,0.0,0.0,0.0,0.0,0.0,0.0,0.0,0.0,0.0,0.0,0.0,0.0,0.0,0.0,0.0,0.0,0.0,0.0,0.0,0.0,0.0,0.0,0.0,0.0,0.0,0.0,0.0,0.0,0.0,0.0,0.0,0.0,0.0,0.0,0.0,0.0,0.0,0.0,0.0,0.0,0.0,0.0,0.0,0.0,0.0,0.0,0.0,0.0,0.0,0.0,0.0,0.0,0.0,0.0,0.0,0.0,0.0,0.0,0.0,0.0,0.0,0.0,0.0,0.0,0.0,0.0,0.0,0.0,0.0,0.0,0.0,0.0,0.0,0.0,0.0,0.0,0.0,0.0,0.0,0.0,0.0,0.0,0.0,0.0,0.0,0.0,0.0,0.0,0.0,0.0,0.0,0.0,0.0,0.0,0.0,0.0,0.0,0.0,0.0,0.0,0.0,0.0,0.0,0.0,0.0,0.0,0.0,0.0,0.0,0.0,0.0,0.0,0.0,0.0,0.0,0.0,0.0,0.0,0.0,0.0,0.0,0.0,0.0,0.0,0.0,0.0,0.0,0.0,0.0,0.0,0.0,0.0,0.0,0.0,0.0,0.0,0.0,0.0,0.0,0.0,0.0,0.0,0.0,0.0,0.0,0.0,0.0,0.0,0.0,0.0,0.0,0.0,0.0,0.0,0.0,0.0,0.0,0.0,0.0,0.0,0.0,0.0,0.0,0.0,0.0,0.0,0.0,0.0,0.0,0.0,0.0,0.0,0.0,0.0,0.0,0.0,0.0,0.0,0.0,0.0,0.0,0.0,0.0,0.0,0.0,0.0,0.0,0.0,0.0,0.0,0.0,0.0,0.0,0.0,0.0,0.0,0.0,0.0,0.0,0.0,0.0,0.0,0.0,0.0,0.0,0.0,0.0,0.0,0.0,0.0,0.0,0.0,0.0,0.0,0.0,0.0,0.0,0.0,0.0,0.0,0.0,0.0,0.0,0.0,0.0,0.0,0.0,0.0,0.0,0.0,0.0,0.0,0.0,0.0,0.0,0.0,0.0,0.0,0.0,0.0,0.0,0.0,0.0,0.0,0.0,0.0,0.0,0.0,0.0,0.0,0.0,0.0,0.0,0.0,0.0,1.9158,0.0,0.0,0.0,0.0,0.0,0.0,0.0,0.0,0.0,0.0,0.0,0.0,0.0,0.0,0.0,0.0,0.0,0.0,0.0,0.0,0.0,0.0,0.0,0.0,0.0,0.0,0.0,0.0,0.0,0.0,0.0,0.0,0.0,0.0,0.0,0.0,0.0,0.0,0.0,0.0,0.0,0.0,0.0,0.0,0.0,0.0,0.0,0.0,0.0,0.0,0.0,0.0,0.0,0.0,0.0,0.0,0.0,0.0,0.0,0.0,0.0,0.0,0.0,0.0,0.0,0.0,0.0,0.0,0.0,0.0,0.0,0.0,0.0,0.0,0.0,0.0,0.0,0.0,0.0,0.0,0.0,0.0,0.0,0.0,0.0,0.0,0.0,0.0,0.0,0.0,0.0,0.0,0.0,0.0,0.0,0.0,0.0,0.0,0.0,0.0,0.0,0.0,0.0,0.0,0.0,0.0,0.0,0.0,0.0,0.0,2.0139,1.9629,1.9473,1.9316,1.9182,0.0,0.0,0.0,0.0,0.0,0.0,0.0,0.0,0.0,0.0,0.0,0.0,0.0,0.0,0.0,0.0,0.0,0.0,0.0,0.0,0.0,0.0,0.0,0.0,0.0,0.0,0.0,0.0,0.0,0.0,0.0,0.0,0.0,0.0,0.0,0.0,0.0,0.0,0.0,0.0,0.0,0.0,0.0,0.0,0.0,0.0,0.0,0.0,0.0,0.0,0.0,0.0,0.0,0.0,0.0,0.0,0.0,0.0,0.0,0.0,0.0,0.0,0.0,0.0,0.0,0.0,0.0,0.0,0.0,0.0,0.0,0.0,0.0,0.0,0.0,0.0,0.0,0.0,0.0,0.0,0.0,0.0,0.0,0.0,0.0,0.0,0.0,0.0,0.0,0.0,0.0,0.0,0.0,0.0,0.0,0.0,0.0,0.0,0.0,0.0,0.0,0.0,0.0,0.0,0.0,0.0,0.0,0.0,0.0,0.0,0.0,0.0,1.9772,1.9515,1.9235,0.0,0.0,0.0,0.0,0.0,0.0,0.0,0.0,0.0,0.0,0.0,0.0,0.0,0.0,0.0,0.0,0.0,0.0,0.0,0.0,0.0,0.0,0.0,0.0,0.0,0.0,0.0,0.0,0.0,0.0,0.0,0.0,0.0,0.0,0.0,0.0,0.0,0.0,0.0,0.0,0.0,0.0,0.0,0.0,0.0,0.0,0.0,0.0,0.0,0.0,0.0,0.0,0.0,0.0,0.0,0.0,0.0,0.0,0.0,0.0,0.0,0.0,0.0,0.0,0.0,0.0,0.0,0.0,0.0,0.0,0.0,0.0,0.0,0.0,0.0,0.0,0.0,0.0,0.0,0.0,0.0,0.0,0.0,0.0,0.0,0.0,0.0,0.0,0.0,0.0,0.0,0.0,0.0,0.0,0.0,0.0,0.0,0.0,0.0,0.0,0.0,0.0,0.0,0.0,0.0,0.0,0.0,0.0,0.0,0.0,2.1509,2.1343,2.0732,0.0,1.9283,0.0,0.0,0.0,0.0,0.0,0.0,0.0,0.0,0.0,0.0,0.0,0.0,0.0,0.0,0.0,0.0,0.0,0.0,0.0,0.0,0.0,0.0,0.0,0.0,0.0,0.0,0.0,0.0,0.0,0.0,0.0,0.0,0.0,0.0,0.0,0.0,0.0,0.0,0.0,0.0,0.0,0.0,0.0,0.0,0.0,0.0,0.0,0.0,0.0,0.0,0.0,0.0,0.0,0.0,0.0,0.0,0.0,0.0,0.0,0.0,0.0,0.0,0.0,0.0,0.0,0.0,0.0,0.0,0.0,0.0,0.0,0.0,0.0,0.0,0.0,0.0,0.0,0.0,0.0,0.0,0.0,0.0,0.0,0.0,0.0,0.0,0.0,0.0,0.0,0.0,0.0,0.0,0.0,0.0,0.0,0.0,0.0,0.0,0.0,0.0,0.0,0.0,0.0,0.0,0.0,0.0,0.0,0.0,0.0,0.0,2.169,2.1493,2.0747,1.9986,0.0,0.0,0.0,0.0,0.0,0.0,0.0,0.0,0.0,0.0,0.0,0.0,0.0,0.0,0.0,0.0,0.0,0.0,0.0,0.0,0.0,0.0,0.0,0.0,0.0,0.0,0.0,0.0,0.0,0.0,0.0,0.0,0.0,0.0,0.0,0.0,0.0,0.0,0.0,0.0,0.0,0.0,0.0,0.0,0.0,0.0,0.0,0.0,0.0,0.0,0.0,0.0,0.0,0.0,0.0,0.0,0.0,0.0,0.0,0.0,0.0,0.0,0.0,0.0,0.0,0.0,0.0,0.0,0.0,0.0,0.0,0.0,0.0,0.0,0.0,0.0,0.0,0.0,0.0,0.0,0.0,0.0,0.0,0.0,0.0,0.0,0.0,0.0,0.0,0.0,0.0,0.0,0.0,0.0,0.0,0.0,0.0,0.0,0.0,0.0,0.0,0.0,0.0,0.0,0.0,0.0,0.0,0.0,0.0,0.0,2.2603,2.2127,2.1694,2.0915,2.0153,1.9531,0.0,0.0,0.0,0.0,0.0,0.0,0.0,0.0,0.0,0.0,0.0,0.0,0.0,0.0,0.0,0.0,0.0,0.0,0.0,0.0,0.0,0.0,0.0,0.0,0.0,0.0,0.0,0.0,0.0,0.0,0.0,0.0,0.0,0.0,0.0,0.0,0.0,0.0,0.0,0.0,0.0,0.0,0.0,0.0,0.0,0.0,0.0,0.0,0.0,0.0,0.0,0.0,0.0,0.0,0.0,0.0,0.0,0.0,0.0,0.0,0.0,0.0,0.0,0.0,0.0,0.0,0.0,0.0,0.0,0.0,0.0,0.0,0.0,0.0,0.0,0.0,0.0,0.0,0.0,0.0,0.0,0.0,0.0,0.0,0.0,0.0,0.0,0.0,0.0,0.0,0.0,0.0,0.0,0.0,0.0,0.0,0.0,0.0,0.0,0.0,0.0,0.0,0.0,0.0,0.0,0.0,0.0,0.0,2.3839,2.361,2.3119,2.2272,2.1574,2.0915,0.0,0.0,0.0,0.0,0.0,0.0,0.0,0.0,0.0,0.0,0.0,0.0,0.0,0.0,0.0,0.0,0.0,0.0,0.0,0.0,0.0,0.0,0.0,0.0,0.0,0.0,0.0,0.0,0.0,0.0,0.0,0.0,0.0,0.0,0.0,0.0,0.0,0.0,0.0,0.0,0.0,0.0,0.0,0.0,0.0,0.0,0.0,0.0,0.0,0.0,0.0,0.0,0.0,0.0,0.0,0.0,0.0,0.0,0.0,0.0,0.0,0.0,0.0,0.0,0.0,0.0,0.0,0.0,0.0,0.0,0.0,0.0,0.0,0.0,0.0,0.0,0.0,0.0,0.0,0.0,0.0,0.0,0.0,0.0,0.0,0.0,0.0,0.0,0.0,0.0,0.0,0.0,0.0,0.0,0.0,0.0,0.0,0.0,0.0,0.0,0.0,0.0,0.0,0.0,0.0,0.0,0.0,0.0,0.0,2.4067,2.3747,2.3229,2.2521,2.1794,2.102,0.0,0.0,0.0,0.0,0.0,0.0,0.0,0.0,0.0,0.0,0.0,0.0,0.0,0.0,0.0,0.0,0.0,0.0,0.0,0.0,0.0,0.0,0.0,0.0,0.0,0.0,0.0,0.0,0.0,0.0,0.0,0.0,0.0,0.0,0.0,0.0,0.0,0.0,0.0,0.0,0.0,0.0,0.0,0.0,0.0,0.0,0.0,0.0,0.0,0.0,0.0,0.0,0.0,0.0,0.0,0.0,0.0,0.0,0.0,0.0,0.0,0.0,0.0,0.0,0.0,0.0,0.0,0.0,0.0,0.0,0.0,0.0,0.0,0.0,0.0,0.0,0.0,0.0,0.0,0.0,0.0,0.0,0.0,0.0,0.0,0.0,0.0,0.0,0.0,0.0,0.0,0.0,0.0,0.0,0.0,0.0,0.0,0.0,0.0,0.0,0.0,0.0,0.0,0.0,0.0,0.0,0.0,0.0,0.0,2.4099,0.0,2.3508,2.2949,2.2242,2.1437,0.0,0.0,0.0,0.0,0.0,0.0,0.0,0.0,0.0,0.0,0.0,0.0,0.0,0.0,0.0,0.0,0.0,0.0,0.0,0.0,0.0,0.0,0.0,0.0,0.0,0.0,0.0,0.0,0.0,0.0,0.0,0.0,0.0,0.0,0.0,0.0,0.0,0.0,0.0,0.0,0.0,0.0,0.0,0.0,0.0,0.0,0.0,0.0,0.0,0.0,0.0,0.0,0.0,0.0,0.0,0.0,0.0,0.0,0.0,0.0,0.0,0.0,0.0,0.0,0.0,0.0,0.0,0.0,0.0,0.0,0.0,0.0,0.0,0.0,0.0,0.0,0.0,0.0,0.0,0.0,0.0,0.0,0.0,0.0,0.0,0.0,0.0,0.0,0.0,0.0,0.0,0.0,0.0,0.0,0.0,0.0,0.0,0.0,0.0,0.0,0.0,0.0,0.0,0.0,0.0,0.0,0.0,0.0,2.4758,2.4184,2.4151,2.4001,2.3628,2.3,2.2242,0.0,0.0,0.0,0.0,0.0,0.0,0.0,0.0,0.0,0.0,0.0,0.0,0.0,0.0,0.0,0.0,0.0,0.0,0.0,0.0,0.0,0.0,0.0,0.0,0.0,0.0,0.0,0.0,0.0,0.0,0.0,0.0,0.0,0.0,0.0,0.0,0.0,0.0,0.0,0.0,0.0,0.0,0.0,0.0,0.0,0.0,0.0,0.0,0.0,0.0,0.0,0.0,0.0,0.0,0.0,0.0,0.0,0.0,0.0,0.0,0.0,0.0,0.0,0.0,0.0,0.0,0.0,0.0,0.0,0.0,0.0,0.0,0.0,0.0,0.0,0.0,0.0,0.0,0.0,0.0,0.0,0.0,0.0,0.0,0.0,0.0,0.0,0.0,0.0,0.0,0.0,0.0,0.0,0.0,0.0,0.0,0.0,0.0,0.0,0.0,0.0,0.0,0.0,0.0,0.0,0.0,0.0,0.0,0.0,2.5234,2.5608,2.5614,2.5101,2.4216,2.3386,0.0,0.0,0.0,0.0,0.0,0.0,0.0,0.0,0.0,0.0,0.0,0.0,0.0,0.0,0.0,0.0,0.0,0.0,0.0,0.0,0.0,0.0,0.0,0.0,0.0,0.0,0.0,0.0,0.0,0.0,0.0,0.0,0.0,0.0,0.0,0.0,0.0,0.0,0.0,0.0,0.0,0.0,0.0,0.0,0.0,0.0,0.0,0.0,0.0,0.0,0.0,0.0,0.0,0.0,0.0,0.0,0.0,0.0,0.0,0.0,0.0,0.0,0.0,0.0,0.0,0.0,0.0,0.0,0.0,0.0,0.0,0.0,0.0,0.0,0.0,0.0,0.0,0.0,0.0,0.0,0.0,0.0,0.0,0.0,0.0,0.0,0.0,0.0,0.0,0.0,0.0,0.0,0.0,0.0,0.0,0.0,0.0,0.0,0.0,0.0,0.0,0.0,0.0,0.0,0.0,0.0,0.0,0.0,0.0,2.7366,2.7379,2.7185,2.6807,2.5722,2.4736,2.379,0.0,0.0,0.0,0.0,0.0,0.0,0.0,0.0,0.0,0.0,0.0,0.0,0.0,0.0,0.0,0.0,0.0,0.0,0.0,0.0,0.0,0.0,0.0,0.0,0.0,0.0,0.0,0.0,0.0,0.0,0.0,0.0,0.0,0.0,0.0,0.0,0.0,0.0,0.0,0.0,0.0,0.0,0.0,0.0,0.0,0.0,0.0,0.0,0.0,0.0,0.0,0.0,0.0,0.0,0.0,0.0,0.0,0.0,0.0,0.0,0.0,0.0,0.0,0.0,0.0,0.0,0.0,0.0,0.0,0.0,0.0,0.0,0.0,0.0,0.0,0.0,0.0,0.0,0.0,0.0,0.0,0.0,0.0,0.0,0.0,0.0,0.0,0.0,0.0,0.0,0.0,0.0,0.0,0.0,0.0,0.0,0.0,0.0,0.0,0.0,0.0,0.0,0.0,0.0,0.0,0.0,0.0,0.0,3.0284,2.946,2.8845,2.8579,2.7497,2.6269,0.0,0.0,0.0,0.0,0.0,0.0,0.0,0.0,0.0,0.0,0.0,0.0,0.0,0.0,0.0,0.0,0.0,0.0,0.0,0.0,0.0,0.0,0.0,0.0,0.0,0.0,0.0,0.0,0.0,0.0,0.0,0.0,0.0,0.0,0.0,0.0,0.0,0.0,0.0,0.0,0.0,0.0,0.0,0.0,0.0,0.0,0.0,0.0,0.0,0.0,0.0,0.0,0.0,0.0,0.0,0.0,0.0,0.0,0.0,0.0,0.0,0.0,0.0,0.0,0.0,0.0,0.0,0.0,0.0,0.0,0.0,0.0,0.0,0.0,0.0,0.0,0.0,0.0,0.0,0.0,0.0,0.0,0.0,0.0,0.0,0.0,0.0,0.0,0.0,0.0,0.0,0.0,0.0,0.0,0.0,0.0,0.0,0.0,0.0,0.0,0.0,0.0,0.0,0.0,0.0,0.0,0.0,0.0,0.0,3.3073,3.3612,3.2853,3.0608,2.9575,2.829,0.0,0.0,0.0,0.0,0.0,0.0,0.0,0.0,0.0,0.0,0.0,0.0,0.0,0.0,0.0,0.0,0.0,0.0,0.0,0.0,0.0,0.0,0.0,0.0,0.0,0.0,0.0,0.0,0.0,0.0,0.0,0.0,0.0,0.0,0.0,0.0,0.0,0.0,0.0,0.0,0.0,0.0,0.0,0.0,0.0,0.0,0.0,0.0,0.0,0.0,0.0,0.0,0.0,0.0,0.0,0.0,0.0,0.0,0.0,0.0,0.0,0.0,0.0,0.0,0.0,0.0,0.0,0.0,0.0,0.0,0.0,0.0,0.0,0.0,0.0,0.0,0.0,0.0,0.0,0.0,0.0,0.0,0.0,0.0,0.0,0.0,0.0,0.0,0.0,0.0,0.0,0.0,0.0,0.0,0.0,0.0,0.0,0.0,0.0,0.0,0.0,0.0,0.0,0.0,0.0,0.0,0.0,0.0,3.3157,3.4983,3.6039,3.5676,3.3841,3.2036,3.0193,0.0,0.0,0.0,0.0,0.0,0.0,0.0,0.0,0.0,0.0,0.0,0.0,0.0,0.0,0.0,0.0,0.0,0.0,0.0,0.0,0.0,0.0,0.0,0.0,0.0,0.0,0.0,0.0,0.0,0.0,0.0,0.0,0.0,0.0,0.0,0.0,0.0,0.0,0.0,0.0,0.0,0.0,0.0,0.0,0.0,0.0,0.0,0.0,0.0,0.0,0.0,0.0,0.0,0.0,0.0,0.0,0.0,0.0,0.0,0.0,0.0,0.0,0.0,0.0,0.0,0.0,0.0,0.0,0.0,0.0,0.0,0.0,0.0,0.0,0.0,0.0,0.0,0.0,0.0,0.0,0.0,0.0,0.0,0.0,0.0,0.0,0.0,0.0,0.0,0.0,0.0,0.0,0.0,0.0,0.0,0.0,0.0,0.0,0.0,0.0,0.0,0.0,0.0,0.0,0.0,0.0,0.0,0.0,3.445,3.6332,3.741,3.7782,3.751,3.4648,3.2038,0.0,0.0,0.0,0.0,0.0,0.0,0.0,0.0,0.0,0.0,0.0,0.0,0.0,0.0,0.0,0.0,0.0,0.0,0.0,0.0,0.0,0.0,0.0,0.0,0.0,0.0,0.0,0.0,0.0,0.0,0.0,0.0,0.0,0.0,0.0,0.0,0.0,0.0,0.0,0.0,0.0,0.0,0.0,0.0,0.0,0.0,0.0,0.0,0.0,0.0,0.0,0.0,0.0,0.0,0.0,0.0,0.0,0.0,0.0,0.0,0.0,0.0,0.0,0.0,0.0,0.0,0.0,0.0,0.0,0.0,0.0,0.0,0.0,0.0,0.0,0.0,0.0,0.0,0.0,0.0,0.0,0.0,0.0,0.0,0.0,0.0,0.0,0.0,0.0,0.0,0.0,0.0,0.0,0.0,0.0,0.0,0.0,0.0,0.0,0.0,0.0,0.0,0.0,0.0,0.0,0.0,0.0,0.0,3.5911,3.8215,3.9479,3.9843,3.9416,3.647,3.3831,0.0,0.0,0.0,0.0,0.0,0.0,0.0,0.0,0.0,0.0,0.0,0.0,0.0,0.0,0.0,0.0,0.0,0.0,0.0,0.0,0.0,0.0,0.0,0.0,0.0,0.0,0.0,0.0,0.0,0.0,0.0,0.0,0.0,0.0,0.0,0.0,0.0,0.0,0.0,0.0,0.0,0.0,0.0,0.0,0.0,0.0,0.0,0.0,1.0873,0.0,0.0,0.0,0.0,0.0,0.0,0.0,0.0,0.0,0.0,0.0,0.0,0.0,0.0,0.0,0.0,0.0,0.0,0.0,0.0,0.0,0.0,0.0,0.0,0.0,0.0,0.0,0.0,0.0,0.0,0.0,0.0,0.0,0.0,0.0,0.0,0.0,0.0,0.0,0.0,0.0,0.0,0.0,0.0,0.0,0.0,0.0,0.0,0.0,0.0,0.0,0.0,0.0,0.0,0.0,0.0,0.0,0.0,0.0,3.6782,3.9144,4.021,4.0569,4.0327,3.7833,3.517,0.0,0.0,0.0,0.0,0.0,0.0,0.0,0.0,0.0,0.0,0.0,0.0,0.0,0.0,0.0,0.0,0.0,0.0,0.0,0.0,0.0,0.0,0.0,0.0,0.0,0.0,0.0,0.0,0.0,0.0,0.0,0.0,0.0,0.0,0.0,0.0,0.0,0.0,0.0,0.0,0.0,0.0,0.0,0.0,0.0,0.0,0.0,0.0,0.0,0.0,0.0,0.0,0.0,0.0,0.0,0.0,0.0,0.0,0.0,0.0,0.0,0.0,0.0,0.0,0.0,0.0,0.0,0.0,0.0,0.0,0.0,0.0,0.0,0.0,0.0,0.0,0.0,0.0,0.0,0.0,0.0,0.0,0.0,0.0,0.0,0.0,0.0,0.0,0.0,0.0,0.0,0.0,0.0,0.0,0.0,0.0,0.0,0.0,0.0,0.0,0.0,0.0,0.0,0.0,0.0,0.0,0.0,3.5088,3.727,3.9479,4.0348,4.0789,4.09,3.8847,3.6246,3.3172,0.0,0.0,0.0,0.0,0.0,0.0,0.0,0.0,0.0,0.0,0.0,0.0,0.0,0.0,0.0,0.0,0.0,0.0,0.0,0.0,0.0,0.0,0.0,0.0,0.0,0.0,0.0,0.0,0.0,0.0,0.0,0.0,0.0,0.0,0.0,0.0,0.0,0.0,1.2182,1.2798,0.0,0.0,0.0,0.0,0.0,0.0,0.0,0.0,1.1539,0.0,0.0,0.0,0.0,0.0,0.0,0.0,0.0,0.0,0.0,0.0,0.0,0.0,0.0,0.0,0.0,0.0,0.0,0.0,0.0,0.0,0.0,0.0,0.0,0.0,0.0,0.0,0.0,0.0,0.0,0.0,0.0,0.0,0.0,0.0,0.0,0.0,0.0,0.0,0.0,0.0,0.0,0.0,0.0,0.0,0.0,0.0,0.0,0.0,0.0,0.0,0.0,0.0,0.0,0.0,0.0,3.3016,3.5356,3.7671,3.9889,4.0526,4.1045,4.1352,3.9183,3.6829,3.4301,0.0,0.0,0.0,0.0,0.0,0.0,0.0,0.0,0.0,0.0,0.0,0.0,0.0,0.0,0.0,0.0,0.0,0.0,0.0,0.0,0.0,0.0,0.0,0.0,0.0,0.0,0.0,0.0,0.0,0.0,0.0,0.0,0.0,0.0,0.0,0.0,0.0,0.0,0.0,1.3476,1.3596,0.0,0.0,0.0,0.0,0.0,0.0,0.0,0.0,1.2018,0.0,0.0,0.0,0.0,0.0,0.0,0.0,0.0,0.0,0.0,0.0,0.0,0.0,0.0,0.0,0.0,0.0,0.0,0.0,0.0,0.0,0.0,0.0,0.0,0.0,0.0,0.0,0.0,0.0,0.0,0.0,0.0,0.0,0.0,0.0,0.0,0.0,0.0,0.0,0.0,0.0,0.0,0.0,0.0,0.0,0.0,0.0,0.0,0.0,0.0,0.0,0.0,0.0,0.0,0.0,3.3273,3.5481,3.7647,3.9738,4.0184,4.0652,4.0959,3.8797,3.6476,0.0,0.0,0.0,0.0,0.0,0.0,0.0,0.0,0.0,0.0,0.0,0.0,0.0,0.0,0.0,0.0,0.0,0.0,0.0,0.0,0.0,0.0,0.0,0.0,0.0,0.0,0.0,0.0,0.0,0.0,0.0,0.0,0.0,0.0,0.0,0.0,0.0,0.0,0.0,0.0,1.4088,1.4295,1.4186,0.0,0.0,0.0,0.0,0.0,0.0,1.2915,1.2618,0.0,0.0,0.0,0.0,0.0,0.0,0.0,0.0,0.0,0.0,0.0,0.0,0.0,0.0,0.0,0.0,0.0,0.0,0.0,0.0,0.0,0.0,0.0,0.0,0.0,0.0,0.0,0.0,0.0,0.0,0.0,0.0,0.0,0.0,0.0,0.0,0.0,0.0,0.0,0.0,0.0,0.0,0.0,0.0,0.0,0.0,0.0,0.0,0.0,0.0,0.0,0.0,0.0,0.0,0.0,3.3542,3.5499,3.7456,3.9371,3.9678,3.998,4.0267,3.8195,3.5991,0.0,0.0,0.0,0.0,0.0,0.0,0.0,0.0,0.0,0.0,0.0,0.0,0.0,0.0,0.0,0.0,0.0,0.0,0.0,0.0,0.0,0.0,0.0,0.0,0.0,0.0,0.0,0.0,0.0,0.0,0.0,0.0,0.0,0.0,0.0,0.0,0.0,0.0,0.0,0.0,0.0,1.5005,1.4957,1.5118,0.0,0.0,0.0,0.0,1.4097,1.3655,0.0,0.0,0.0,0.0,0.0,0.0,0.0,0.0,0.0,0.0,0.0,0.0,0.0,0.0,0.0,0.0,0.0,0.0,0.0,0.0,0.0,0.0,0.0,0.0,0.0,0.0,0.0,0.0,0.0,0.0,0.0,0.0,0.0,0.0,0.0,0.0,0.0,0.0,0.0,0.0,0.0,0.0,0.0,0.0,0.0,0.0,0.0,0.0,0.0,0.0,0.0,0.0,0.0,0.0,0.0,0.0,3.3597,3.5727,3.7426,3.8537,3.9135,3.9346,3.9132,3.7483,3.5568,0.0,0.0,0.0,0.0,0.0,0.0,0.0,0.0,0.0,0.0,0.0,0.0,0.0,0.0,0.0,0.0,0.0,0.0,0.0,0.0,0.0,0.0,0.0,0.0,0.0,0.0,0.0,0.0,0.0,0.0,0.0,0.0,0.0,0.0,0.0,0.0,0.0,0.0,0.0,0.0,0.0,1.5485,1.5835,1.5877,1.5934,0.0,0.0,1.511,1.4856,1.4397,0.0,0.0,0.0,0.0,0.0,0.0,0.0,0.0,0.0,0.0,0.0,0.0,0.0,0.0,0.0,0.0,0.0,0.0,0.0,0.0,0.0,0.0,0.0,0.0,0.0,0.0,0.0,0.0,0.0,0.0,0.0,0.0,0.0,0.0,0.0,0.0,0.0,0.0,0.0,0.0,0.0,0.0,0.0,0.0,0.0,0.0,0.0,0.0,0.0,0.0,0.0,0.0,0.0,0.0,0.0,3.2858,3.4589,3.5898,3.7358,3.9078,3.8989,3.9006,3.9237,3.7352,3.5424,0.0,0.0,0.0,0.0,0.0,0.0,0.0,0.0,0.0,0.0,0.0,0.0,0.0,0.0,0.0,0.0,0.0,0.0,0.0,0.0,0.0,0.0,0.0,0.0,0.0,0.0,0.0,0.0,0.0,0.0,0.0,0.0,0.0,0.0,0.0,0.0,0.0,0.0,0.0,0.0,0.0,0.0,1.701,1.7098,0.0,0.0,0.0,1.6606,1.6252,0.0,0.0,0.0,0.0,0.0,0.0,0.0,0.0,0.0,0.0,0.0,0.0,0.0,0.0,0.0,0.0,0.0,0.0,0.0,0.0,0.0,0.0,0.0,0.0,0.0,0.0,0.0,0.0,0.0,0.0,0.0,0.0,0.0,0.0,0.0,0.0,0.0,0.0,0.0,0.0,0.0,0.0,0.0,0.0,0.0,0.0,0.0,0.0,0.0,0.0,0.0,0.0,0.0,0.0,0.0,0.0,0.0,3.5361,3.6171,3.745,3.9409,3.8815,3.8607,3.8886,3.6959,0.0,0.0,0.0,0.0,0.0,0.0,0.0,0.0,0.0,0.0,0.0,0.0,0.0,0.0,0.0,0.0,0.0,0.0,0.0,0.0,0.0,0.0,0.0,0.0,0.0,0.0,0.0,1.3816,0.0,0.0,0.0,0.0,0.0,0.0,0.0,0.0,0.0,0.0,0.0,0.0,0.0,0.0,1.71,1.768,1.8078,1.8363,0.0,0.0,1.781,1.7424,1.6381,1.5614,0.0,0.0,0.0,0.0,0.0,0.0,0.0,0.0,0.0,0.0,0.0,0.0,0.0,0.0,0.0,0.0,0.0,0.0,0.0,0.0,0.0,0.0,0.0,0.0,0.0,0.0,0.0,0.0,0.0,0.0,0.0,0.0,0.0,0.0,0.0,0.0,0.0,0.0,0.0,0.0,0.0,0.0,0.0,0.0,0.0,0.0,0.0,0.0,0.0,0.0,0.0,0.0,0.0,0.0,3.4093,3.5388,3.6578,3.7665,3.8575,3.8304,3.8031,3.7505,3.6006,3.4527,0.0,0.0,0.0,0.0,0.0,0.0,0.0,0.0,0.0,0.0,0.0,0.0,0.0,0.0,0.0,0.0,0.0,0.0,0.0,0.0,0.0,0.0,0.0,0.0,0.0,0.0,0.0,0.0,0.0,0.0,0.0,0.0,0.0,0.0,0.0,0.0,0.0,0.0,0.0,0.0,0.0,1.7399,1.7735,1.8306,1.8802,0.0,1.8339,1.7946,1.7932,1.6988,1.6095,1.5515,0.0,0.0,0.0,0.0,0.0,0.0,0.0,0.0,0.0,0.0,0.0,0.0,0.0,0.0,0.0,0.0,0.0,0.0,0.0,0.0,0.0,0.0,0.0,0.0,0.0,0.0,0.0,0.0,0.0,0.0,0.0,0.0,0.0,0.0,0.0,0.0,0.0,0.0,0.0,0.0,0.0,0.0,0.0,0.0,0.0,0.0,0.0,0.0,0.0,0.0,0.0,0.0,0.0,3.4458,3.625,3.7111,3.8033,3.9002,3.873,3.835,3.8063,3.6307,3.4686,0.0,0.0,0.0,0.0,0.0,0.0,0.0,0.0,0.0,0.0,0.0,0.0,0.0,0.0,0.0,0.0,0.0,0.0,0.0,0.0,0.0,0.0,0.0,0.0,0.0,0.0,0.0,0.0,1.493,1.4695,1.4532,0.0,0.0,0.0,0.0,0.0,0.0,0.0,0.0,0.0,0.0,1.8089,1.8914,1.9328,0.0,0.0,1.9454,1.8957,1.8562,1.7553,1.6639,1.6049,1.557,0.0,0.0,0.0,0.0,0.0,0.0,0.0,0.0,0.0,0.0,0.0,0.0,0.0,0.0,0.0,0.0,0.0,0.0,0.0,0.0,0.0,0.0,0.0,0.0,0.0,0.0,0.0,0.0,0.0,0.0,0.0,0.0,0.0,0.0,0.0,0.0,0.0,0.0,0.0,0.0,0.0,0.0,0.0,0.0,0.0,0.0,0.0,0.0,0.0,0.0,0.0,0.0,3.4794,3.6797,3.731,3.8122,3.9232,3.8702,3.8313,3.8116,3.6162,3.4581,0.0,0.0,0.0,0.0,0.0,0.0,0.0,0.0,0.0,0.0,0.0,0.0,0.0,0.0,0.0,0.0,0.0,0.0,0.0,0.0,0.0,0.0,0.0,0.0,0.0,0.0,0.0,0.0,1.5466,1.5203,1.4825,0.0,0.0,0.0,0.0,0.0,0.0,0.0,0.0,0.0,0.0,1.881,1.9494,1.9941,2.03,2.053,2.0149,1.9637,1.9097,1.8266,1.7436,1.6832,0.0,0.0,0.0,0.0,0.0,0.0,0.0,0.0,0.0,0.0,0.0,0.0,0.0,0.0,0.0,0.0,0.0,0.0,0.0,0.0,0.0,0.0,0.0,0.0,0.0,0.0,0.0,0.0,0.0,0.0,3.6344,0.0,0.0,0.0,0.0,0.0,0.0,0.0,0.0,0.0,0.0,0.0,0.0,0.0,0.0,0.0,0.0,0.0,0.0,0.0,0.0,0.0,0.0,3.5205,3.6549,3.7076,3.7756,3.8625,3.804,3.759,3.7521,3.5265,3.404,3.3946,0.0,0.0,0.0,0.0,0.0,0.0,0.0,0.0,0.0,0.0,0.0,0.0,0.0,0.0,0.0,0.0,0.0,0.0,0.0,0.0,0.0,0.0,0.0,0.0,0.0,0.0,1.579,1.5389,1.5076,0.0,0.0,0.0,0.0,0.0,0.0,0.0,0.0,0.0,0.0,1.8642,1.9242,1.9301,2.0091,2.0565,2.0384,2.0033,1.9682,1.9443,1.8874,1.826,0.0,0.0,0.0,0.0,0.0,0.0,0.0,0.0,0.0,0.0,0.0,0.0,0.0,0.0,0.0,0.0,0.0,0.0,0.0,0.0,0.0,0.0,0.0,0.0,0.0,0.0,0.0,3.8812,3.8841,0.0,0.0,0.0,0.0,0.0,0.0,0.0,0.0,0.0,0.0,0.0,3.9189,4.0275,0.0,0.0,0.0,0.0,0.0,0.0,0.0,0.0,0.0,0.0,0.0,0.0,3.5491,3.6641,3.7505,3.8015,3.8187,3.8009,3.7581,3.71,3.5329,3.374,3.2465,0.0,0.0,0.0,0.0,0.0,0.0,0.0,0.0,0.0,0.0,0.0,0.0,0.0,0.0,0.0,0.0,0.0,0.0,0.0,0.0,0.0,0.0,0.0,0.0,0.0,1.7139,0.0,0.0,0.0,0.0,0.0,0.0,0.0,0.0,0.0,0.0,0.0,1.8423,1.8745,1.9257,1.9755,2.0179,2.0294,2.0456,0.0,0.0,0.0,0.0,0.0,0.0,0.0,0.0,0.0,0.0,0.0,0.0,0.0,0.0,1.5436,1.4234,1.3278,1.2755,1.2546,0.0,0.0,0.0,0.0,0.0,0.0,0.0,0.0,0.0,0.0,0.0,0.0,0.0,0.0,4.0786,0.0,4.0554,0.0,0.0,0.0,0.0,0.0,0.0,0.0,0.0,3.9292,3.9548,4.0891,4.1995,4.1966,0.0,3.9824,3.853,0.0,0.0,0.0,0.0,0.0,0.0,0.0,0.0,3.5845,3.6883,3.7716,3.81,3.8241,3.7992,3.7523,3.6951,3.5064,3.3204,3.1317,3.0427,2.9415,0.0,0.0,0.0,0.0,0.0,0.0,0.0,0.0,0.0,0.0,0.0,0.0,0.0,0.0,0.0,0.0,0.0,0.0,0.0,0.0,0.0,0.0,0.0,1.811,0.0,0.0,0.0,0.0,0.0,0.0,0.0,0.0,0.0,1.7999,1.8555,1.9125,1.955,1.9886,2.0296,2.0598,0.0,0.0,0.0,0.0,0.0,0.0,0.0,1.919,1.8889,1.8656,1.8477,1.8135,1.8134,1.8219,1.8319,0.0,0.0,1.5839,1.4888,1.4441,1.4441,1.3994,1.3423,1.3209,1.2984,1.2758,0.0,0.0,0.0,0.0,0.0,0.0,0.0,0.0,4.2237,4.2266,0.0,4.157,0.0,0.0,0.0,0.0,0.0,4.0873,0.0,0.0,4.0435,4.1028,4.2338,4.3024,4.2908,4.2281,4.1254,4.0321,3.9564,3.7293,0.0,0.0,0.0,0.0,0.0,0.0,3.627,3.7253,3.7603,3.8088,3.8613,3.7831,3.7265,3.7041,3.4447,3.2292,3.0762,3.0077,2.9126,2.8026,2.8058,0.0,0.0,0.0,0.0,0.0,0.0,0.0,0.0,0.0,0.0,0.0,0.0,0.0,0.0,0.0,0.0,0.0,0.0,0.0,0.0,1.9812,0.0,0.0,0.0,0.0,0.0,0.0,0.0,0.0,0.0,0.0,1.936,1.936,1.9564,2.0179,0.0,0.0,0.0,0.0,2.1109,2.0777,2.0711,2.0577,2.0214,2.0214,2.0214,2.0227,0.0,0.0,1.9005,1.9223,1.9369,1.9636,1.9687,1.9198,1.7589,1.6724,1.6346,1.6346,1.5753,1.5277,1.5277,1.4799,1.4311,4.9785,0.0,0.0,0.0,0.0,4.4792,4.4792,4.4792,4.4792,4.4792,4.4763,4.4095,0.0,0.0,0.0,0.0,0.0,0.0,4.2595,4.3372,4.3512,4.3674,4.4004,4.4556,4.4089,4.2817,4.2286,4.1377,4.0151,3.8965,3.7455,3.588,0.0,0.0,0.0,0.0,3.663,3.7062,3.7563,3.7829,3.7737,3.6969,3.5873,3.4268,3.2933,3.1841,3.084,3.0315,2.9546,2.832,2.8398,0.0,0.0,0.0,0.0,0.0,0.0,0.0,0.0,0.0,0.0,0.0,0.0,0.0,0.0,0.0,0.0,0.0,0.0,0.0,2.1786,2.1213,2.0475,0.0,0.0,0.0,0.0,0.0,0.0,0.0,0.0,0.0,2.0911,2.0794,2.072,0.0,0.0,2.1421,2.1389,2.1131,2.0856,2.0698,2.047,0.0,2.0227,2.0241,2.0307,2.0508,2.0518,2.0611,2.0486,2.0472,2.0566,2.0644,2.0566,2.0488,2.0015,1.9247,1.8638,1.8375,1.7987,1.7485,1.7107,1.6844,1.6412,5.4517,5.1381,4.9524,4.8508,4.8159,4.8159,4.8159,4.813,4.7898,4.7782,4.7695,4.6471,4.5656,4.528,4.4179,0.0,0.0,0.0,4.3856,4.4687,4.5373,4.5481,4.5149,4.5468,4.4814,4.346,4.2895,4.2011,4.0829,3.9773,3.858,3.7224,0.0,0.0,3.6515,3.6883,3.7286,3.7705,3.7915,3.7935,3.7684,3.6534,3.505,3.3231,3.2338,3.1577,3.0812,3.0242,2.9524,2.8595,2.8726,2.8544,0.0,0.0,0.0,0.0,0.0,0.0,0.0,0.0,0.0,0.0,0.0,2.4514,2.4201,0.0,0.0,0.0,2.352,2.334,2.3094,2.26,0.0,0.0,0.0,0.0,0.0,0.0,0.0,2.1279,2.1264,2.1377,2.1964,2.1991,2.1904,2.1642,2.1683,2.1761,2.1882,0.0,2.1026,2.1132,2.1047,2.0922,2.0935,2.0922,2.0989,2.1162,2.1336,2.1443,2.1456,2.1474,2.1503,2.149,2.1515,2.1671,2.1776,2.125,2.0548,1.9825,1.9386,1.8995,1.8473,1.8211,1.774,5.89,5.7448,5.3907,5.2223,5.1933,5.1933,5.1933,5.1875,5.1236,5.0975,5.083,4.8682,4.7568,4.7396,4.5685,0.0,4.4109,4.476,4.505,4.5084,4.6271,4.6374,4.5902,4.5768,4.5129,4.4044,4.323,4.2318,4.1311,4.0007,3.9144,3.8536,3.756,3.7342,3.7705,3.7834,3.8136,3.8732,3.8374,3.8166,3.7952,3.6252,3.4757,3.334,3.2363,3.1445,3.0698,3.0063,2.9389,2.8849,2.8975,2.8945,2.8672,0.0,0.0,0.0,0.0,0.0,0.0,0.0,0.0,0.0,0.0,0.0,0.0,0.0,0.0,2.4715,2.4631,0.0,2.4418,2.4116,0.0,0.0,0.0,2.1239,2.1635,2.2087,2.2343,2.2243,0.0,0.0,2.2696,2.3015,2.2932,2.2326,2.1953,2.1911,2.2104,2.1809,2.176,2.1975,2.1964,2.1964,2.1871,2.1924,2.1937,2.1964,2.2044,2.2058,2.2058,2.2058,2.2178,2.2392,2.2445,2.2525,2.2806,2.2519,2.1881,2.0684,2.0197,1.9917,1.9527,1.899,1.8373,6.2006,6.1542,5.9684,5.7216,5.4517,5.4517,5.4517,5.4458,5.3878,5.3588,5.3471,5.1251,4.9467,4.8127,4.7744,4.7207,4.6606,4.6514,4.6593,4.654,4.6491,4.6299,4.6199,4.5641,4.4658,4.3338,4.2849,4.1717,4.0096,3.9224,3.8515,3.775,3.7284,3.732,3.7784,3.8421,3.8767,3.8733,3.8539,3.7862,3.648,3.5519,3.4262,3.2575,3.2085,3.1445,3.068,3.0199,2.9696,2.9064,2.9238,2.9257,2.9088,2.8408,0.0,0.0,0.0,0.0,0.0,0.0,0.0,0.0,0.0,2.637,2.6507,0.0,2.5825,0.0,2.5093,2.4805,2.4812,2.4498,0.0,0.0,2.3293,2.2925,2.2797,2.3184,2.3337,2.323,2.3208,2.3384,2.3691,2.3609,2.3364,2.3263,2.2722,2.2392,2.2415,2.2168,2.1948,2.1964,2.2004,2.1991,2.2017,2.2178,2.2311,2.2311,2.2498,2.2645,2.2645,2.2659,2.2686,2.2739,2.2752,2.2792,2.2859,2.2585,2.2134,2.1594,2.1158,2.0735,2.0484,2.0197,1.9839,6.4357,6.4241,6.2993,6.1193,5.919,5.8348,5.7826,5.7507,5.6897,5.6316,5.562,5.3308,5.1128,4.9134,4.9106,4.8548,4.7455,4.7108,4.6892,4.6737,4.5979,4.5693,4.5649,4.4799,4.3671,4.2329,4.1827,4.0781,3.9186,3.8449,3.7807,3.7166,3.6926,3.6924,3.718,3.8267,3.8615,3.8407,3.7634,3.6546,3.5129,3.4478,3.3623,3.2352,3.2017,3.1464,3.0926,3.0389,2.9867,2.9324,2.9443,2.9362,2.92,2.878,2.8652,0.0,0.0,0.0,0.0,0.0,0.0,0.0,0.0,0.0,0.0,0.0,2.6481,2.6423,2.5881,2.5572,2.5554,2.5343,2.4971,2.4395,2.4456,2.436,2.3559,2.397,2.4172,2.3839,2.3851,2.4009,2.418,2.404,2.3868,2.3854,2.3337,2.2875,2.2631,2.2443,2.2218,2.2352,2.2378,2.2378,2.2378,2.2512,2.2619,2.2632,2.2873,2.3073,2.3073,2.318,2.3273,2.326,2.3153,2.3073,2.2921,2.2388,2.191,2.1622,2.1207,2.0943,2.0665,2.0527,2.0178,6.6186,6.607,6.488,6.4386,6.427,6.2558,6.1338,6.0526,5.9829,5.8697,5.7075,5.4902,5.2625,5.0354,5.0354,4.9418,4.7846,4.7483,4.7064,4.6601,4.5654,4.5036,4.4863,4.3742,4.2603,4.1456,4.0755,3.9726,3.8358,3.755,3.6813,3.633,3.6061,3.5976,3.6058,3.7183,3.7794,3.7862,3.6346,3.5064,3.3974,3.363,3.3077,3.2294,3.2024,3.1607,3.1172,3.0531,2.9934,2.9617,2.9561,2.9493,2.931,2.9126,2.9067,0.0,2.8828,0.0,0.0,0.0,0.0,0.0,0.0,0.0,0.0,2.711,2.695,2.6844,2.6602,2.6388,2.6039,2.5974,2.5623,2.4735,2.5252,2.5246,2.4218,2.4535,2.461,2.4092,2.433,2.4498,2.4484,2.4313,2.4323,2.4241,2.3755,2.3305,2.2984,2.2674,2.2565,2.2832,2.2859,2.2806,2.2886,2.2913,2.2939,2.2993,2.3207,2.338,2.338,2.3581,2.3754,2.3728,2.3541,2.324,2.2946,2.2293,2.1698,2.142,2.0979,2.0665,2.0665,2.0527,2.0039,6.7522,6.7434,6.668,6.6331,6.6273,6.5402,6.4096,6.247,6.1338,5.9304,5.668,5.6194,5.4516,5.2204,5.2177,5.1462,5.0217,4.9864,4.9083,4.7947,4.696,4.6008,4.5191,4.3901,4.2655,4.1507,4.0571,3.9104,3.732,3.6542,3.5627,3.4448,3.4372,3.4296,3.4315,0.0,0.0,0.0,3.5733,3.4803,3.4042,3.3662,3.2948,3.191,3.215,0.0,3.1191,3.0634,3.0298,3.0051,2.9878,0.0,0.0,0.0,0.0,0.0,0.0,0.0,0.0,0.0,0.0,0.0,2.7194,2.7123,2.7712,2.7051,2.6575,2.6263,2.6037,2.5589,2.5242,2.5499,2.5368,2.4922,2.4975,2.4905,2.4724,2.4748,2.4694,2.4694,2.4609,2.4651,2.4665,2.4424,2.435,2.4222,2.4012,2.3647,2.3668,2.3225,2.2819,2.2859,2.2913,2.2979,2.3207,2.3233,2.3313,2.3527,2.3634,2.3688,2.3688,2.3728,2.3781,2.3794,2.3728,2.3545,2.3248,2.2589,2.1963,2.1542,2.1102,2.0665,2.0665,2.0678,2.0376,6.8334,0.0,6.7638,6.7376,0.0,6.668,6.5664,6.4415,6.3167,6.0976,5.828,5.7651,5.5955,5.3613,5.3613,5.2579,5.0857,5.0379,4.9412,4.8156,4.6904,4.5758,4.4463,4.3125,4.1924,4.0707,3.9337,3.7828,3.6234,3.5067,3.3821,3.2771,3.2468,3.2165,3.2039,3.2342,3.2945,3.4183,3.3727,3.3289,3.2836,3.2685,3.2408,3.1708,3.1944,0.0,0.0,0.0,0.0,0.0,0.0,0.0,0.0,2.8871,0.0,2.8762,2.8711,2.8428,2.8243,2.8134,2.7841,2.7259,2.6663,2.6615,2.7156,2.6873,2.6464,2.6352,2.5997,2.5544,2.5271,2.5418,2.5244,2.4968,2.496,2.5017,2.4904,2.487,2.4891,2.4761,2.4761,2.4761,2.4761,2.4616,2.4485,2.4471,2.4206,2.3981,2.3941,2.3594,2.3313,2.3313,2.3313,2.3367,2.35,2.3541,2.3581,2.3741,2.3888,2.3968,2.3981,2.4102,2.4195,2.4195,2.4088,2.3838,2.3235,2.2729,2.2254,2.1685,2.1302,2.1076,2.1052,2.0859,2.0527,6.8828,6.877,6.8276,6.8044,6.7986,6.7318,6.6622,6.5838,0.0,0.0,0.0,5.9228,5.7463,5.5242,5.5103,5.381,5.1695,5.0843,4.9793,4.8434,4.7174,4.5739,4.4457,4.2996,4.1532,4.0297,3.8467,3.677,3.548,3.3868,3.2549,3.1367,3.0756,3.0324,2.9875,2.9947,3.0324,3.0657,3.1374,3.1652,3.1286,3.1513,3.1577,3.1292,3.1407,3.1433,3.0975,3.0699,3.0265,2.9833,2.9256,2.8766,2.8452,2.805,2.7798,2.7671,2.7687,2.7686,2.7579,2.7328,2.6941,2.6672,2.6177,2.5933,2.6506,2.6375,2.628,2.6283,2.6047,2.5667,2.5243,2.53,2.5172,2.4759,2.498,2.4988,2.4725,2.4915,2.4904,2.4636,2.4609,2.4623,2.4609,2.4609,2.4636,2.4609,2.4409,2.4275,2.4235,2.3955,2.3714,2.3714,2.3688,2.3754,2.3834,2.3848,2.3861,2.3955,2.4142,2.4262,2.4315,2.4476,2.4609,2.4583,2.4422,2.4011,2.3228,2.2879,2.2425,2.1691,2.151,2.1474,2.1438,2.1136,2.0695,6.8828,6.8799,6.8741,6.8683,6.8654,6.8015,6.7057,6.5838,6.459,6.2716,6.0681,6.0387,5.9222,5.7429,5.6892,5.5961,5.4781,5.351,5.2295,5.096,4.9672,4.8256,4.6968,4.5206,4.3432,4.1622,3.9779,3.7778,3.5573,3.3932,3.2423,3.0882,2.9992,2.9374,2.8555,2.8,2.7631,2.7777,2.9774,3.0956,3.1026,3.0617,3.0567,3.0564,3.0446,3.0376,3.0054,2.9679,2.9228,2.8853,2.8186,2.7749,2.7779,2.7352,2.697,2.6586,2.6601,2.6339,2.5688,2.5967,2.5981,2.5592,2.5456,2.5526,2.5933,2.574,2.5538,2.5596,2.5413,2.5268,2.4878,2.5084,2.5062,2.4636,2.469,2.4716,2.4556,2.4609,2.4636,2.4636,2.4636,2.4636,2.4636,2.4636,2.4636,2.4623,2.4569,2.4556,2.4462,2.4102,2.3808,2.3781,2.3781,2.3875,2.4088,2.4142,2.4235,2.4476,2.4516,2.4543,2.4529,2.4583,2.4636,2.4636,2.4583,2.4261,2.351,2.3159,2.2714,2.2093,2.1825,2.1535,2.1535,2.1426,2.1138,6.8828,6.8828,6.8828,6.8828,6.877,6.8131,6.7347,6.6389,6.546,6.393,6.2208,6.1488,6.0316,5.8945,5.8171,5.7041,5.5436,5.4649,5.347,5.1846,5.0664,4.9361,4.7977,4.6224,4.4436,4.2495,4.0371,3.8224,3.5885,3.4087,3.2381,3.0716,2.9325,2.8471,2.8123,2.7513,2.7374,2.7361,2.8104,2.8582,2.8847,2.871,2.8612,2.8563,2.8821,2.8633,2.8334,2.8302,2.8146,2.7894,2.7332,2.6907,2.6772,2.6357,2.6143,2.588,2.5894,2.5688,2.54,2.5267,2.5212,2.4943,2.4583,2.4636,2.4795,2.5022,2.5249,2.5249,2.5084,2.4861,2.4728,2.485,2.4784,2.4636,2.4636,2.4636,2.4636,2.4636,2.4636,2.4636,2.4636,2.4636,2.4636,2.4636,2.4636,2.4636,2.4636,2.4636,2.4636,2.4422,2.4235,2.4235,2.4249,2.4289,2.4409,2.4436,2.4489,2.4623,2.4636,2.4636,2.4636,2.4636,2.4636,2.4636,2.4636,2.4341,2.3748,2.3645,2.3273,2.2805,2.2448,2.235,2.2191,2.1946,2.145,6.8828,6.8828,6.8828,6.8828,6.877,6.816,6.758,6.7057,6.6273,6.5245,6.3948,6.2592,6.1365,6.0214,5.9472,5.8079,5.6391,5.5667,5.4433,5.2775,5.1596,5.0384,4.8868,4.716,4.5391,4.347,4.1226,3.8971,3.672,3.4661,3.2577,3.0581,2.893,2.8084,2.7921,2.754,2.7257,2.7203,2.6711,2.6696,2.7084,2.7084,2.7079,2.7078,2.7347,2.7231,2.6851,2.71,2.71,2.669,2.6396,2.6101,2.5834,2.5376,2.5188,2.513,2.5006,2.5099,2.5006,2.4739,2.4495,2.4479,2.4124,2.3858,2.383,2.4539,2.4918,2.4811,2.4609,2.4475,2.4475,2.4623,2.4636,2.4636,2.4636,2.4636,2.4636,2.4636,2.4636,2.4636,2.4636,2.4636,2.4636,2.4636,2.4488,2.4488,2.4341,2.4341,2.4341,2.4341,2.4341,2.4341,2.4341,2.4314,2.4341,2.4327,2.4327,2.4341,2.4341,2.4341,2.4341,2.4341,2.4341,2.4341,2.4488,2.4341,2.4044,2.4031,2.3722,2.3413,2.3091,2.2967,2.2794,2.2386,2.1836,6.8828,6.8828,6.8828,6.8828,6.8741,6.816,6.7841,6.7609,6.6476,6.5896,6.5361,6.3835,6.2521,6.1768,6.0638,5.9673,5.8817,5.7406,5.6037,5.4691,5.3443,5.1944,5.0359,4.8893,4.716,4.4983,4.2774,4.0576,3.8265,3.6243,3.3697,3.074,2.9191,2.8423,2.8084,2.7241,2.6901,2.6738,2.6333,2.6386,2.7031,2.713,2.6976,2.6668,2.6668,2.6488,2.6019,2.6143,2.5992,2.5563,2.5259,2.4953,2.4953,2.4495,2.4201,2.3766,2.3766,2.3778,2.3816,2.3803,2.3982,2.4406,2.424,2.3894,2.3666,2.3997,2.4124,2.3753,2.3909,2.4084,2.4044,2.4354,2.4502,2.4488,2.4488,2.4636,2.4488,2.4636,2.4636,2.4636,2.4488,2.4636,2.4488,2.4488,2.4341,2.4044,2.3896,2.3587,2.3587,2.3587,2.3587,2.3587,2.3748,2.3883,2.3735,2.3587,2.3587,2.3587,2.3587,2.3587,2.3587,2.36,2.36,2.4044,2.4044,2.4044,2.4044,2.4044,2.3896,2.3735,2.3451,2.329,2.3005,2.2521,2.2029,6.8828,6.8828,6.8828,6.8828,6.877,6.8538,6.816,6.7563,6.7289,6.6404,6.5318,6.4492,6.3661,6.2645,6.1716,6.0692,5.9611,5.8708,5.7655,5.6326,5.4868,5.3466,5.2193,5.0308,4.8322,4.6516,4.459,4.2443,4.0065,3.7362,3.4615,3.2569,3.1284,3.0407,3.0079,2.9086,2.8495,2.8482,2.7839,2.7405,2.7255,2.672,2.6187,2.5896,2.574,2.5332,2.499,2.485,2.4604,2.4459,2.4302,2.4145,2.4145,2.3987,2.383,2.3356,2.3198,2.304,2.304,2.304,2.332,2.4021,2.3478,2.3069,2.3068,2.2889,2.2781,2.2919,2.3618,2.4022,2.3868,2.3993,2.4078,2.3935,2.3896,2.3896,2.3883,2.3896,2.3896,2.3896,2.3896,2.3896,2.3896,2.3896,2.3883,2.3735,2.3438,2.3438,2.3438,2.3438,2.329,2.3141,2.3302,2.3302,2.329,2.3438,2.3438,2.3438,2.3438,2.3438,2.3438,2.3438,2.3438,2.36,2.3748,2.3896,2.4044,2.4193,2.4341,2.4044,2.3896,2.3587,2.3005,2.2707,2.2435,6.8828,6.8828,6.8828,6.8828,6.8828,6.8828,6.8374,6.7852,6.7928,6.7099,6.6114,6.5548,6.4648,6.3603,6.2761,6.1652,6.0336,5.9715,5.8803,5.7575,5.611,5.4978,5.3779,5.1996,5.0096,4.8439,4.661,4.4321,4.1624,3.8513,3.6095,3.4725,3.3481,3.2623,3.1948,3.0883,3.0287,3.0108,2.9414,2.8659,2.8167,2.7344,2.644,2.5627,2.5275,2.5,2.4662,2.4328,2.4182,2.4122,2.3949,2.3913,2.3852,2.384,2.3692,2.3359,2.305,2.2889,2.2728,2.2728,2.3003,2.3365,2.2646,2.2225,2.2234,2.2176,2.2165,2.2478,2.3249,2.3748,2.3719,2.382,2.3871,2.3693,2.3667,2.3667,2.368,2.3667,2.3655,2.3578,2.3591,2.3527,2.3464,2.329,2.3302,2.329,2.3154,2.3141,2.3154,2.3005,2.3005,2.2707,2.2707,2.2856,2.3005,2.3005,2.3154,2.3154,2.3005,2.3005,2.3141,2.3141,2.3141,2.3154,2.36,2.3748,2.3896,2.4193,2.4488,2.4488,2.4193,2.3735,2.3154,2.3005,2.2707,6.8828,6.8828,6.8828,6.8828,6.8828,6.8828,6.8799,6.8654,6.816,6.8119,6.8165,6.6723,6.5519,6.4793,6.3661,6.2579,6.1516,6.0516,5.9578,5.8372,5.7266,5.6101,5.4826,5.4039,5.2803,5.0863,4.8916,4.5939,4.2317,4.0163,3.839,3.7099,3.5527,3.4262,3.3429,3.2412,3.1768,3.1407,3.0578,3.0093,2.9926,2.9592,2.8135,2.6388,2.5956,2.5944,2.5779,2.5425,2.5136,2.4889,2.4527,2.4106,2.3888,2.3852,2.368,2.368,2.3692,2.352,2.3211,2.305,2.3038,2.2705,2.2522,2.2178,2.1596,2.211,2.2453,2.251,2.2625,2.2905,2.3438,2.3803,2.392,2.3869,2.4048,2.4035,2.4048,2.3832,2.3934,2.3745,2.3694,2.3618,2.3366,2.3154,2.3067,2.2918,2.2594,2.2457,2.2481,2.2457,2.2445,2.2445,2.2433,2.242,2.242,2.2558,2.2408,2.2558,2.2558,2.2408,2.2408,2.2408,2.2558,2.2856,2.3005,2.3302,2.3748,2.4044,2.4341,2.4341,2.4193,2.3748,2.3302,2.3154,2.2707,6.9205,6.8828,6.8828,6.8828,6.8828,6.8828,6.8828,6.8799,6.8596,6.8585,6.8648,6.7654,6.6593,6.5548,6.5112,6.3999,6.2514,6.1574,6.0774,5.9939,5.8541,5.7299,5.6401,5.5168,5.3964,5.2567,5.0961,4.831,4.472,4.2515,4.0569,3.9022,3.7454,3.619,3.5059,3.4246,3.346,3.2819,3.2159,3.1662,3.0998,3.0665,2.9703,2.8675,2.7642,2.7053,2.6721,2.6058,2.5741,2.5653,2.5326,2.4851,2.4417,2.3776,2.3371,2.3371,2.3211,2.305,2.2889,2.2889,2.2545,2.1867,2.2384,2.2223,2.1545,2.1728,2.2084,2.2084,2.2245,2.2453,2.2805,2.2934,2.2924,2.2758,2.2722,2.2746,2.2722,2.2722,2.2686,2.2911,2.3194,2.331,2.3224,2.3071,2.3071,2.3071,2.2906,2.2742,2.2718,2.2633,2.2512,2.2488,2.238,2.2271,2.2271,2.2271,2.2271,2.2271,2.2271,2.242,2.2271,2.2295,2.2594,2.2606,2.2744,2.2856,2.3451,2.3748,2.4044,2.4341,2.4193,2.3748,2.3451,2.3191,2.2582,6.9525,6.9147,6.8915,6.8828,6.8828,6.8828,6.8828,6.8828,6.8828,6.8847,6.8748,6.8207,6.7376,6.6564,6.6128,6.5286,6.398,6.2765,6.1997,6.1461,5.9843,5.8716,5.798,5.6604,5.5317,5.4027,5.2186,4.9652,4.6757,4.472,4.2729,4.1055,3.9512,3.8109,3.6992,3.6046,3.5092,3.4294,3.364,3.2968,3.2144,3.1647,3.1331,3.0636,2.9452,2.8509,2.7829,2.7158,2.6669,2.6579,2.6082,2.5577,2.5063,2.4319,2.384,2.3852,2.3532,2.3211,2.305,2.2889,2.2545,2.1867,2.2211,2.2395,2.19,2.2073,2.2084,2.2084,2.1922,2.2084,2.2211,2.2087,2.1919,2.2076,2.2042,2.2053,2.2042,2.2053,2.2176,2.2408,2.2459,2.2734,2.2734,2.2722,2.271,2.2734,2.2734,2.2734,2.3031,2.2923,2.2778,2.2766,2.2657,2.2585,2.2585,2.2609,2.2404,2.2355,2.244,2.2404,2.2392,2.2392,2.238,2.253,2.2493,2.2731,2.3005,2.3464,2.3761,2.4219,2.4044,2.36,2.334,2.3105,2.2692,6.9786,6.9641,6.9089,6.8857,6.8828,6.8828,6.8828,6.8828,6.8828,6.8799,6.8712,6.8189,6.787,6.7551,6.6622,6.5954,6.5448,6.415,6.3158,6.2399,6.1269,6.0426,5.9837,5.8364,5.7038,5.5683,5.2779,5.0269,4.8286,4.6359,4.472,4.34,4.1539,4.0002,3.8603,3.7809,3.6707,3.5578,3.4913,3.4441,3.364,3.2983,3.2489,3.2174,3.1301,3.0289,2.9621,2.8601,2.7936,2.7556,2.7004,2.6274,2.5762,2.5147,2.4996,2.497,2.4652,2.4332,2.3852,2.352,2.3211,2.305,2.2889,2.2901,2.2901,2.2728,2.2567,2.2406,2.2245,2.1922,2.1922,2.1739,2.1717,2.2395,2.2316,2.2316,2.251,2.2545,2.2465,2.2225,2.2176,2.1836,2.1825,2.205,2.2073,2.2061,2.205,2.2385,2.29,2.2662,2.2746,2.3056,2.2805,2.2543,2.2781,2.2995,2.2693,2.2488,2.2609,2.2657,2.2657,2.2657,2.2657,2.2645,2.2712,2.2814,2.3104,2.3405,2.3667,2.3804,2.3565,2.3429,2.338,2.3027,2.2621,7.0163,6.9757,6.9554,6.9234,6.8857,6.8828,6.8828,6.8828,6.8828,6.8828,6.877,6.8625,6.8305,6.7899,6.7434,6.7028,6.6535,6.5563,6.4509,6.3273,6.2457,6.1639,6.102,5.985,5.8173,5.6027,5.3784,5.1861,5.0175,4.8308,4.6699,4.5234,4.3553,4.1868,4.0315,3.955,3.8286,3.685,3.6368,3.5723,3.4783,3.4131,3.3476,3.2983,3.2489,3.1994,3.1345,2.9816,2.8923,2.8618,2.8454,2.777,2.6624,2.5796,2.5333,2.5155,2.497,2.4811,2.4652,2.4652,2.432,2.416,2.416,2.4012,2.3692,2.3532,2.3211,2.2728,2.2406,2.2406,2.2406,2.2245,2.2084,2.1761,2.1761,2.1761,2.1761,2.1922,2.205,2.1983,2.2214,2.2339,2.2316,2.2316,2.2282,2.2282,2.2293,2.2464,2.2623,2.2472,2.2234,2.2548,2.2432,2.2338,2.2541,2.2576,2.2424,2.2401,2.2603,2.2781,2.2769,2.2923,2.2923,2.285,2.2778,2.2894,2.3199,2.3339,2.3441,2.3643,2.3668,2.3541,2.3401,2.2992,2.2591,7.0715,7.0134,6.9873,6.9408,6.8857,6.8828,6.8828,6.8828,6.8828,6.8828,6.8828,6.8828,6.8625,6.8247,6.7986,6.7667,6.7173,6.6331,6.5361,6.4294,6.3273,6.2675,6.1955,6.0466,5.8989,5.693,5.5268,5.3734,5.2478,5.0603,4.8937,4.7158,4.5642,4.3871,4.2216,4.1268,4.0021,3.8444,3.7809,3.7188,3.6224,3.5271,3.4621,3.4131,3.364,3.3148,3.267,3.1331,3.047,2.9731,2.9353,2.8618,2.7527,2.6881,2.6373,2.6149,2.5911,2.5753,2.5607,2.5435,2.5117,2.4958,2.4958,2.4811,2.4332,2.4332,2.4,2.368,2.3359,2.3199,2.305,2.2889,2.2567,2.1922,2.1599,2.1438,2.1438,2.1438,2.1599,2.175,2.19,2.2084,2.2084,2.2084,2.2084,2.2084,2.2084,2.2245,2.2223,2.227,2.2202,2.2305,2.2406,2.2337,2.2122,2.2111,2.2111,2.2368,2.2478,2.2612,2.2733,2.2889,2.2877,2.3031,2.2923,2.2911,2.3218,2.3243,2.3396,2.3495,2.3699,2.3304,2.2947,2.2961,2.2565,7.1324,7.0686,7.0076,6.9466,6.8857,6.8828,6.8828,6.8828,6.8828,6.8828,6.8828,6.8828,6.8828,6.8654,6.8247,6.7986,6.7725,6.6767,6.6215,6.5621,6.4653,6.3606,6.2694,6.0896,5.9413,5.8241,5.7025,5.5699,5.4451,5.3054,5.1364,4.9282,4.7753,4.5923,4.428,4.3045,4.1832,4.043,3.9588,3.8603,3.749,3.6563,3.5918,3.5433,3.4621,3.4131,3.364,3.2983,3.2159,3.0954,2.9893,2.9278,2.8762,2.8305,2.7866,2.7416,2.7175,2.6847,2.6386,2.6215,2.5753,2.5435,2.5435,2.513,2.5276,2.5289,2.5117,2.497,2.4639,2.4308,2.384,2.368,2.3211,2.2728,2.2245,2.1761,2.1438,2.1438,2.1438,2.1438,2.1276,2.1276,2.1438,2.1438,2.1438,2.1438,2.1438,2.1599,2.175,2.1878,2.2073,2.2189,2.211,2.2087,2.1849,2.1849,2.1849,2.1816,2.2111,2.2395,2.2677,2.2823,2.3139,2.3128,2.3152,2.3128,2.3307,2.338,2.3393,2.3429,2.3393,2.2949,2.2721,2.2753,2.2337,7.1731,7.0715,7.0541,6.9844,6.8915,6.8828,6.8828,6.8828,6.8828,6.8828,6.8828,6.8828,6.8828,6.8799,6.8654,6.8596,6.8305,6.7696,6.7376,6.7231,6.6404,6.4742,6.3222,6.192,6.0567,5.9312,5.8375,5.7183,5.5802,5.4612,5.3176,5.1412,5.0063,4.8651,4.6985,4.5748,4.4377,4.2752,4.123,4.0178,3.9235,3.7986,3.7348,3.6707,3.608,3.5433,3.4783,3.3804,3.2819,3.2009,3.1271,3.0733,2.9891,2.9248,2.8759,2.8142,2.7745,2.7476,2.7319,2.7162,2.7004,2.7004,2.6847,2.6847,2.6531,2.6228,2.5911,2.5594,2.5117,2.4958,2.4811,2.4652,2.4332,2.352,2.2878,2.2245,2.1922,2.1761,2.1599,2.1438,2.1276,2.1276,2.1276,2.1276,2.1276,2.1276,2.1276,2.1276,2.1438,2.1599,2.1761,2.1599,2.1566,2.1577,2.1577,2.1577,2.1566,2.1545,2.1684,2.1983,2.2442,2.291,2.3241,2.35,2.3538,2.349,2.3575,2.3659,2.3623,2.3356,2.3222,2.287,2.2793,2.2613,2.227,7.2021,7.1092,7.0831,7.0134,6.9234,6.8944,6.8828,6.8828,6.8828,6.8828,6.8828,6.8828,6.8828,6.8828,6.8828,6.8828,6.8741,6.8189,6.787,6.7725,6.6896,6.5593,6.3965,6.2914,6.1761,6.0689,5.9805,5.8883,5.792,5.6637,5.5232,5.3593,5.2377,5.0928,4.9005,4.8071,4.6572,4.4831,4.3197,4.1931,4.0666,3.9393,3.8463,3.7827,3.7205,3.6563,3.5757,3.4783,3.3804,3.2834,3.2159,3.1692,3.1018,3.0381,2.972,2.9224,2.8919,2.8573,2.8431,2.8261,2.8104,2.7947,2.7805,2.7476,2.7319,2.7004,2.6689,2.6531,2.6228,2.607,2.5911,2.5594,2.5117,2.4492,2.4012,2.3211,2.2406,2.2245,2.2084,2.1922,2.1761,2.1599,2.1599,2.1438,2.1276,2.1276,2.1276,2.1276,2.1276,2.1276,2.1276,2.1276,2.1276,2.1438,2.1438,2.1438,2.1438,2.1438,2.1438,2.1599,2.2084,2.2728,2.3027,2.3496,2.3668,2.384,2.368,2.368,2.3472,2.3265,2.3199,2.2889,2.2567,2.2245,2.1922,7.2253,7.1615,7.1063,7.0424,6.9728,6.9176,6.8915,6.8828,6.8828,6.8828,6.8828,6.8828,6.8828,6.8828,6.8828,6.8828,6.8799,6.8305,6.8102,6.7841,6.7186,6.617,6.524,6.3867,6.2893,6.2248,6.1357,6.0537,5.9712,5.8507,5.7164,5.566,5.4546,5.2984,5.1389,5.0112,4.8613,4.6855,4.5307,4.3865,4.2361,4.1015,4.0016,3.9244,3.8181,3.7543,3.6563,3.5757,3.4929,3.3968,3.2999,3.2515,3.2042,3.1557,3.122,3.0724,3.0232,2.9819,2.9523,2.9212,2.89,2.8588,2.8261,2.779,2.7947,2.7947,2.779,2.779,2.7805,2.7319,2.7004,2.6373,2.5898,2.5435,2.5276,2.448,2.3371,2.2889,2.2728,2.2567,2.2245,2.2084,2.1922,2.1599,2.1438,2.1438,2.1438,2.1276,2.1276,2.1276,2.1276,2.1276,2.1276,2.1276,2.1276,2.1276,2.1276,2.1276,2.1276,2.1438,2.1761,2.2245,2.2717,2.3038,2.3199,2.3371,2.3371,2.3371,2.3211,2.305,2.2728,2.2395,2.2073,2.1761,2.1438,7.2253,7.1644,7.1498,7.0802,6.9844,6.9612,6.9263,6.8828,6.8828,6.8828,6.8828,6.8828,6.8828,6.8828,6.8828,6.8828,6.8828,6.8625,6.8625,6.8567,6.8486,6.7649,6.6624,6.5183,6.4004,6.3297,6.2671,6.174,6.0726,5.9814,5.856,5.7461,5.6352,5.5359,5.3959,5.2387,5.1152,4.9609,4.775,4.6108,4.4681,4.317,4.1935,4.0952,3.9459,3.834,3.7525,3.6867,3.6385,3.574,3.4929,3.4066,3.3563,3.2906,3.2396,3.17,3.1074,3.0438,3.0129,2.9974,2.9819,2.9664,2.9508,2.9508,2.9508,2.9197,2.9056,2.89,2.8588,2.8118,2.7633,2.7319,2.7004,2.6689,2.6346,2.5872,2.5104,2.4148,2.352,2.3211,2.2728,2.2406,2.2406,2.2084,2.1761,2.1761,2.1599,2.1438,2.1276,2.1438,2.1276,2.1276,2.1276,2.1276,2.1276,2.1276,2.1276,2.1276,2.1276,2.1276,2.1599,2.1761,2.2234,2.2556,2.2728,2.2889,2.305,2.2889,2.2728,2.2567,2.2406,2.1922,2.1599,2.1276,2.079,7.2427,7.2079,7.1789,7.1121,7.025,6.9902,6.9408,6.8915,6.8828,6.8828,6.8828,6.8828,6.8828,6.8828,6.8828,6.8828,6.8828,6.8828,6.8828,6.877,6.8759,6.8345,6.7795,6.665,6.5567,6.4403,6.3719,6.2811,6.185,6.0831,5.9888,5.8779,5.7953,5.687,5.5876,5.4401,5.2774,5.1187,4.9593,4.797,4.6322,4.5044,4.3351,4.1974,4.0458,3.9477,3.8658,3.8145,3.7667,3.7188,3.6707,3.5757,3.4668,3.3947,3.3111,3.2791,3.2071,3.1549,3.1363,3.1055,3.1071,3.0901,3.0747,3.0763,3.0608,3.0299,3.0129,2.9989,2.9523,2.8886,2.8573,2.8417,2.8261,2.7933,2.7449,2.7134,2.6689,2.5581,2.448,2.4,2.3532,2.3359,2.3038,2.2567,2.2406,2.2245,2.2245,2.1922,2.1599,2.1599,2.1438,2.1438,2.1276,2.1276,2.1276,2.1276,2.1276,2.1276,2.1276,2.1276,2.1438,2.1599,2.1761,2.2084,2.2406,2.2556,2.2717,2.2395,2.2245,2.2084,2.1922,2.1599,2.1114,2.0779,2.0292,7.2631,7.2573,7.2021,7.144,7.0831,7.0308,6.9699,6.9031,6.8973,6.8973,6.8828,6.8828,6.8828,6.8828,6.8828,6.8828,6.8828,6.8828,6.8828,6.8799,6.8799,6.8635,6.8276,6.7695,6.6885,6.5595,6.4772,6.386,6.3004,6.2206,6.1048,5.9948,5.8947,5.7953,5.6921,5.5729,5.4178,5.2498,5.107,4.9535,4.7639,4.6535,4.4836,4.2941,4.1777,4.0952,4.0072,3.9486,3.9096,3.8481,3.8322,3.7348,3.623,3.4844,3.4059,3.4025,3.3376,3.2889,3.2604,3.2435,3.2299,3.2146,3.184,3.1686,3.1533,3.1379,3.1209,3.0901,3.0593,3.0284,2.9834,2.9679,2.9508,2.9197,2.873,2.8417,2.8118,2.7004,2.6056,2.5276,2.4639,2.432,2.384,2.3371,2.305,2.2728,2.2728,2.2567,2.2245,2.1922,2.1922,2.1761,2.1761,2.1599,2.1599,2.1276,2.1276,2.1438,2.1438,2.1276,2.1276,2.1438,2.1599,2.175,2.1911,2.2073,2.2073,2.1911,2.1761,2.1599,2.1438,2.0952,2.0627,2.013,1.9815,7.2631,7.2602,7.2515,7.2108,7.1528,7.1382,7.0657,6.9728,6.9583,6.9292,6.8886,6.8828,6.8828,6.8828,6.8828,6.8828,6.8828,6.8828,6.8828,6.8828,6.8828,6.8692,6.8557,6.8227,6.7616,6.7033,6.578,6.4638,6.3778,6.2756,6.1983,6.1129,5.9774,5.8575,5.7523,5.6314,5.4967,5.3606,5.2377,5.0757,4.954,4.8187,4.6571,4.4406,4.3336,4.2584,4.1759,4.0859,4.0197,4.004,3.9411,3.8938,3.8231,3.708,3.6079,3.5383,3.4813,3.4263,3.3702,3.35,3.3348,3.3044,3.2892,3.274,3.2435,3.2283,3.2283,3.213,3.1977,3.1533,3.1087,3.0917,3.0593,3.0438,2.9974,2.9664,2.9212,2.8744,2.7633,2.6702,2.5911,2.5263,2.4798,2.432,2.384,2.3532,2.3211,2.305,2.2728,2.2567,2.2406,2.2406,2.2406,2.2245,2.1922,2.1599,2.1438,2.1599,2.1599,2.1438,2.1438,2.1276,2.1438,2.1599,2.1599,2.1599,2.1599,2.1438,2.1276,2.1114,2.079,2.0465,2.015,1.9835,1.9529,7.2631,7.2631,7.2631,7.2253,7.1731,7.1644,7.115,7.0279,6.9931,6.9612,6.9292,6.9002,6.8828,6.8828,6.8828,6.8828,6.8828,6.8828,6.8828,6.8828,6.8828,6.8828,6.8692,6.8363,6.7925,6.7455,6.6647,6.553,6.4722,6.3888,6.292,6.179,6.0489,5.9263,5.8148,5.6921,5.5607,5.4421,5.3219,5.2,5.0743,4.9407,4.7669,4.5985,4.5064,4.4284,4.319,4.2561,4.1815,4.1191,4.0821,4.0353,3.9826,3.9205,3.8053,3.6886,3.5994,3.5432,3.4795,3.4556,3.4406,3.4255,3.4105,3.4105,3.3785,3.3651,3.35,3.3196,3.3044,3.274,3.2452,3.213,3.1977,3.167,3.1194,3.0732,3.0454,3.0314,2.9383,2.8118,2.7162,2.6373,2.5753,2.5276,2.4798,2.432,2.384,2.3532,2.3211,2.3211,2.305,2.2889,2.2728,2.2567,2.2245,2.2084,2.1761,2.1761,2.1772,2.1772,2.1632,2.1643,2.1459,2.1438,2.1276,2.1362,2.1286,2.1297,2.0962,2.0648,2.0344,1.9865,1.9692,1.9375,1.9279,7.2631,7.2631,7.2631,7.2311,7.1905,7.1876,7.1498,7.0889,7.0424,7.0018,6.9699,6.9263,6.8973,6.8857,6.8828,6.8828,6.8828,6.8828,6.8828,6.8828,6.8828,6.8828,6.8663,6.8392,6.7953,6.7679,6.7236,6.6621,6.5475,6.4777,6.3804,6.2723,6.1414,5.9969,5.8694,5.732,5.6051,5.4719,5.3672,5.2612,5.1385,4.9964,4.8417,4.706,4.6796,4.5838,4.4391,4.3968,4.3217,4.2511,4.1927,4.1618,4.0977,4.0821,3.9989,3.8554,3.7307,3.6563,3.603,3.5754,3.5605,3.5456,3.5306,3.5306,3.5157,3.4857,3.4556,3.4255,3.4105,3.3954,3.3651,3.35,3.3348,3.2876,3.2402,3.1775,3.1824,3.1549,3.0948,2.9834,2.8573,2.7633,2.7018,2.607,2.5594,2.5117,2.4798,2.4332,2.4172,2.4012,2.3692,2.3211,2.305,2.2889,2.2728,2.2567,2.2406,2.2245,2.2268,2.2279,2.2162,2.2033,2.1882,2.1774,2.1502,2.1566,2.1274,2.1079,2.0868,2.057,1.9811,1.9492,1.9425,1.9132,1.9014,7.2631,7.2631,7.2631,7.2573,7.2485,7.2456,7.2137,7.1586,7.1411,7.0773,6.9931,6.9699,6.9379,6.9002,6.8886,6.8857,6.8828,6.8828,6.8828,6.8828,6.8828,6.8828,6.8692,6.845,6.7982,6.7679,6.7431,6.7014,6.6034,6.5082,6.4523,6.3743,6.2121,6.0551,5.9189,5.7805,5.635,5.499,5.387,5.2635,5.1562,5.05,4.9472,4.8689,4.8091,4.7346,4.6011,4.5342,4.444,4.3586,4.3024,4.2697,4.2216,4.2216,4.1955,4.0907,3.9507,3.8085,3.75,3.7239,3.6905,3.6757,3.6571,3.6367,3.6052,3.5754,3.5456,3.5456,3.5157,3.4857,3.4707,3.4556,3.4255,3.4105,3.3785,3.3331,3.3061,3.2773,3.2315,3.1395,3.0114,2.9197,2.8431,2.7333,2.6228,2.5911,2.5607,2.5289,2.4811,2.4652,2.4492,2.4012,2.3692,2.3532,2.3371,2.3211,2.305,2.2889,2.2797,2.2832,2.275,2.2678,2.2508,2.2234,2.2124,2.1793,2.1563,2.1408,2.1004,2.0483,1.9894,1.9619,1.9399,1.9091,1.8744,7.2631,7.2631,7.2631,7.2631,7.2631,7.2631,7.2456,7.2166,7.1818,7.1353,7.0831,7.0424,6.996,6.9437,6.935,6.9147,6.8915,6.8828,6.8828,6.8828,6.8828,6.8828,6.8692,6.845,6.8148,6.7707,6.7264,6.6735,6.6174,6.5498,6.4823,6.37,6.2426,6.0842,5.9617,5.8269,5.71,5.58,5.4319,5.2905,5.1885,5.1103,5.0322,4.9695,4.9473,4.863,4.7549,4.6785,4.5852,4.4947,4.4259,4.3767,4.3442,4.3116,4.2779,4.2029,4.1072,4.0073,3.9265,3.9019,3.8547,3.8226,3.8021,3.7667,3.7053,3.6831,3.6664,3.6664,3.6516,3.6201,3.6052,3.5903,3.5605,3.5456,3.506,3.4742,3.429,3.3988,3.3534,3.2757,3.1824,3.0747,2.9834,2.873,2.7476,2.6702,2.6386,2.5911,2.5435,2.513,2.497,2.4811,2.4492,2.4332,2.4172,2.4012,2.3692,2.3567,2.3584,2.3631,2.34,2.3188,2.3041,2.2833,2.2721,2.2375,2.1997,2.1484,2.0823,2.0477,1.9962,1.9683,1.9231,1.8946,1.8794,7.2631,7.2631,7.2631,7.2631,7.2631,7.2631,7.2602,7.2544,7.2137,7.1818,7.1528,7.0976,7.0337,6.9873,6.9699,6.9379,6.8828,6.8828,6.8828,6.8828,6.8828,6.8828,6.8692,6.8421,6.7982,6.7679,6.7154,6.6595,6.6031,6.5407,6.4615,6.3659,6.2499,6.1101,5.985,5.8704,5.7446,5.626,5.4669,5.3576,5.2883,5.1844,5.1194,5.0792,5.0344,4.9786,4.8675,4.8168,4.74,4.5986,4.5534,4.5018,4.4395,4.4029,4.3622,4.318,4.2624,4.233,4.1494,4.0823,4.0136,3.979,3.9465,3.9051,3.8387,3.8144,3.792,3.7862,3.7549,3.7402,3.7126,3.7035,3.6868,3.657,3.6384,3.5899,3.5581,3.5299,3.4644,3.3651,3.274,3.1993,3.1055,2.9974,2.8886,2.7805,2.7018,2.6544,2.607,2.5594,2.5448,2.5289,2.497,2.4811,2.4652,2.4492,2.4332,2.4246,2.428,2.445,2.422,2.3915,2.3793,2.3561,2.3303,2.301,2.267,2.1726,2.0807,2.0547,2.0255,1.9505,1.902,1.8741,1.8468,7.2631,7.2631,7.2631,7.2631,7.2631,7.2631,7.2631,7.2631,7.2544,7.2195,7.1702,7.1063,7.0541,7.0018,6.9931,6.9612,6.8857,6.8828,6.8857,6.8857,6.8828,6.8828,6.8557,6.8256,6.7679,6.7541,6.7014,6.6314,6.5605,6.5176,6.469,6.4083,6.2603,6.1424,5.9993,5.8807,5.7611,5.644,5.5171,5.4741,5.4131,5.3335,5.2409,5.1936,5.1149,5.0252,4.9317,4.9183,4.8541,4.6963,4.6637,4.6117,4.5276,4.4824,4.4546,4.4482,4.4205,4.397,4.3481,4.2297,4.1272,4.1022,4.0773,4.0464,3.981,3.977,3.9445,3.9062,3.8681,3.829,3.8054,3.8002,3.8231,3.812,3.7951,3.7502,3.7128,3.6362,3.5689,3.4609,3.3685,3.2992,3.184,3.0747,2.9664,2.8431,2.749,2.7018,2.6702,2.6386,2.607,2.5753,2.5448,2.513,2.513,2.497,2.4811,2.4776,2.4802,2.5012,2.5034,2.477,2.4554,2.4322,2.4063,2.3801,2.332,2.2332,2.1423,2.1028,2.0356,1.9377,1.8667,1.8383,1.7904,7.2631,7.2631,7.2631,7.2631,7.2631,7.2631,7.2631,7.2631,7.2602,7.2515,7.2224,7.1963,7.1528,7.1063,7.086,7.0366,6.9525,6.9408,6.9205,6.8915,6.8828,6.8828,6.8528,6.8119,6.7679,6.7541,6.7014,6.6173,6.549,6.5033,6.4138,6.3259,6.2194,6.1215,5.9973,5.8694,5.7507,5.6734,5.5793,5.5264,5.5012,5.4296,5.3249,5.2588,5.234,5.146,5.0407,5.0045,4.9071,4.8277,4.7793,4.7073,4.6355,4.5987,4.5707,4.5513,4.519,4.5062,4.4869,4.3844,4.3123,4.2323,4.1989,4.1596,4.1117,4.0652,4.0612,4.0304,4.0057,3.9682,3.982,3.9939,3.9889,3.9759,3.946,3.9159,3.8593,3.7953,3.7033,3.602,3.4872,3.3941,3.2736,3.1517,3.0284,2.9042,2.8261,2.749,2.7175,2.686,2.6544,2.6228,2.5924,2.5607,2.5594,2.5448,2.5448,2.5468,2.535,2.5602,2.569,2.5731,2.5471,2.5239,2.4749,2.4212,2.3697,2.2675,2.1995,2.1302,2.025,1.9012,1.8497,1.7814,1.7288,7.2631,7.2631,7.2631,7.2631,7.2631,7.2631,7.2631,7.2631,7.2631,7.2631,7.2631,7.2602,7.2282,7.1818,7.1615,7.1092,7.0279,7.0018,6.9641,6.9379,6.9176,6.9002,6.8586,6.8119,6.7679,6.7569,6.7014,6.6173,6.549,6.5033,6.3992,6.2641,6.1443,6.0533,5.9458,5.8261,5.7339,5.69,5.6391,5.5969,5.5898,5.5154,5.4328,5.3545,5.2976,5.2294,5.1281,5.0762,5.0045,4.9314,4.8761,4.8233,4.7553,4.7029,4.6528,4.6377,4.6074,4.5534,4.5491,4.489,4.4548,4.359,4.338,4.2663,4.203,4.1841,4.1759,4.1448,4.1319,4.1231,4.1251,4.1122,4.1073,4.0793,4.0643,4.0322,3.9941,3.9333,3.8387,3.7481,3.6345,3.5068,3.3238,3.1852,3.0422,2.9286,2.8431,2.7961,2.7805,2.749,2.7018,2.686,2.6558,2.6386,2.607,2.5924,2.5977,2.6053,2.6112,2.6234,2.6198,2.6398,2.6261,2.5933,2.5421,2.4738,2.4052,2.3376,2.2341,2.1475,2.0085,1.8689,1.763,1.7104,1.6936,7.2631,7.2631,7.2631,7.2631,7.2631,7.2631,7.2631,7.2631,7.2631,7.2631,7.2631,7.2602,7.2311,7.1847,7.1818,7.1382,7.086,7.0686,7.0366,6.9902,6.9757,6.9408,6.8904,6.8378,6.8107,6.7626,6.7101,6.6508,6.5656,6.5072,6.3942,6.2351,6.1069,5.9713,5.8887,5.7631,5.7021,5.7021,5.6973,5.6765,5.6622,5.5922,5.5368,5.4539,5.3709,5.2866,5.1936,5.1483,5.0762,5.0045,4.9493,4.8939,4.8321,4.7729,4.7466,4.729,4.7247,4.7203,4.7203,4.5771,4.5105,4.4826,4.4506,4.4208,4.3593,4.3318,4.3085,4.2472,4.2179,4.182,4.1732,4.1745,4.1907,4.1837,4.1706,4.1534,4.1151,4.0465,3.9376,3.8385,3.7257,3.5987,3.4138,3.2235,3.0526,2.9404,2.8646,2.8289,2.8289,2.7961,2.749,2.7175,2.7018,2.6544,2.6386,2.6426,2.6361,2.6613,2.6743,2.6718,2.6799,2.6748,2.6732,2.6601,2.6103,2.5592,2.4738,2.388,2.2503,2.1118,1.9553,1.8156,1.7104,1.6401,1.6225,7.2631,7.2631,7.2631,7.2631,7.2631,7.2631,7.2631,7.2631,7.2631,7.2631,7.2631,7.2631,7.2544,7.234,7.2224,7.1934,7.144,7.1324,7.1005,7.0453,7.0395,7.0308,6.98,6.924,6.8878,6.8654,6.7974,6.7174,6.6733,6.5516,6.438,6.2992,6.0733,5.9053,5.8202,5.7339,5.7021,5.7021,5.7021,5.7021,5.6997,5.6646,5.6089,5.5145,5.4405,5.3622,5.2484,5.2051,5.1528,5.0807,5.0297,4.9696,4.8985,4.8564,4.8012,4.7903,4.7772,4.7488,4.7466,4.6768,4.6377,4.5879,4.5555,4.5212,4.4506,4.4121,4.3865,4.3481,4.3097,4.2947,4.294,4.296,4.3063,4.2911,4.2779,4.2627,4.2128,4.1302,4.026,3.9336,3.8279,3.5765,3.3743,3.2428,3.0748,2.9873,2.9108,2.8861,2.8646,2.8304,2.7976,2.749,2.7175,2.686,2.6571,2.6507,2.668,2.6773,2.7078,2.7397,2.7469,2.733,2.7227,2.7135,2.6796,2.6273,2.508,2.3709,2.1984,2.0598,1.903,1.7805,1.6753,1.6225,1.5881,7.2631,7.2631,7.2631,7.2631,7.2631,7.2631,7.2631,7.2631,7.2631,7.2631,7.2631,7.2631,7.2602,7.2602,7.2573,7.2485,7.1992,7.1992,7.1673,7.1121,7.1063,7.086,7.0465,7.0073,6.945,6.9337,6.8478,6.7551,6.6881,6.5748,6.4181,6.2172,6.0472,5.9097,5.7909,5.7349,5.7021,5.7021,5.7021,5.7021,5.7021,5.6789,5.6351,5.5588,5.4803,5.4317,5.3172,5.251,5.2101,5.1513,5.0951,5.0636,5.0028,4.9443,4.8907,4.8798,4.8536,4.823,4.8077,4.8012,4.7573,4.7028,4.6658,4.6246,4.5684,4.5206,4.4753,4.4516,4.4016,4.3739,4.3677,4.3698,4.3698,4.3545,4.3524,4.3218,4.3045,4.2062,4.1249,4.0202,3.8494,3.5939,3.3402,3.2361,3.0982,3.0275,2.9588,2.9339,2.9105,2.8762,2.8246,2.7731,2.7416,2.7127,2.6878,2.668,2.6867,2.7094,2.7402,2.7736,2.7896,2.7733,2.7786,2.7643,2.6965,2.6273,2.4749,2.3365,2.1638,2.0076,1.8681,1.7455,1.6401,1.5881,1.5528,7.2573,7.2573,7.2631,7.2631,7.2631,7.2631,7.2631,7.2631,7.2631,7.2631,7.2631,7.2631,7.2631,7.2631,7.2631,7.2573,7.2515,7.2515,7.2166,7.1847,7.1702,7.1382,7.0841,7.0303,7.0021,6.9422,6.8674,6.7903,6.686,6.5368,6.3467,6.14,6.028,5.9106,5.8185,5.743,5.7165,5.7069,5.7021,5.7021,5.7021,5.6861,5.647,5.564,5.5085,5.4531,5.3703,5.313,5.2901,5.2445,5.1967,5.1693,5.1394,5.0792,5.0468,5.0131,4.9898,4.9482,4.9087,4.8978,4.8737,4.8121,4.7793,4.7443,4.6742,4.6108,4.563,4.502,4.4607,4.4203,4.3863,4.3863,4.3863,4.3842,4.3842,4.3689,4.3515,4.288,4.2106,4.0899,3.9114,3.6745,3.4034,3.2476,3.139,3.0766,3.0071,2.9851,2.9617,2.9254,2.8704,2.8058,2.7582,2.7278,2.7214,2.6934,2.7121,2.7375,2.7589,2.7869,2.8016,2.811,2.7968,2.7812,2.7135,2.6103,2.4566,2.302,2.1292,1.9728,1.8331,1.7104,1.6057,1.5352,1.4999,7.1934,7.1992,7.2427,7.2631,7.2631,7.2631,7.2631,7.2631,7.2631,7.2631,7.2631,7.2631,7.2631,7.2631,7.2631,7.2631,7.2631,7.2602,7.2515,7.2369,7.2224,7.2053,7.1653,7.1109,7.0762,7.0153,6.9392,6.8296,6.7474,6.5732,6.3432,6.1496,6.0474,5.9316,5.853,5.7862,5.7502,5.7165,5.7117,5.7021,5.6861,5.6702,5.6197,5.5782,5.5228,5.4672,5.3888,5.3589,5.3337,5.2856,5.2468,5.2126,5.2126,5.1622,5.13,5.1277,5.1099,5.0877,5.0317,5.0047,4.9712,4.9201,4.8737,4.8056,4.744,4.6803,4.6273,4.5637,4.5086,4.4722,4.4422,4.4381,4.436,4.4339,4.4339,4.4184,4.4029,4.3386,4.2584,4.0807,3.9153,3.6679,3.3948,3.2881,3.1948,3.1031,3.0554,3.0349,3.01,2.9734,2.9151,2.834,2.7845,2.7565,2.7432,2.7308,2.7468,2.7655,2.7829,2.7963,2.8056,2.8136,2.8136,2.7799,2.6953,2.5763,2.4395,2.2675,2.1128,1.9553,1.8156,1.6928,1.5881,1.5175,1.4653,7.1295,7.1382,7.1992,7.2369,7.2602,7.2631,7.2631,7.2631,7.2631,7.2631,7.2631,7.2631,7.2631,7.2631,7.2631,7.2631,7.2631,7.2631,7.2573,7.2573,7.2631,7.2287,7.2057,7.1652,7.113,7.0452,6.9709,6.8669,6.7557,6.5345,6.2896,6.1556,6.0685,5.9849,5.9133,5.8608,5.8199,5.7718,5.7333,5.7093,5.6885,5.6566,5.6197,5.5715,5.523,5.4696,5.4026,5.3957,5.375,5.352,5.3037,5.2876,5.2898,5.2574,5.207,5.2047,5.1935,5.1505,5.0988,5.0716,5.0357,4.9861,4.957,4.901,4.8237,4.7504,4.6847,4.6393,4.5723,4.5188,4.5084,4.4981,4.496,4.496,4.496,4.4803,4.431,4.3816,4.2344,4.0715,3.8434,3.6106,3.4333,3.3239,3.2388,3.1534,3.111,3.0905,3.0447,2.9992,2.9349,2.8593,2.8149,2.7731,2.7606,2.7602,2.7709,2.7829,2.7976,2.8083,2.8136,2.8136,2.7968,2.7461,2.6613,2.5251,2.4052,2.2675,2.1128,1.9553,1.8156,1.6928,1.5881,1.5006,1.4653,7.0657,7.0715,7.1382,7.2021,7.2485,7.2573,7.2631,7.2631,7.2631,7.2631,7.2631,7.2631,7.2631,7.2631,7.2631,7.2631,7.2631,7.2631,7.2631,7.2631,7.2488,7.2345,7.1913,7.1652,7.0922,7.0156,6.9259,6.8171,6.6628,6.4575,6.2634,6.1531,6.0959,6.0168,5.9474,5.9233,5.8872,5.8488,5.7653,5.7197,5.6845,5.6613,5.606,5.5715,5.523,5.4696,5.4533,5.4393,5.4416,5.423,5.4043,5.3856,5.3647,5.3437,5.3048,5.2749,5.2777,5.2299,5.1684,5.1389,5.0792,5.0564,5.0099,4.9719,4.8963,4.7987,4.7422,4.687,4.633,4.5685,4.554,4.5498,4.5478,4.5478,4.5298,4.516,4.482,4.3819,4.1944,4.0107,3.8311,3.5958,3.4287,3.3198,3.2508,3.1934,3.1563,3.1359,3.1015,3.0332,2.9642,2.8823,2.8359,2.7946,2.7848,2.7829,2.7896,2.8003,2.8136,2.8136,2.8136,2.7968,2.7799,2.7122,2.6273,2.4909,2.3537,2.2168,2.0781,1.9379,1.7981,1.6928,1.5881,1.502,1.4476,7.0018,7.0105,7.1208,7.176,7.1963,7.2427,7.2602,7.2631,7.2631,7.2631,7.2631,7.2631,7.2631,7.2631,7.2631,7.2631,7.2631,7.2631,7.2631,7.2488,7.2345,7.2057,7.1652,7.1215,7.0628,6.9858,6.8779,6.7376,6.5529,6.361,6.2142,6.1506,6.0841,6.0194,5.9907,5.9666,5.9329,5.8972,5.8232,5.7472,5.7071,5.6273,5.5691,5.5276,5.4974,5.4671,5.4485,5.4439,5.4439,5.4416,5.4252,5.423,5.423,5.4089,5.402,5.3929,5.3674,5.3076,5.2502,5.2019,5.1604,5.1035,5.0784,5.0436,4.9686,4.8747,4.7941,4.7427,4.6915,4.6384,4.6078,4.6037,4.6016,4.5855,4.5694,4.5553,4.521,4.3301,4.1414,3.9623,3.7824,3.6137,3.4281,3.3367,3.2825,3.2297,3.1925,3.1509,3.1138,3.0567,2.9874,2.9091,2.8492,2.8197,2.807,2.8123,2.823,2.8203,2.8283,2.8243,2.819,2.8101,2.7997,2.7004,2.5933,2.4832,2.3314,2.1843,2.0453,1.9111,1.7899,1.6695,1.5964,1.5077,1.4687,6.935,6.9466,7.0395,7.1005,7.1353,7.1934,7.2282,7.257,7.2573,7.2631,7.2631,7.2631,7.2631,7.2631,7.2631,7.2631,7.2631,7.2631,7.2631,7.2488,7.2201,7.1942,7.1507,7.0922,7.0156,6.9409,6.7865,6.6289,6.4415,6.2935,6.1812,6.115,6.0507,6.0171,6.0147,5.9859,5.9547,5.9356,5.8688,5.7976,5.7267,5.6514,5.6093,5.5577,5.5389,5.499,5.4783,5.4737,5.46,5.4508,5.4416,5.4416,5.4416,5.4416,5.4416,5.423,5.402,5.3811,5.3256,5.263,5.2235,5.1542,5.1334,5.0948,5.0219,4.9294,4.8662,4.8143,4.7504,4.6968,4.6968,4.6927,4.6927,4.6927,4.6455,4.596,4.4493,4.2499,4.0717,3.8906,3.7363,3.5757,3.4266,3.3573,3.3006,3.2614,3.2193,3.1859,3.131,3.0747,3.0065,2.9343,2.892,2.8537,2.8591,2.8604,2.8617,2.8564,2.847,2.8564,2.8617,2.8406,2.8037,2.7114,2.6068,2.4766,2.337,2.17,2.0343,1.9204,1.7932,1.6479,1.5727,1.5177,1.4833,6.8857,6.8915,6.9525,7.0105,7.0657,7.1266,7.193,7.2449,7.254,7.2544,7.2631,7.2631,7.2631,7.2631,7.2631,7.2631,7.2631,7.2631,7.2631,7.2488,7.2201,7.1797,7.1215,7.0628,6.9709,6.8323,6.6757,6.5503,6.4094,6.2634,6.1482,6.0841,6.0507,6.0171,6.0171,5.9979,5.9763,5.9475,5.8853,5.8183,5.7565,5.6926,5.6578,5.6364,5.6053,5.5679,5.5426,5.522,5.499,5.4829,5.4646,5.4508,5.4439,5.4416,5.4416,5.4416,5.4089,5.3573,5.3176,5.2658,5.2182,5.187,5.1791,5.139,5.042,4.9828,4.9216,4.8672,4.8025,4.7651,4.7651,4.7651,4.7651,4.7318,4.6649,4.5808,4.3576,4.156,3.9896,3.8399,3.6785,3.5319,3.4571,3.3867,3.3279,3.2881,3.2455,3.212,3.1654,3.1043,3.0336,2.9904,2.934,2.9152,2.9045,2.8978,2.8911,2.8871,2.8791,2.8938,2.8831,2.8525,2.8126,2.7495,2.6472,2.5044,2.3455,2.1995,2.0638,1.9248,1.7731,1.6423,1.5897,1.5167,1.4853,6.8828,6.8857,6.9495,6.9844,7.0047,7.0628,7.1522,7.2473,7.2075,7.2108,7.2515,7.2631,7.2631,7.2631,7.2631,7.2631,7.2631,7.2631,7.2631,7.2488,7.1942,7.1652,7.1069,7.0156,6.8958,6.7557,6.6002,6.4549,6.3448,6.2306,6.134,6.0841,6.0339,6.0171,6.0171,6.0003,5.9642,5.9233,5.8724,5.8073,5.784,5.7106,5.6359,5.6099,5.5931,5.5862,5.5794,5.5794,5.5725,5.5564,5.5243,5.4875,5.4623,5.4508,5.4485,5.4252,5.3947,5.3431,5.3101,5.2603,5.2103,5.1791,5.1623,5.1054,5.0315,4.9977,4.9343,4.8921,4.8355,4.792,4.7817,4.7838,4.7817,4.6831,4.6156,4.4605,4.2617,4.098,3.9351,3.7965,3.6564,3.5358,3.4215,3.3769,3.3427,3.3043,3.288,3.2395,3.1685,3.1231,3.0765,3.0219,2.9673,2.9392,2.9152,2.9152,2.9112,2.9085,2.9098,2.9205,2.903,2.8522,2.816,2.7788,2.6491,2.5017,2.3607,2.2091,2.0421,1.8984,1.7294,1.6174,1.5665,1.5336,1.5018]},{"header":{"parameterUnit":"m.s-1","parameterCategory":1,"la1":31.0,"la2":29.5877,"lo1":-88.7671,"lo2":-86.6584,"dy":0.0162,"dx":0.0185,"nx":115,"ny":88,"refTime":"2024-03-20T18:00:00:Z","depth":0,"parameterNumber":3,"parameterNumberName":"V-component_of_WINDS"},"data":[0.0,0.0,0.0,0.0,0.0,0.0,0.0,0.0,0.0,0.0,0.0,0.0,0.0,0.0,0.0,0.0,0.0,0.0,0.0,0.0,0.0,0.0,0.0,0.0,0.0,0.0,0.0,0.0,0.0,0.0,0.0,0.0,0.0,0.0,0.0,0.0,0.0,0.0,0.0,0.0,0.0,0.0,0.0,0.0,0.0,0.0,0.0,0.0,0.0,0.0,0.0,0.0,0.0,0.0,0.0,0.0,0.0,0.0,0.0,0.0,0.0,0.0,0.0,0.0,0.0,0.0,0.0,0.0,0.0,0.0,0.0,0.0,0.0,0.0,0.0,0.0,0.0,0.0,0.0,0.0,0.0,0.0,0.0,0.0,0.0,0.0,0.0,0.0,0.0,0.0,0.0,0.0,0.0,0.0,0.0,0.0,0.0,0.0,0.0,0.0,0.0,0.0,0.0,0.0,0.0,0.0,0.0,0.0,0.0,0.0,0.0,0.0,0.0,0.0,0.0,0.0,0.0,0.0,0.0,0.0,0.0,0.0,0.0,0.0,0.0,0.0,0.0,0.0,0.0,0.0,0.0,0.0,0.0,0.0,0.0,0.0,0.0,0.0,0.0,0.0,0.0,0.0,0.0,0.0,0.0,0.0,0.0,0.0,0.0,0.0,0.0,0.0,0.0,0.0,0.0,0.0,0.0,0.0,0.0,0.0,0.0,0.0,0.0,0.0,0.0,0.0,0.0,0.0,0.0,0.0,0.0,0.0,0.0,0.0,0.0,0.0,0.0,0.0,0.0,0.0,0.0,0.0,0.0,0.0,0.0,0.0,0.0,0.0,0.0,0.0,0.0,0.0,0.0,0.0,0.0,0.0,0.0,0.0,0.0,0.0,0.0,0.0,0.0,0.0,0.0,0.0,0.0,0.0,0.0,0.0,0.0,0.0,0.0,0.0,0.0,0.0,0.0,0.0,0.0,0.0,0.0,0.0,0.0,0.0,0.0,0.0,0.0,0.0,0.0,0.0,0.0,0.0,0.0,0.0,0.0,0.0,0.0,0.0,0.0,0.0,0.0,0.0,0.0,0.0,0.0,0.0,0.0,0.0,0.0,0.0,0.0,0.0,0.0,0.0,0.0,0.0,0.0,0.0,0.0,0.0,0.0,0.0,0.0,0.0,0.0,0.0,0.0,0.0,0.0,0.0,0.0,0.0,0.0,0.0,0.0,0.0,0.0,0.0,0.0,0.0,0.0,0.0,0.0,0.0,0.0,0.0,0.0,0.0,0.0,0.0,0.0,0.0,0.0,0.0,0.0,0.0,0.0,0.0,0.0,0.0,0.0,0.0,0.0,0.0,0.0,0.0,0.0,0.0,0.0,0.0,0.0,0.0,0.0,0.0,0.0,0.0,0.0,0.0,0.0,0.0,0.0,0.0,0.0,0.0,0.0,0.0,0.0,0.0,0.0,0.0,0.0,0.0,0.0,0.0,0.0,0.0,0.0,0.0,0.0,0.0,0.0,0.0,0.0,0.0,0.0,0.0,0.0,0.0,0.0,0.0,0.0,0.0,0.0,0.0,0.0,0.0,0.0,0.0,0.0,0.0,0.0,0.0,0.0,0.0,0.0,0.0,0.0,0.0,0.0,0.0,0.0,0.0,0.0,0.0,0.0,0.0,0.0,0.0,0.0,0.0,0.0,0.0,0.0,0.0,0.0,0.0,0.0,0.0,0.0,0.0,0.0,0.0,0.0,0.0,0.0,0.0,0.0,0.0,0.0,0.0,0.0,0.0,0.0,0.0,0.0,0.0,0.0,0.0,0.0,0.0,0.0,0.0,0.0,0.0,0.0,0.0,0.0,0.0,0.0,0.0,0.0,0.0,0.0,0.0,0.0,0.0,0.0,0.0,0.0,0.0,0.0,0.0,0.0,0.0,0.0,0.0,0.0,0.0,0.0,0.0,0.0,0.0,0.0,0.0,0.0,0.0,0.0,0.0,0.0,0.0,0.0,0.0,0.0,0.0,0.0,0.0,0.0,0.0,0.0,0.0,0.0,0.0,0.0,0.0,0.0,0.0,0.0,0.0,0.0,0.0,0.0,0.0,0.0,0.0,0.0,0.0,0.0,0.0,0.0,0.0,0.0,0.0,0.0,0.0,0.0,0.0,0.0,0.0,0.0,0.0,0.0,0.0,0.0,0.0,0.0,0.0,0.0,0.0,0.0,0.0,0.0,0.0,0.0,0.0,0.0,0.0,0.0,0.0,0.0,0.0,0.0,0.0,0.0,0.0,0.0,0.0,0.0,0.0,0.0,0.0,0.0,0.0,0.0,0.0,0.0,0.0,0.0,0.0,0.0,0.0,0.0,0.0,0.0,0.0,0.0,0.0,0.0,0.0,0.0,0.0,0.0,0.0,0.0,0.0,0.0,0.0,0.0,0.0,0.0,0.0,0.0,0.0,0.0,0.0,0.0,0.0,0.0,0.0,0.0,0.0,0.0,0.0,0.0,0.0,0.0,0.0,0.0,0.0,0.0,0.0,0.0,0.0,0.0,0.0,0.0,0.0,0.0,0.0,0.0,0.0,0.0,0.0,0.0,0.0,0.0,0.0,0.0,0.0,0.0,0.0,0.0,0.0,0.0,0.0,0.0,0.0,0.0,0.0,0.0,0.0,0.0,0.0,0.0,0.0,0.0,0.0,0.0,0.0,0.0,0.0,0.0,0.0,0.0,0.0,0.0,0.0,0.0,0.0,0.0,0.0,0.0,0.0,0.0,0.0,0.0,0.0,0.0,0.0,0.0,0.0,0.0,0.0,0.0,0.0,0.0,0.0,0.0,0.0,0.0,0.0,0.0,0.0,0.0,0.0,0.0,0.0,0.0,0.0,0.0,0.0,0.0,0.0,0.0,0.0,0.0,0.0,0.0,0.0,0.0,0.0,0.0,0.0,0.0,0.0,0.0,0.0,0.0,0.0,0.0,0.0,0.0,0.0,0.0,0.0,0.0,0.0,0.0,0.0,0.0,0.0,0.0,0.0,0.0,0.0,0.0,0.0,0.0,0.0,0.0,0.0,0.0,0.0,0.0,0.0,0.0,0.0,0.0,0.0,0.0,0.0,0.0,0.0,0.0,0.0,0.0,0.0,0.0,0.0,0.0,0.0,0.0,0.0,0.0,0.0,0.0,0.0,0.0,0.0,0.0,0.0,0.0,0.0,0.0,0.0,0.0,0.0,0.0,0.0,0.0,0.0,0.0,0.0,0.0,0.0,0.0,0.0,0.0,0.0,0.0,0.0,0.0,0.0,0.0,0.0,0.0,0.0,0.0,0.0,0.0,0.0,0.0,0.0,0.0,0.0,0.0,0.0,0.0,0.0,0.0,0.0,0.0,0.0,0.0,0.0,0.0,0.0,0.0,0.0,0.0,0.0,0.0,0.0,0.0,0.0,0.0,0.0,0.0,0.0,0.0,0.0,0.0,0.0,0.0,0.0,0.0,0.0,0.0,0.0,0.0,0.0,0.0,0.0,0.0,0.0,0.0,0.0,0.0,0.0,0.0,0.0,0.0,0.0,0.0,0.0,0.0,0.0,0.0,0.0,0.0,0.0,0.0,0.0,0.0,0.0,0.0,0.0,0.0,0.0,0.0,0.0,0.0,0.0,0.0,0.0,0.0,0.0,0.0,0.0,0.0,0.0,0.0,0.0,0.0,0.0,0.0,0.0,0.0,0.0,0.0,0.0,0.0,0.0,0.0,0.0,0.0,0.0,0.0,0.0,0.0,0.0,0.0,0.0,0.0,0.0,0.0,0.0,0.0,0.0,0.0,0.0,0.0,0.0,0.0,0.0,0.0,0.0,0.0,0.0,0.0,0.0,0.0,0.0,0.0,0.0,0.0,0.0,0.0,0.0,0.0,0.0,0.0,0.0,0.0,0.0,0.0,0.0,0.0,0.0,0.0,0.0,0.0,0.0,0.0,0.0,0.0,0.0,0.0,0.0,0.0,0.0,0.0,0.0,0.0,0.0,0.0,0.0,0.0,0.0,0.0,0.0,0.0,0.0,0.0,0.0,0.0,0.0,0.0,0.0,0.0,0.0,0.0,0.0,0.0,0.0,0.0,0.0,0.0,0.0,0.0,0.0,0.0,0.0,0.0,0.0,0.0,0.0,0.0,0.0,0.0,0.0,0.0,0.0,0.0,0.0,0.0,0.0,0.0,0.0,0.0,0.0,0.0,0.0,0.0,0.0,0.0,0.0,0.0,0.0,0.0,0.0,0.0,0.0,0.0,0.0,0.0,0.0,-2.4193,0.0,0.0,0.0,0.0,0.0,0.0,0.0,0.0,0.0,0.0,0.0,0.0,0.0,0.0,0.0,0.0,0.0,0.0,0.0,0.0,0.0,0.0,0.0,0.0,0.0,0.0,0.0,0.0,0.0,0.0,0.0,0.0,0.0,0.0,0.0,0.0,0.0,0.0,0.0,0.0,0.0,0.0,0.0,0.0,0.0,0.0,0.0,0.0,0.0,0.0,0.0,0.0,0.0,0.0,0.0,0.0,0.0,0.0,0.0,0.0,0.0,0.0,0.0,0.0,0.0,0.0,0.0,0.0,0.0,0.0,0.0,0.0,0.0,0.0,0.0,0.0,0.0,0.0,0.0,0.0,0.0,0.0,0.0,0.0,0.0,0.0,0.0,0.0,0.0,0.0,0.0,0.0,0.0,0.0,0.0,0.0,0.0,0.0,0.0,0.0,0.0,0.0,0.0,0.0,0.0,0.0,0.0,0.0,0.0,0.0,-2.3895,-2.3812,-2.394,-2.4067,-2.4223,0.0,0.0,0.0,0.0,0.0,0.0,0.0,0.0,0.0,0.0,0.0,0.0,0.0,0.0,0.0,0.0,0.0,0.0,0.0,0.0,0.0,0.0,0.0,0.0,0.0,0.0,0.0,0.0,0.0,0.0,0.0,0.0,0.0,0.0,0.0,0.0,0.0,0.0,0.0,0.0,0.0,0.0,0.0,0.0,0.0,0.0,0.0,0.0,0.0,0.0,0.0,0.0,0.0,0.0,0.0,0.0,0.0,0.0,0.0,0.0,0.0,0.0,0.0,0.0,0.0,0.0,0.0,0.0,0.0,0.0,0.0,0.0,0.0,0.0,0.0,0.0,0.0,0.0,0.0,0.0,0.0,0.0,0.0,0.0,0.0,0.0,0.0,0.0,0.0,0.0,0.0,0.0,0.0,0.0,0.0,0.0,0.0,0.0,0.0,0.0,0.0,0.0,0.0,0.0,0.0,0.0,0.0,0.0,0.0,0.0,0.0,0.0,-2.42,-2.4207,-2.4181,0.0,0.0,0.0,0.0,0.0,0.0,0.0,0.0,0.0,0.0,0.0,0.0,0.0,0.0,0.0,0.0,0.0,0.0,0.0,0.0,0.0,0.0,0.0,0.0,0.0,0.0,0.0,0.0,0.0,0.0,0.0,0.0,0.0,0.0,0.0,0.0,0.0,0.0,0.0,0.0,0.0,0.0,0.0,0.0,0.0,0.0,0.0,0.0,0.0,0.0,0.0,0.0,0.0,0.0,0.0,0.0,0.0,0.0,0.0,0.0,0.0,0.0,0.0,0.0,0.0,0.0,0.0,0.0,0.0,0.0,0.0,0.0,0.0,0.0,0.0,0.0,0.0,0.0,0.0,0.0,0.0,0.0,0.0,0.0,0.0,0.0,0.0,0.0,0.0,0.0,0.0,0.0,0.0,0.0,0.0,0.0,0.0,0.0,0.0,0.0,0.0,0.0,0.0,0.0,0.0,0.0,0.0,0.0,0.0,0.0,-2.5295,-2.5435,-2.4927,0.0,-2.4242,0.0,0.0,0.0,0.0,0.0,0.0,0.0,0.0,0.0,0.0,0.0,0.0,0.0,0.0,0.0,0.0,0.0,0.0,0.0,0.0,0.0,0.0,0.0,0.0,0.0,0.0,0.0,0.0,0.0,0.0,0.0,0.0,0.0,0.0,0.0,0.0,0.0,0.0,0.0,0.0,0.0,0.0,0.0,0.0,0.0,0.0,0.0,0.0,0.0,0.0,0.0,0.0,0.0,0.0,0.0,0.0,0.0,0.0,0.0,0.0,0.0,0.0,0.0,0.0,0.0,0.0,0.0,0.0,0.0,0.0,0.0,0.0,0.0,0.0,0.0,0.0,0.0,0.0,0.0,0.0,0.0,0.0,0.0,0.0,0.0,0.0,0.0,0.0,0.0,0.0,0.0,0.0,0.0,0.0,0.0,0.0,0.0,0.0,0.0,0.0,0.0,0.0,0.0,0.0,0.0,0.0,0.0,0.0,0.0,0.0,-2.5396,-2.5615,-2.5168,-2.468,0.0,0.0,0.0,0.0,0.0,0.0,0.0,0.0,0.0,0.0,0.0,0.0,0.0,0.0,0.0,0.0,0.0,0.0,0.0,0.0,0.0,0.0,0.0,0.0,0.0,0.0,0.0,0.0,0.0,0.0,0.0,0.0,0.0,0.0,0.0,0.0,0.0,0.0,0.0,0.0,0.0,0.0,0.0,0.0,0.0,0.0,0.0,0.0,0.0,0.0,0.0,0.0,0.0,0.0,0.0,0.0,0.0,0.0,0.0,0.0,0.0,0.0,0.0,0.0,0.0,0.0,0.0,0.0,0.0,0.0,0.0,0.0,0.0,0.0,0.0,0.0,0.0,0.0,0.0,0.0,0.0,0.0,0.0,0.0,0.0,0.0,0.0,0.0,0.0,0.0,0.0,0.0,0.0,0.0,0.0,0.0,0.0,0.0,0.0,0.0,0.0,0.0,0.0,0.0,0.0,0.0,0.0,0.0,0.0,0.0,-2.6002,-2.5794,-2.5854,-2.5485,-2.4998,-2.4444,0.0,0.0,0.0,0.0,0.0,0.0,0.0,0.0,0.0,0.0,0.0,0.0,0.0,0.0,0.0,0.0,0.0,0.0,0.0,0.0,0.0,0.0,0.0,0.0,0.0,0.0,0.0,0.0,0.0,0.0,0.0,0.0,0.0,0.0,0.0,0.0,0.0,0.0,0.0,0.0,0.0,0.0,0.0,0.0,0.0,0.0,0.0,0.0,0.0,0.0,0.0,0.0,0.0,0.0,0.0,0.0,0.0,0.0,0.0,0.0,0.0,0.0,0.0,0.0,0.0,0.0,0.0,0.0,0.0,0.0,0.0,0.0,0.0,0.0,0.0,0.0,0.0,0.0,0.0,0.0,0.0,0.0,0.0,0.0,0.0,0.0,0.0,0.0,0.0,0.0,0.0,0.0,0.0,0.0,0.0,0.0,0.0,0.0,0.0,0.0,0.0,0.0,0.0,0.0,0.0,0.0,0.0,0.0,-2.6945,-2.7041,-2.695,-2.6542,-2.6056,-2.5485,0.0,0.0,0.0,0.0,0.0,0.0,0.0,0.0,0.0,0.0,0.0,0.0,0.0,0.0,0.0,0.0,0.0,0.0,0.0,0.0,0.0,0.0,0.0,0.0,0.0,0.0,0.0,0.0,0.0,0.0,0.0,0.0,0.0,0.0,0.0,0.0,0.0,0.0,0.0,0.0,0.0,0.0,0.0,0.0,0.0,0.0,0.0,0.0,0.0,0.0,0.0,0.0,0.0,0.0,0.0,0.0,0.0,0.0,0.0,0.0,0.0,0.0,0.0,0.0,0.0,0.0,0.0,0.0,0.0,0.0,0.0,0.0,0.0,0.0,0.0,0.0,0.0,0.0,0.0,0.0,0.0,0.0,0.0,0.0,0.0,0.0,0.0,0.0,0.0,0.0,0.0,0.0,0.0,0.0,0.0,0.0,0.0,0.0,0.0,0.0,0.0,0.0,0.0,0.0,0.0,0.0,0.0,0.0,0.0,-2.6846,-2.7078,-2.6959,-2.6485,-2.5974,-2.55,0.0,0.0,0.0,0.0,0.0,0.0,0.0,0.0,0.0,0.0,0.0,0.0,0.0,0.0,0.0,0.0,0.0,0.0,0.0,0.0,0.0,0.0,0.0,0.0,0.0,0.0,0.0,0.0,0.0,0.0,0.0,0.0,0.0,0.0,0.0,0.0,0.0,0.0,0.0,0.0,0.0,0.0,0.0,0.0,0.0,0.0,0.0,0.0,0.0,0.0,0.0,0.0,0.0,0.0,0.0,0.0,0.0,0.0,0.0,0.0,0.0,0.0,0.0,0.0,0.0,0.0,0.0,0.0,0.0,0.0,0.0,0.0,0.0,0.0,0.0,0.0,0.0,0.0,0.0,0.0,0.0,0.0,0.0,0.0,0.0,0.0,0.0,0.0,0.0,0.0,0.0,0.0,0.0,0.0,0.0,0.0,0.0,0.0,0.0,0.0,0.0,0.0,0.0,0.0,0.0,0.0,0.0,0.0,0.0,-2.6765,0.0,-2.6924,-2.6633,-2.6158,-2.5661,0.0,0.0,0.0,0.0,0.0,0.0,0.0,0.0,0.0,0.0,0.0,0.0,0.0,0.0,0.0,0.0,0.0,0.0,0.0,0.0,0.0,0.0,0.0,0.0,0.0,0.0,0.0,0.0,0.0,0.0,0.0,0.0,0.0,0.0,0.0,0.0,0.0,0.0,0.0,0.0,0.0,0.0,0.0,0.0,0.0,0.0,0.0,0.0,0.0,0.0,0.0,0.0,0.0,0.0,0.0,0.0,0.0,0.0,0.0,0.0,0.0,0.0,0.0,0.0,0.0,0.0,0.0,0.0,0.0,0.0,0.0,0.0,0.0,0.0,0.0,0.0,0.0,0.0,0.0,0.0,0.0,0.0,0.0,0.0,0.0,0.0,0.0,0.0,0.0,0.0,0.0,0.0,0.0,0.0,0.0,0.0,0.0,0.0,0.0,0.0,0.0,0.0,0.0,0.0,0.0,0.0,0.0,0.0,-2.6318,-2.6741,-2.6823,-2.701,-2.7181,-2.6692,-2.6158,0.0,0.0,0.0,0.0,0.0,0.0,0.0,0.0,0.0,0.0,0.0,0.0,0.0,0.0,0.0,0.0,0.0,0.0,0.0,0.0,0.0,0.0,0.0,0.0,0.0,0.0,0.0,0.0,0.0,0.0,0.0,0.0,0.0,0.0,0.0,0.0,0.0,0.0,0.0,0.0,0.0,0.0,0.0,0.0,0.0,0.0,0.0,0.0,0.0,0.0,0.0,0.0,0.0,0.0,0.0,0.0,0.0,0.0,0.0,0.0,0.0,0.0,0.0,0.0,0.0,0.0,0.0,0.0,0.0,0.0,0.0,0.0,0.0,0.0,0.0,0.0,0.0,0.0,0.0,0.0,0.0,0.0,0.0,0.0,0.0,0.0,0.0,0.0,0.0,0.0,0.0,0.0,0.0,0.0,0.0,0.0,0.0,0.0,0.0,0.0,0.0,0.0,0.0,0.0,0.0,0.0,0.0,0.0,0.0,-2.6942,-2.7341,-2.7709,-2.8123,-2.7132,-2.6667,0.0,0.0,0.0,0.0,0.0,0.0,0.0,0.0,0.0,0.0,0.0,0.0,0.0,0.0,0.0,0.0,0.0,0.0,0.0,0.0,0.0,0.0,0.0,0.0,0.0,0.0,0.0,0.0,0.0,0.0,0.0,0.0,0.0,0.0,0.0,0.0,0.0,0.0,0.0,0.0,0.0,0.0,0.0,0.0,0.0,0.0,0.0,0.0,0.0,0.0,0.0,0.0,0.0,0.0,0.0,0.0,0.0,0.0,0.0,0.0,0.0,0.0,0.0,0.0,0.0,0.0,0.0,0.0,0.0,0.0,0.0,0.0,0.0,0.0,0.0,0.0,0.0,0.0,0.0,0.0,0.0,0.0,0.0,0.0,0.0,0.0,0.0,0.0,0.0,0.0,0.0,0.0,0.0,0.0,0.0,0.0,0.0,0.0,0.0,0.0,0.0,0.0,0.0,0.0,0.0,0.0,0.0,0.0,0.0,-2.8092,-2.8352,-2.8647,-2.9,-2.8194,-2.7715,-2.761,0.0,0.0,0.0,0.0,0.0,0.0,0.0,0.0,0.0,0.0,0.0,0.0,0.0,0.0,0.0,0.0,0.0,0.0,0.0,0.0,0.0,0.0,0.0,0.0,0.0,0.0,0.0,0.0,0.0,0.0,0.0,0.0,0.0,0.0,0.0,0.0,0.0,0.0,0.0,0.0,0.0,0.0,0.0,0.0,0.0,0.0,0.0,0.0,0.0,0.0,0.0,0.0,0.0,0.0,0.0,0.0,0.0,0.0,0.0,0.0,0.0,0.0,0.0,0.0,0.0,0.0,0.0,0.0,0.0,0.0,0.0,0.0,0.0,0.0,0.0,0.0,0.0,0.0,0.0,0.0,0.0,0.0,0.0,0.0,0.0,0.0,0.0,0.0,0.0,0.0,0.0,0.0,0.0,0.0,0.0,0.0,0.0,0.0,0.0,0.0,0.0,0.0,0.0,0.0,0.0,0.0,0.0,0.0,-3.0152,-2.9979,-2.9869,-2.9854,-2.9746,-2.9174,0.0,0.0,0.0,0.0,0.0,0.0,0.0,0.0,0.0,0.0,0.0,0.0,0.0,0.0,0.0,0.0,0.0,0.0,0.0,0.0,0.0,0.0,0.0,0.0,0.0,0.0,0.0,0.0,0.0,0.0,0.0,0.0,0.0,0.0,0.0,0.0,0.0,0.0,0.0,0.0,0.0,0.0,0.0,0.0,0.0,0.0,0.0,0.0,0.0,0.0,0.0,0.0,0.0,0.0,0.0,0.0,0.0,0.0,0.0,0.0,0.0,0.0,0.0,0.0,0.0,0.0,0.0,0.0,0.0,0.0,0.0,0.0,0.0,0.0,0.0,0.0,0.0,0.0,0.0,0.0,0.0,0.0,0.0,0.0,0.0,0.0,0.0,0.0,0.0,0.0,0.0,0.0,0.0,0.0,0.0,0.0,0.0,0.0,0.0,0.0,0.0,0.0,0.0,0.0,0.0,0.0,0.0,0.0,0.0,-3.2218,-3.3175,-3.2996,-3.1696,-3.1439,-3.0873,0.0,0.0,0.0,0.0,0.0,0.0,0.0,0.0,0.0,0.0,0.0,0.0,0.0,0.0,0.0,0.0,0.0,0.0,0.0,0.0,0.0,0.0,0.0,0.0,0.0,0.0,0.0,0.0,0.0,0.0,0.0,0.0,0.0,0.0,0.0,0.0,0.0,0.0,0.0,0.0,0.0,0.0,0.0,0.0,0.0,0.0,0.0,0.0,0.0,0.0,0.0,0.0,0.0,0.0,0.0,0.0,0.0,0.0,0.0,0.0,0.0,0.0,0.0,0.0,0.0,0.0,0.0,0.0,0.0,0.0,0.0,0.0,0.0,0.0,0.0,0.0,0.0,0.0,0.0,0.0,0.0,0.0,0.0,0.0,0.0,0.0,0.0,0.0,0.0,0.0,0.0,0.0,0.0,0.0,0.0,0.0,0.0,0.0,0.0,0.0,0.0,0.0,0.0,0.0,0.0,0.0,0.0,0.0,-3.2019,-3.3783,-3.5108,-3.5366,-3.4437,-3.3466,-3.252,0.0,0.0,0.0,0.0,0.0,0.0,0.0,0.0,0.0,0.0,0.0,0.0,0.0,0.0,0.0,0.0,0.0,0.0,0.0,0.0,0.0,0.0,0.0,0.0,0.0,0.0,0.0,0.0,0.0,0.0,0.0,0.0,0.0,0.0,0.0,0.0,0.0,0.0,0.0,0.0,0.0,0.0,0.0,0.0,0.0,0.0,0.0,0.0,0.0,0.0,0.0,0.0,0.0,0.0,0.0,0.0,0.0,0.0,0.0,0.0,0.0,0.0,0.0,0.0,0.0,0.0,0.0,0.0,0.0,0.0,0.0,0.0,0.0,0.0,0.0,0.0,0.0,0.0,0.0,0.0,0.0,0.0,0.0,0.0,0.0,0.0,0.0,0.0,0.0,0.0,0.0,0.0,0.0,0.0,0.0,0.0,0.0,0.0,0.0,0.0,0.0,0.0,0.0,0.0,0.0,0.0,0.0,0.0,-3.3268,-3.5086,-3.6443,-3.7291,-3.751,-3.5723,-3.4057,0.0,0.0,0.0,0.0,0.0,0.0,0.0,0.0,0.0,0.0,0.0,0.0,0.0,0.0,0.0,0.0,0.0,0.0,0.0,0.0,0.0,0.0,0.0,0.0,0.0,0.0,0.0,0.0,0.0,0.0,0.0,0.0,0.0,0.0,0.0,0.0,0.0,0.0,0.0,0.0,0.0,0.0,0.0,0.0,0.0,0.0,0.0,0.0,0.0,0.0,0.0,0.0,0.0,0.0,0.0,0.0,0.0,0.0,0.0,0.0,0.0,0.0,0.0,0.0,0.0,0.0,0.0,0.0,0.0,0.0,0.0,0.0,0.0,0.0,0.0,0.0,0.0,0.0,0.0,0.0,0.0,0.0,0.0,0.0,0.0,0.0,0.0,0.0,0.0,0.0,0.0,0.0,0.0,0.0,0.0,0.0,0.0,0.0,0.0,0.0,0.0,0.0,0.0,0.0,0.0,0.0,0.0,0.0,-3.4679,-3.6904,-3.8125,-3.8983,-3.9416,-3.7601,-3.5963,0.0,0.0,0.0,0.0,0.0,0.0,0.0,0.0,0.0,0.0,0.0,0.0,0.0,0.0,0.0,0.0,0.0,0.0,0.0,0.0,0.0,0.0,0.0,0.0,0.0,0.0,0.0,0.0,0.0,0.0,0.0,0.0,0.0,0.0,0.0,0.0,0.0,0.0,0.0,0.0,0.0,0.0,0.0,0.0,0.0,0.0,0.0,0.0,-3.1579,0.0,0.0,0.0,0.0,0.0,0.0,0.0,0.0,0.0,0.0,0.0,0.0,0.0,0.0,0.0,0.0,0.0,0.0,0.0,0.0,0.0,0.0,0.0,0.0,0.0,0.0,0.0,0.0,0.0,0.0,0.0,0.0,0.0,0.0,0.0,0.0,0.0,0.0,0.0,0.0,0.0,0.0,0.0,0.0,0.0,0.0,0.0,0.0,0.0,0.0,0.0,0.0,0.0,0.0,0.0,0.0,0.0,0.0,0.0,-3.552,-3.7966,-3.883,-3.9694,-4.0327,-3.8837,-3.7224,0.0,0.0,0.0,0.0,0.0,0.0,0.0,0.0,0.0,0.0,0.0,0.0,0.0,0.0,0.0,0.0,0.0,0.0,0.0,0.0,0.0,0.0,0.0,0.0,0.0,0.0,0.0,0.0,0.0,0.0,0.0,0.0,0.0,0.0,0.0,0.0,0.0,0.0,0.0,0.0,0.0,0.0,0.0,0.0,0.0,0.0,0.0,0.0,0.0,0.0,0.0,0.0,0.0,0.0,0.0,0.0,0.0,0.0,0.0,0.0,0.0,0.0,0.0,0.0,0.0,0.0,0.0,0.0,0.0,0.0,0.0,0.0,0.0,0.0,0.0,0.0,0.0,0.0,0.0,0.0,0.0,0.0,0.0,0.0,0.0,0.0,0.0,0.0,0.0,0.0,0.0,0.0,0.0,0.0,0.0,0.0,0.0,0.0,0.0,0.0,0.0,0.0,0.0,0.0,0.0,0.0,0.0,-3.4181,-3.6307,-3.8796,-3.9305,-4.0083,-4.1079,-3.9704,-3.8195,-3.6519,0.0,0.0,0.0,0.0,0.0,0.0,0.0,0.0,0.0,0.0,0.0,0.0,0.0,0.0,0.0,0.0,0.0,0.0,0.0,0.0,0.0,0.0,0.0,0.0,0.0,0.0,0.0,0.0,0.0,0.0,0.0,0.0,0.0,0.0,0.0,0.0,0.0,0.0,-3.0341,-3.2282,0.0,0.0,0.0,0.0,0.0,0.0,0.0,0.0,-3.4488,0.0,0.0,0.0,0.0,0.0,0.0,0.0,0.0,0.0,0.0,0.0,0.0,0.0,0.0,0.0,0.0,0.0,0.0,0.0,0.0,0.0,0.0,0.0,0.0,0.0,0.0,0.0,0.0,0.0,0.0,0.0,0.0,0.0,0.0,0.0,0.0,0.0,0.0,0.0,0.0,0.0,0.0,0.0,0.0,0.0,0.0,0.0,0.0,0.0,0.0,0.0,0.0,0.0,0.0,0.0,0.0,-3.2444,-3.4744,-3.7181,-3.9715,-4.0349,-4.1045,-4.1897,-4.0575,-3.915,-3.7763,0.0,0.0,0.0,0.0,0.0,0.0,0.0,0.0,0.0,0.0,0.0,0.0,0.0,0.0,0.0,0.0,0.0,0.0,0.0,0.0,0.0,0.0,0.0,0.0,0.0,0.0,0.0,0.0,0.0,0.0,0.0,0.0,0.0,0.0,0.0,0.0,0.0,0.0,0.0,-3.3778,-3.4739,0.0,0.0,0.0,0.0,0.0,0.0,0.0,0.0,-3.6181,0.0,0.0,0.0,0.0,0.0,0.0,0.0,0.0,0.0,0.0,0.0,0.0,0.0,0.0,0.0,0.0,0.0,0.0,0.0,0.0,0.0,0.0,0.0,0.0,0.0,0.0,0.0,0.0,0.0,0.0,0.0,0.0,0.0,0.0,0.0,0.0,0.0,0.0,0.0,0.0,0.0,0.0,0.0,0.0,0.0,0.0,0.0,0.0,0.0,0.0,0.0,0.0,0.0,0.0,0.0,-3.3128,-3.5173,-3.7483,-4.0087,-4.036,-4.083,-4.168,-4.0351,-3.8945,0.0,0.0,0.0,0.0,0.0,0.0,0.0,0.0,0.0,0.0,0.0,0.0,0.0,0.0,0.0,0.0,0.0,0.0,0.0,0.0,0.0,0.0,0.0,0.0,0.0,0.0,0.0,0.0,0.0,0.0,0.0,0.0,0.0,0.0,0.0,0.0,0.0,0.0,0.0,0.0,-3.509,-3.6059,-3.6479,0.0,0.0,0.0,0.0,0.0,0.0,-3.7775,-3.7711,0.0,0.0,0.0,0.0,0.0,0.0,0.0,0.0,0.0,0.0,0.0,0.0,0.0,0.0,0.0,0.0,0.0,0.0,0.0,0.0,0.0,0.0,0.0,0.0,0.0,0.0,0.0,0.0,0.0,0.0,0.0,0.0,0.0,0.0,0.0,0.0,0.0,0.0,0.0,0.0,0.0,0.0,0.0,0.0,0.0,0.0,0.0,0.0,0.0,0.0,0.0,0.0,0.0,0.0,0.0,-3.3688,-3.5654,-3.7784,-4.0065,-4.0201,-4.0507,-4.1155,-3.9899,-3.8596,0.0,0.0,0.0,0.0,0.0,0.0,0.0,0.0,0.0,0.0,0.0,0.0,0.0,0.0,0.0,0.0,0.0,0.0,0.0,0.0,0.0,0.0,0.0,0.0,0.0,0.0,0.0,0.0,0.0,0.0,0.0,0.0,0.0,0.0,0.0,0.0,0.0,0.0,0.0,0.0,0.0,-3.7374,-3.7729,-3.838,0.0,0.0,0.0,0.0,-3.9265,-3.9379,0.0,0.0,0.0,0.0,0.0,0.0,0.0,0.0,0.0,0.0,0.0,0.0,0.0,0.0,0.0,0.0,0.0,0.0,0.0,0.0,0.0,0.0,0.0,0.0,0.0,0.0,0.0,0.0,0.0,0.0,0.0,0.0,0.0,0.0,0.0,0.0,0.0,0.0,0.0,0.0,0.0,0.0,0.0,0.0,0.0,0.0,0.0,0.0,0.0,0.0,0.0,0.0,0.0,0.0,0.0,0.0,-3.3744,-3.6198,-3.8252,-3.9733,-4.0349,-4.0744,-4.1057,-4.0196,-3.8986,0.0,0.0,0.0,0.0,0.0,0.0,0.0,0.0,0.0,0.0,0.0,0.0,0.0,0.0,0.0,0.0,0.0,0.0,0.0,0.0,0.0,0.0,0.0,0.0,0.0,0.0,0.0,0.0,0.0,0.0,0.0,0.0,0.0,0.0,0.0,0.0,0.0,0.0,0.0,0.0,0.0,-3.857,-3.9944,-4.0306,-4.0451,0.0,0.0,-4.0683,-4.0818,-4.0941,0.0,0.0,0.0,0.0,0.0,0.0,0.0,0.0,0.0,0.0,0.0,0.0,0.0,0.0,0.0,0.0,0.0,0.0,0.0,0.0,0.0,0.0,0.0,0.0,0.0,0.0,0.0,0.0,0.0,0.0,0.0,0.0,0.0,0.0,0.0,0.0,0.0,0.0,0.0,0.0,0.0,0.0,0.0,0.0,0.0,0.0,0.0,0.0,0.0,0.0,0.0,0.0,0.0,0.0,0.0,-3.2715,-3.474,-3.685,-3.9024,-4.1,-4.1086,-4.1284,-4.1711,-4.0584,-3.917,0.0,0.0,0.0,0.0,0.0,0.0,0.0,0.0,0.0,0.0,0.0,0.0,0.0,0.0,0.0,0.0,0.0,0.0,0.0,0.0,0.0,0.0,0.0,0.0,0.0,0.0,0.0,0.0,0.0,0.0,0.0,0.0,0.0,0.0,0.0,0.0,0.0,0.0,0.0,0.0,0.0,0.0,-4.1577,-4.1794,0.0,0.0,0.0,-4.3543,-4.3759,0.0,0.0,0.0,0.0,0.0,0.0,0.0,0.0,0.0,0.0,0.0,0.0,0.0,0.0,0.0,0.0,0.0,0.0,0.0,0.0,0.0,0.0,0.0,0.0,0.0,0.0,0.0,0.0,0.0,0.0,0.0,0.0,0.0,0.0,0.0,0.0,0.0,0.0,0.0,0.0,0.0,0.0,0.0,0.0,0.0,0.0,0.0,0.0,0.0,0.0,0.0,0.0,0.0,0.0,0.0,0.0,0.0,-3.5515,-3.7456,-3.9637,-4.171,-4.1624,-4.1764,-4.2251,-4.1047,0.0,0.0,0.0,0.0,0.0,0.0,0.0,0.0,0.0,0.0,0.0,0.0,0.0,0.0,0.0,0.0,0.0,0.0,0.0,0.0,0.0,0.0,0.0,0.0,0.0,0.0,0.0,-3.0493,0.0,0.0,0.0,0.0,0.0,0.0,0.0,0.0,0.0,0.0,0.0,0.0,0.0,0.0,-4.154,-4.2948,-4.3376,-4.4061,0.0,0.0,-4.5799,-4.599,-4.5625,-4.5026,0.0,0.0,0.0,0.0,0.0,0.0,0.0,0.0,0.0,0.0,0.0,0.0,0.0,0.0,0.0,0.0,0.0,0.0,0.0,0.0,0.0,0.0,0.0,0.0,0.0,0.0,0.0,0.0,0.0,0.0,0.0,0.0,0.0,0.0,0.0,0.0,0.0,0.0,0.0,0.0,0.0,0.0,0.0,0.0,0.0,0.0,0.0,0.0,0.0,0.0,0.0,0.0,0.0,0.0,-3.4242,-3.5543,-3.7878,-3.9864,-4.1367,-4.1619,-4.1868,-4.2392,-4.142,-4.0426,0.0,0.0,0.0,0.0,0.0,0.0,0.0,0.0,0.0,0.0,0.0,0.0,0.0,0.0,0.0,0.0,0.0,0.0,0.0,0.0,0.0,0.0,0.0,0.0,0.0,0.0,0.0,0.0,0.0,0.0,0.0,0.0,0.0,0.0,0.0,0.0,0.0,0.0,0.0,0.0,0.0,-4.3063,-4.3896,-4.5309,-4.6246,0.0,-4.6557,-4.6752,-4.6715,-4.636,-4.5768,-4.506,0.0,0.0,0.0,0.0,0.0,0.0,0.0,0.0,0.0,0.0,0.0,0.0,0.0,0.0,0.0,0.0,0.0,0.0,0.0,0.0,0.0,0.0,0.0,0.0,0.0,0.0,0.0,0.0,0.0,0.0,0.0,0.0,0.0,0.0,0.0,0.0,0.0,0.0,0.0,0.0,0.0,0.0,0.0,0.0,0.0,0.0,0.0,0.0,0.0,0.0,0.0,0.0,0.0,-3.476,-3.6888,-3.8936,-4.0965,-4.2938,-4.3394,-4.373,-4.398,-4.3269,-4.2078,0.0,0.0,0.0,0.0,0.0,0.0,0.0,0.0,0.0,0.0,0.0,0.0,0.0,0.0,0.0,0.0,0.0,0.0,0.0,0.0,0.0,0.0,0.0,0.0,0.0,0.0,0.0,0.0,-3.3931,-3.4203,-3.4655,0.0,0.0,0.0,0.0,0.0,0.0,0.0,0.0,0.0,0.0,-4.4216,-4.5947,-4.6663,0.0,0.0,-4.8762,-4.8748,-4.8356,-4.7901,-4.7316,-4.6611,-4.5867,0.0,0.0,0.0,0.0,0.0,0.0,0.0,0.0,0.0,0.0,0.0,0.0,0.0,0.0,0.0,0.0,0.0,0.0,0.0,0.0,0.0,0.0,0.0,0.0,0.0,0.0,0.0,0.0,0.0,0.0,0.0,0.0,0.0,0.0,0.0,0.0,0.0,0.0,0.0,0.0,0.0,0.0,0.0,0.0,0.0,0.0,0.0,0.0,0.0,0.0,0.0,0.0,-3.5252,-3.7774,-3.9662,-4.1785,-4.415,-4.4718,-4.5257,-4.5627,-4.4856,-4.3669,0.0,0.0,0.0,0.0,0.0,0.0,0.0,0.0,0.0,0.0,0.0,0.0,0.0,0.0,0.0,0.0,0.0,0.0,0.0,0.0,0.0,0.0,0.0,0.0,0.0,0.0,0.0,0.0,-3.5359,-3.56,-3.6013,0.0,0.0,0.0,0.0,0.0,0.0,0.0,0.0,0.0,0.0,-4.5694,-4.7355,-4.8143,-4.9009,-5.0182,-5.0504,-5.0496,-5.0076,-4.9511,-4.8898,-4.82,0.0,0.0,0.0,0.0,0.0,0.0,0.0,0.0,0.0,0.0,0.0,0.0,0.0,0.0,0.0,0.0,0.0,0.0,0.0,0.0,0.0,0.0,0.0,0.0,0.0,0.0,0.0,0.0,0.0,0.0,-3.2725,0.0,0.0,0.0,0.0,0.0,0.0,0.0,0.0,0.0,0.0,0.0,0.0,0.0,0.0,0.0,0.0,0.0,0.0,0.0,0.0,0.0,0.0,-3.5669,-3.8014,-3.9934,-4.2117,-4.463,-4.5334,-4.6213,-4.717,-4.5959,-4.5173,-4.5048,0.0,0.0,0.0,0.0,0.0,0.0,0.0,0.0,0.0,0.0,0.0,0.0,0.0,0.0,0.0,0.0,0.0,0.0,0.0,0.0,0.0,0.0,0.0,0.0,0.0,0.0,-3.5258,-3.5393,-3.5951,0.0,0.0,0.0,0.0,0.0,0.0,0.0,0.0,0.0,0.0,-4.6142,-4.7627,-4.7772,-4.9727,-5.1221,-5.1419,-5.1515,-5.1609,-5.1658,-5.1161,-5.0512,0.0,0.0,0.0,0.0,0.0,0.0,0.0,0.0,0.0,0.0,0.0,0.0,0.0,0.0,0.0,0.0,0.0,0.0,0.0,0.0,0.0,0.0,0.0,0.0,0.0,0.0,0.0,-3.4946,-3.4972,0.0,0.0,0.0,0.0,0.0,0.0,0.0,0.0,0.0,0.0,0.0,-3.5286,-3.5476,0.0,0.0,0.0,0.0,0.0,0.0,0.0,0.0,0.0,0.0,0.0,0.0,-3.6592,-3.8951,-4.129,-4.3348,-4.5108,-4.6728,-4.7671,-4.77,-4.7963,-4.7521,-4.6365,0.0,0.0,0.0,0.0,0.0,0.0,0.0,0.0,0.0,0.0,0.0,0.0,0.0,0.0,0.0,0.0,0.0,0.0,0.0,0.0,0.0,0.0,0.0,0.0,0.0,-3.7392,0.0,0.0,0.0,0.0,0.0,0.0,0.0,0.0,0.0,0.0,0.0,-4.5599,-4.6395,-4.7663,-4.8894,-4.9945,-5.0867,-5.1601,0.0,0.0,0.0,0.0,0.0,0.0,0.0,0.0,0.0,0.0,0.0,0.0,0.0,0.0,-5.0098,-4.8053,-4.788,-4.8022,-4.8077,0.0,0.0,0.0,0.0,0.0,0.0,0.0,0.0,0.0,0.0,0.0,0.0,0.0,0.0,-3.6724,0.0,-3.6515,0.0,0.0,0.0,0.0,0.0,0.0,0.0,0.0,-3.6962,-3.7203,-3.7306,-3.7482,-3.7456,0.0,-3.7137,-3.6404,0.0,0.0,0.0,0.0,0.0,0.0,0.0,0.0,-3.7444,-3.99,-4.2257,-4.4413,-4.6184,-4.8193,-4.9346,-4.9484,-5.0077,-4.9693,-4.8223,-4.7078,-4.5731,0.0,0.0,0.0,0.0,0.0,0.0,0.0,0.0,0.0,0.0,0.0,0.0,0.0,0.0,0.0,0.0,0.0,0.0,0.0,0.0,0.0,0.0,0.0,-3.974,0.0,0.0,0.0,0.0,0.0,0.0,0.0,0.0,0.0,-4.4548,-4.5924,-4.7337,-4.8387,-4.922,-5.0234,-5.1629,0.0,0.0,0.0,0.0,0.0,0.0,0.0,-5.3083,-5.261,-5.232,-5.2177,-5.2296,-5.304,-5.3672,-5.3967,0.0,0.0,-5.1404,-5.1078,-5.1206,-5.1206,-5.133,-5.1441,-5.1537,-5.1594,-5.1651,0.0,0.0,0.0,0.0,0.0,0.0,0.0,0.0,-3.8031,-3.8057,0.0,-3.7429,0.0,0.0,0.0,0.0,0.0,-3.6802,0.0,0.0,-3.8708,-3.9276,-3.9654,-4.0121,-4.0188,-3.96,-3.9492,-3.9108,-3.8374,-3.6171,0.0,0.0,0.0,0.0,0.0,0.0,-3.8388,-4.0833,-4.2878,-4.5191,-4.7897,-4.975,-5.129,-5.2412,-5.2291,-5.1678,-5.0693,-5.0057,-4.8714,-4.6413,-4.5341,0.0,0.0,0.0,0.0,0.0,0.0,0.0,0.0,0.0,0.0,0.0,0.0,0.0,0.0,0.0,0.0,0.0,0.0,0.0,0.0,-4.2008,0.0,0.0,0.0,0.0,0.0,0.0,0.0,0.0,0.0,0.0,-4.7916,-4.7916,-4.8424,-4.9945,0.0,0.0,0.0,0.0,-5.4282,-5.5204,-5.5395,-5.5404,-5.5537,-5.5537,-5.5537,-5.5574,0.0,0.0,-5.4806,-5.5433,-5.6251,-5.7026,-5.7174,-5.6557,-5.4538,-5.4279,-5.4312,-5.4312,-5.4487,-5.4623,-5.4623,-5.4754,-5.4843,-4.4826,0.0,0.0,0.0,0.0,-4.0331,-4.0331,-4.0331,-4.0331,-4.0331,-4.0305,-3.9703,0.0,0.0,0.0,0.0,0.0,0.0,-3.9031,-3.9918,-4.0399,-4.1084,-4.1758,-4.1914,-4.1839,-4.1529,-4.1736,-4.1377,-4.0503,-3.9478,-3.7949,-3.588,0.0,0.0,0.0,0.0,-3.9974,-4.2262,-4.4766,-4.6924,-4.8738,-5.1118,-5.2935,-5.4311,-5.4539,-5.4325,-5.3686,-5.3581,-5.249,-5.0311,-4.9187,0.0,0.0,0.0,0.0,0.0,0.0,0.0,0.0,0.0,0.0,0.0,0.0,0.0,0.0,0.0,0.0,0.0,0.0,0.0,-4.4917,-4.5234,-4.4929,0.0,0.0,0.0,0.0,0.0,0.0,0.0,0.0,0.0,-5.1756,-5.1466,-5.1285,0.0,0.0,-5.4034,-5.4298,-5.4692,-5.5049,-5.5359,-5.5485,0.0,-5.5574,-5.5611,-5.5794,-5.6345,-5.6757,-5.7014,-5.7059,-5.781,-5.8481,-5.8702,-5.9309,-5.9501,-5.8961,-5.7942,-5.736,-5.7404,-5.7486,-5.7641,-5.7754,-5.779,-5.7712,-4.9087,-4.6264,-4.4591,-4.3676,-4.3363,-4.3363,-4.3363,-4.3337,-4.3127,-4.3023,-4.2944,-4.2027,-4.1471,-4.113,-4.0483,0.0,0.0,0.0,-4.18,-4.2966,-4.3436,-4.4112,-4.4952,-4.5073,-4.501,-4.4808,-4.4809,-4.4464,-4.3592,-4.3027,-4.1736,-3.9743,0.0,0.0,-3.8479,-3.99,-4.1593,-4.3567,-4.6199,-4.8337,-5.0008,-5.2909,-5.5018,-5.6135,-5.6295,-5.6098,-5.5586,-5.5409,-5.4377,-5.2392,-5.1293,-4.969,0.0,0.0,0.0,0.0,0.0,0.0,0.0,0.0,0.0,0.0,0.0,-3.848,-3.9687,0.0,0.0,0.0,-4.5182,-4.707,-4.8146,-4.8466,0.0,0.0,0.0,0.0,0.0,0.0,0.0,-5.1056,-5.1654,-5.2578,-5.4363,-5.4774,-5.4556,-5.3566,-5.435,-5.5243,-5.5909,0.0,-5.6612,-5.7281,-5.7437,-5.7483,-5.7519,-5.7483,-5.7666,-5.8143,-5.8621,-5.8914,-5.8951,-5.9402,-5.989,-6.0267,-6.0756,-6.1198,-6.1492,-6.0849,-6.01,-5.9684,-5.9664,-5.9789,-5.9953,-6.0033,-5.9889,-5.3034,-5.1727,-4.8538,-4.7022,-4.6761,-4.6761,-4.6761,-4.6708,-4.6133,-4.5898,-4.5767,-4.4414,-4.378,-4.3621,-4.3164,0.0,-4.3726,-4.4178,-4.505,-4.628,-4.7086,-4.8021,-4.8795,-4.9081,-4.9034,-4.8702,-4.8435,-4.8043,-4.7523,-4.6636,-4.5832,-4.5119,-4.1715,-4.022,-4.0789,-4.1835,-4.3294,-4.4951,-4.7388,-4.9739,-5.1998,-5.5031,-5.6996,-5.7746,-5.7494,-5.7021,-5.6539,-5.595,-5.4982,-5.341,-5.2272,-5.09,-4.9164,0.0,0.0,0.0,0.0,0.0,0.0,0.0,0.0,0.0,0.0,0.0,0.0,0.0,0.0,-4.552,-4.8082,0.0,-5.1193,-5.1423,0.0,0.0,0.0,-5.0649,-5.0056,-5.0796,-5.2005,-5.37,0.0,0.0,-5.6174,-5.7688,-5.7847,-5.5607,-5.5377,-5.5982,-5.7583,-5.7946,-5.8589,-5.9968,-6.0346,-6.0346,-6.0089,-6.0236,-6.0272,-6.0346,-6.0566,-6.0603,-6.0603,-6.0603,-6.0933,-6.152,-6.1667,-6.1887,-6.2658,-6.272,-6.2656,-6.1374,-6.1248,-6.1298,-6.1465,-6.1633,-6.1534,-5.583,-5.5412,-5.3739,-5.1518,-4.9087,-4.9087,-4.9087,-4.9035,-4.8512,-4.825,-4.8146,-4.6757,-4.5927,-4.5472,-4.5308,-4.5587,-4.6201,-4.6514,-4.7207,-4.8404,-4.8991,-4.9867,-5.0861,-5.1362,-5.16,-5.1648,-5.175,-5.1516,-5.0861,-5.0205,-4.9519,-4.8975,-4.7507,-4.5475,-4.3084,-4.4394,-4.5794,-4.7196,-4.955,-5.2112,-5.5115,-5.6294,-5.7022,-5.7284,-5.7291,-5.7021,-5.6505,-5.6498,-5.6146,-5.5242,-5.4132,-5.3053,-5.1941,-4.9452,0.0,0.0,0.0,0.0,0.0,0.0,0.0,0.0,0.0,-4.3032,-4.5452,0.0,-4.7317,0.0,-5.0605,-5.2004,-5.2908,-5.314,0.0,0.0,-5.3253,-5.4008,-5.3383,-5.4619,-5.5995,-5.7138,-5.7442,-5.7876,-5.8637,-5.9175,-5.9314,-5.8682,-5.881,-5.9103,-5.9554,-5.9688,-5.9894,-6.0346,-6.0456,-6.0419,-6.0493,-6.0933,-6.13,-6.13,-6.1814,-6.2218,-6.2218,-6.2254,-6.2328,-6.2475,-6.2511,-6.2622,-6.2805,-6.2904,-6.294,-6.2714,-6.278,-6.288,-6.3044,-6.3096,-6.2923,-5.7948,-5.7843,-5.6719,-5.5099,-5.3295,-5.2537,-5.2067,-5.1779,-5.123,-5.0707,-5.008,-4.8848,-4.8097,-4.7864,-4.7837,-4.8126,-4.8714,-4.8995,-4.9848,-5.1004,-5.1741,-5.2564,-5.3684,-5.4345,-5.4657,-5.4669,-5.5005,-5.4862,-5.4432,-5.3903,-5.3496,-5.3326,-5.2492,-5.1055,-4.9116,-4.8324,-4.8546,-4.9603,-5.2277,-5.4695,-5.6768,-5.7666,-5.7944,-5.7769,-5.7464,-5.7056,-5.6371,-5.6263,-5.5878,-5.515,-5.451,-5.3798,-5.2951,-5.1128,-4.9627,0.0,0.0,0.0,0.0,0.0,0.0,0.0,0.0,0.0,0.0,0.0,-5.0599,-5.2997,-5.3958,-5.4839,-5.575,-5.5933,-5.5757,-5.5116,-5.6582,-5.7388,-5.6876,-5.8228,-5.9454,-6.0134,-6.055,-6.0949,-6.1386,-6.1818,-6.2178,-6.2141,-6.2004,-6.1592,-6.0933,-6.0836,-6.1043,-6.141,-6.1484,-6.1484,-6.1484,-6.1851,-6.2144,-6.2181,-6.2842,-6.3392,-6.3392,-6.3686,-6.3943,-6.3906,-6.3613,-6.3392,-6.3406,-6.3223,-6.3184,-6.3242,-6.3382,-6.3511,-6.3602,-6.3647,-6.3512,-5.9594,-5.949,-5.8418,-5.7974,-5.7869,-5.6327,-5.5229,-5.4497,-5.387,-5.2851,-5.1616,-5.0751,-5.0378,-5.0354,-5.0354,-5.0729,-5.1309,-5.1592,-5.25,-5.3845,-5.465,-5.5614,-5.6654,-5.7523,-5.7839,-5.7852,-5.8204,-5.8345,-5.8228,-5.7822,-5.7785,-5.786,-5.7153,-5.6744,-5.6599,-5.36,-5.2258,-5.2594,-5.5436,-5.722,-5.7965,-5.8841,-5.9064,-5.8561,-5.7773,-5.7021,-5.6235,-5.5651,-5.5132,-5.4548,-5.4445,-5.4038,-5.3425,-5.2545,-5.1639,0.0,-4.9932,0.0,0.0,0.0,0.0,0.0,0.0,0.0,0.0,-5.2077,-5.4349,-5.6917,-5.7375,-5.7903,-5.8831,-5.903,-5.8928,-5.8628,-5.9852,-6.0575,-6.032,-6.1497,-6.2476,-6.2761,-6.3381,-6.3819,-6.3782,-6.4599,-6.5055,-6.4835,-6.4391,-6.3599,-6.2302,-6.1875,-6.1998,-6.2732,-6.2805,-6.2658,-6.2879,-6.2952,-6.3025,-6.3172,-6.3759,-6.4237,-6.4237,-6.4787,-6.5264,-6.5191,-6.4677,-6.4288,-6.4352,-6.3836,-6.3464,-6.3558,-6.3622,-6.3602,-6.3602,-6.3647,-6.3556,-6.0797,-6.0718,-6.0039,-5.9725,-5.9673,-5.8889,-5.7712,-5.6249,-5.5229,-5.3868,-5.2395,-5.2173,-5.2188,-5.2204,-5.2177,-5.2827,-5.3852,-5.4179,-5.4992,-5.6139,-5.6967,-5.7839,-5.8628,-5.96,-6.0355,-6.0961,-6.1588,-6.1976,-6.2111,-6.2346,-6.2334,-6.2146,-6.2009,-6.1872,-6.1907,0.0,0.0,0.0,-5.8597,-5.938,-5.9865,-5.9497,-5.9136,-5.8771,-5.7703,0.0,-5.6269,-5.5551,-5.5512,-5.6222,-5.5606,0.0,0.0,0.0,0.0,0.0,0.0,0.0,0.0,0.0,0.0,0.0,-5.5144,-5.4699,-5.4096,-5.6082,-5.7646,-5.8303,-5.9173,-5.9921,-6.0195,-6.0807,-6.1243,-6.1299,-6.2205,-6.2822,-6.2767,-6.3639,-6.4329,-6.4329,-6.4529,-6.4639,-6.4675,-6.4892,-6.5128,-6.5217,-6.5087,-6.4971,-6.4589,-6.3379,-6.2695,-6.2805,-6.2952,-6.3135,-6.3759,-6.3833,-6.4053,-6.464,-6.4934,-6.5081,-6.5081,-6.5191,-6.5338,-6.5375,-6.5191,-6.5132,-6.5198,-6.4685,-6.424,-6.4382,-6.3993,-6.3602,-6.3602,-6.3639,-6.3654,-6.1529,0.0,-6.0901,-6.0666,0.0,-6.0039,-5.9124,-5.8,-5.6876,-5.563,-5.4347,-5.3761,-5.3565,-5.3613,-5.3613,-5.3974,-5.4537,-5.4979,-5.585,-5.6885,-5.7922,-5.8831,-5.9815,-6.0739,-6.1574,-6.2386,-6.3259,-6.39,-6.437,-6.4924,-6.5318,-6.5371,-6.5478,-6.5584,-6.5689,-6.5584,-6.3967,-6.0727,-6.116,-6.1311,-6.1112,-6.1149,-6.0632,-5.9633,-5.853,0.0,0.0,0.0,0.0,0.0,0.0,0.0,0.0,-5.6969,0.0,-5.7374,-5.6962,-5.7017,-5.7588,-5.7684,-5.8043,-5.8792,-5.9536,-5.9429,-5.8237,-5.9656,-6.0863,-6.1336,-6.1996,-6.2438,-6.2549,-6.2911,-6.3275,-6.3385,-6.4185,-6.4749,-6.4876,-6.5642,-6.6135,-6.6225,-6.6225,-6.6225,-6.6225,-6.6279,-6.637,-6.6333,-6.6056,-6.5888,-6.5778,-6.4824,-6.4053,-6.4053,-6.4053,-6.42,-6.4567,-6.4677,-6.4787,-6.5228,-6.5632,-6.5852,-6.5888,-6.6219,-6.6476,-6.6476,-6.6182,-6.5941,-6.6072,-6.5546,-6.509,-6.5282,-6.5079,-6.4865,-6.4791,-6.4196,-6.3647,-6.1973,-6.1921,-6.1476,-6.1267,-6.1215,-6.0614,-5.9986,-5.9281,0.0,0.0,0.0,-5.499,-5.453,-5.4523,-5.4386,-5.4519,-5.4714,-5.5242,-5.6034,-5.7212,-5.8255,-5.934,-6.0355,-6.1404,-6.2451,-6.3254,-6.4338,-6.5323,-6.6032,-6.683,-6.7482,-6.804,-6.8275,-6.8511,-6.8708,-6.8463,-6.6927,-6.4274,-6.3971,-6.3484,-6.275,-6.3205,-6.2648,-6.1084,-6.0013,-5.9116,-5.8563,-5.7736,-5.7524,-5.7925,-5.8044,-5.8332,-5.8659,-5.8809,-5.9274,-6.0022,-6.0058,-6.0402,-6.1223,-6.1379,-6.1592,-6.1709,-6.281,-6.2996,-6.1695,-6.2515,-6.3444,-6.4245,-6.4468,-6.4746,-6.4913,-6.5058,-6.515,-6.535,-6.5934,-6.6391,-6.6572,-6.7085,-6.7506,-6.7687,-6.7614,-6.765,-6.7614,-6.7614,-6.7687,-6.7614,-6.7063,-6.6696,-6.6586,-6.5815,-6.5154,-6.5154,-6.5081,-6.5264,-6.5485,-6.5521,-6.5558,-6.5815,-6.6329,-6.6659,-6.6806,-6.7247,-6.7614,-6.754,-6.71,-6.6875,-6.6985,-6.6445,-6.6063,-6.6267,-6.6202,-6.6091,-6.5979,-6.5051,-6.4167,-6.1973,-6.1947,-6.1894,-6.1842,-6.1816,-6.1241,-6.0378,-5.9281,-5.8157,-5.6967,-5.5604,-5.5578,-5.5226,-5.4737,-5.4224,-5.4515,-5.5261,-5.5412,-5.608,-5.7348,-5.8416,-5.9591,-6.0661,-6.1937,-6.3194,-6.44,-6.5554,-6.6772,-6.7973,-6.8807,-6.9531,-7.0186,-7.0656,-7.0915,-7.1122,-7.0629,-7.0145,-6.9624,-6.807,-6.6766,-6.5785,-6.5286,-6.4446,-6.3365,-6.2424,-6.1936,-6.1963,-6.119,-6.1277,-6.223,-6.1849,-6.1961,-6.276,-6.2904,-6.3154,-6.3401,-6.3437,-6.3589,-6.3981,-6.3868,-6.3905,-6.4146,-6.5039,-6.4802,-6.2996,-6.3708,-6.4419,-6.4565,-6.535,-6.5825,-6.6098,-6.6647,-6.703,-6.723,-6.7376,-6.745,-6.7467,-6.7614,-6.7687,-6.7687,-6.7687,-6.7687,-6.7687,-6.7687,-6.7687,-6.765,-6.7504,-6.7467,-6.721,-6.6219,-6.5411,-6.5338,-6.5338,-6.5595,-6.6182,-6.6329,-6.6586,-6.7247,-6.7357,-6.743,-6.7393,-6.754,-6.7687,-6.7687,-6.754,-6.7573,-6.7797,-6.7257,-6.6914,-6.6998,-6.6675,-6.6277,-6.6277,-6.5942,-6.5543,-6.1973,-6.1973,-6.1973,-6.1973,-6.1921,-6.1346,-6.064,-5.9777,-5.8941,-5.807,-5.7003,-5.6343,-5.6,-5.5693,-5.5203,-5.5084,-5.5436,-5.5611,-5.61,-5.7078,-5.8026,-5.9087,-6.0316,-6.1621,-6.2875,-6.4203,-6.5559,-6.6878,-6.8206,-6.9122,-7.0239,-7.1493,-7.2581,-7.3213,-7.3264,-7.2619,-7.2254,-7.2217,-6.9999,-6.8579,-6.7959,-6.7635,-6.6998,-6.6083,-6.5502,-6.5073,-6.4777,-6.4322,-6.4348,-6.4925,-6.4783,-6.496,-6.5438,-6.5649,-6.5944,-6.6551,-6.6587,-6.6919,-6.7487,-6.7579,-6.7433,-6.7158,-6.754,-6.723,-6.5879,-6.6044,-6.6208,-6.6208,-6.6647,-6.6938,-6.7029,-6.7359,-6.7633,-6.7687,-6.7687,-6.7687,-6.7687,-6.7687,-6.7687,-6.7687,-6.7687,-6.7687,-6.7687,-6.7687,-6.7687,-6.7687,-6.7687,-6.7687,-6.7687,-6.71,-6.6586,-6.6586,-6.6623,-6.6733,-6.7063,-6.7136,-6.7283,-6.765,-6.7687,-6.7687,-6.7687,-6.7687,-6.7687,-6.7687,-6.7687,-6.7794,-6.8004,-6.7709,-6.759,-6.7666,-6.758,-6.7283,-6.7295,-6.7046,-6.6509,-6.1973,-6.1973,-6.1973,-6.1973,-6.1921,-6.1372,-6.0849,-6.0378,-5.9673,-5.9005,-5.8341,-5.7104,-5.6477,-5.6396,-5.5702,-5.5356,-5.5416,-5.5425,-5.5877,-5.6594,-5.7303,-5.8217,-5.9546,-6.0908,-6.2189,-6.3546,-6.5024,-6.6491,-6.7982,-6.9142,-7.0665,-7.2485,-7.3915,-7.4616,-7.4677,-7.4152,-7.3882,-7.3736,-7.1919,-7.0464,-6.9646,-6.9646,-6.9186,-6.8305,-6.8114,-6.7824,-6.7302,-6.7076,-6.7076,-6.7324,-6.744,-6.7555,-6.7741,-6.7872,-6.8275,-6.9045,-6.9173,-6.9431,-7.0128,-7.0347,-7.0143,-6.961,-6.9569,-6.9289,-6.872,-6.8345,-6.8,-6.7707,-6.7614,-6.7704,-6.7704,-6.765,-6.7687,-6.7687,-6.7687,-6.7687,-6.7687,-6.7687,-6.7687,-6.7687,-6.7687,-6.7687,-6.7687,-6.7687,-6.7741,-6.7741,-6.7794,-6.7794,-6.7794,-6.7794,-6.7794,-6.7794,-6.7794,-6.772,-6.7794,-6.7757,-6.7757,-6.7794,-6.7794,-6.7794,-6.7794,-6.7794,-6.7794,-6.7794,-6.7741,-6.7794,-6.7899,-6.7863,-6.793,-6.7996,-6.8023,-6.8148,-6.8124,-6.7888,-6.7205,-6.1973,-6.1973,-6.1973,-6.1973,-6.1894,-6.1372,-6.1084,-6.0875,-5.9856,-5.9333,-5.911,-5.7477,-5.6542,-5.5861,-5.4839,-5.468,-5.5088,-5.4477,-5.4828,-5.5898,-5.6072,-5.6936,-5.8445,-5.9576,-6.0908,-6.2485,-6.4017,-6.5891,-6.7978,-6.9253,-7.1046,-7.3308,-7.4106,-7.453,-7.4616,-7.4845,-7.4926,-7.4985,-7.488,-7.3492,-7.088,-7.0675,-7.0274,-6.9471,-6.9471,-6.9456,-6.9592,-6.9462,-6.9518,-6.976,-6.9871,-6.9981,-6.9981,-7.0143,-7.0286,-7.0517,-7.0517,-7.0554,-7.0665,-7.0628,-7.065,-7.0381,-7.0397,-7.0391,-7.0221,-7.0191,-6.9569,-6.8498,-6.7989,-6.801,-6.7899,-6.7831,-6.7777,-6.7741,-6.7741,-6.7687,-6.7741,-6.7687,-6.7687,-6.7687,-6.7741,-6.7687,-6.7741,-6.7741,-6.7794,-6.7899,-6.7952,-6.8018,-6.8018,-6.8018,-6.8018,-6.8018,-6.8004,-6.7915,-6.7967,-6.8018,-6.8018,-6.8018,-6.8018,-6.8018,-6.8018,-6.8055,-6.8055,-6.7899,-6.7899,-6.7899,-6.7899,-6.7899,-6.7952,-6.7967,-6.8107,-6.8121,-6.8259,-6.8297,-6.78,-6.1973,-6.1973,-6.1973,-6.1973,-6.1921,-6.1711,-6.1372,-6.1101,-6.0588,-6.0053,-5.9331,-5.8324,-5.732,-5.6405,-5.5569,-5.5129,-5.4863,-5.4746,-5.4952,-5.5593,-5.5834,-5.6588,-5.7712,-5.8643,-5.994,-6.145,-6.3387,-6.5357,-6.7342,-6.9899,-7.2167,-7.3583,-7.4604,-7.5261,-7.5393,-7.5279,-7.5212,-7.5176,-7.4958,-7.4286,-7.3383,-7.3413,-7.3439,-7.3128,-7.2686,-7.254,-7.2576,-7.2169,-7.1965,-7.2055,-7.2108,-7.2161,-7.2161,-7.2214,-7.2266,-7.242,-7.2471,-7.2522,-7.2522,-7.2522,-7.2309,-7.1791,-7.1724,-7.1528,-7.0995,-7.0971,-7.0636,-7.0016,-6.9577,-6.9273,-6.883,-6.8704,-6.8468,-6.8062,-6.7952,-6.7952,-6.7915,-6.7952,-6.7952,-6.7952,-6.7952,-6.7952,-6.7952,-6.7952,-6.7915,-6.7967,-6.807,-6.807,-6.807,-6.807,-6.8121,-6.8171,-6.8158,-6.8158,-6.8121,-6.807,-6.807,-6.807,-6.807,-6.807,-6.807,-6.807,-6.807,-6.8055,-6.8004,-6.7952,-6.7899,-6.7847,-6.7794,-6.7899,-6.7952,-6.8018,-6.8259,-6.8358,-6.8037,-6.1973,-6.1973,-6.1973,-6.1973,-6.1973,-6.1973,-6.1835,-6.1363,-6.1163,-6.0682,-5.9791,-5.9019,-5.8209,-5.7268,-5.651,-5.5756,-5.5287,-5.5442,-5.5559,-5.56,-5.5866,-5.6437,-5.742,-5.8256,-5.9439,-6.0897,-6.299,-6.5094,-6.7264,-7.0565,-7.2792,-7.3628,-7.4759,-7.5478,-7.5724,-7.5489,-7.5436,-7.5466,-7.5152,-7.515,-7.5336,-7.5639,-7.5711,-7.5495,-7.4996,-7.4717,-7.4789,-7.4323,-7.3877,-7.3691,-7.3707,-7.3595,-7.341,-7.3372,-7.3461,-7.3527,-7.3665,-7.3715,-7.3765,-7.3765,-7.3516,-7.2992,-7.2932,-7.2694,-7.216,-7.1973,-7.1936,-7.1839,-7.1552,-7.0976,-6.9873,-6.9673,-6.9326,-6.8808,-6.8735,-6.8735,-6.8772,-6.8735,-6.8698,-6.8476,-6.8513,-6.8328,-6.8144,-6.8121,-6.8158,-6.8121,-6.8208,-6.8171,-6.8208,-6.8259,-6.8259,-6.8358,-6.8358,-6.8309,-6.8259,-6.8259,-6.8208,-6.8208,-6.8259,-6.8259,-6.8171,-6.8171,-6.8171,-6.8208,-6.8055,-6.8004,-6.7952,-6.7847,-6.7741,-6.7741,-6.7847,-6.7967,-6.8208,-6.8259,-6.8358,-6.1973,-6.1973,-6.1973,-6.1973,-6.1973,-6.1973,-6.1947,-6.1816,-6.1372,-6.1066,-6.084,-5.9815,-5.8993,-5.834,-5.732,-5.6594,-5.6369,-5.6186,-5.6046,-5.6124,-5.603,-5.6593,-5.7775,-5.8459,-5.9421,-6.0886,-6.261,-6.5304,-6.8718,-7.0988,-7.2582,-7.3206,-7.4068,-7.4748,-7.5082,-7.5441,-7.5757,-7.5823,-7.6161,-7.6396,-7.6461,-7.6591,-7.6265,-7.5564,-7.5383,-7.5346,-7.5402,-7.544,-7.5125,-7.4384,-7.4381,-7.419,-7.3521,-7.341,-7.3424,-7.3424,-7.3461,-7.3476,-7.3615,-7.3665,-7.3628,-7.3691,-7.3665,-7.3688,-7.3494,-7.3464,-7.3441,-7.3628,-7.3429,-7.2646,-7.1079,-7.0628,-7.0465,-7.0317,-7.0338,-7.0302,-7.0338,-7.0206,-7.0006,-6.9451,-6.9304,-6.9082,-6.8343,-6.8208,-6.8444,-6.8494,-6.8519,-6.8605,-6.868,-6.8605,-6.8568,-6.8568,-6.8531,-6.8494,-6.8494,-6.8408,-6.8457,-6.8408,-6.8408,-6.8457,-6.8457,-6.8457,-6.8408,-6.8309,-6.8259,-6.8158,-6.8004,-6.7899,-6.7794,-6.7794,-6.7847,-6.8004,-6.8158,-6.8208,-6.8358,-6.2313,-6.1973,-6.1973,-6.1973,-6.1973,-6.1973,-6.1973,-6.1947,-6.1764,-6.1484,-6.1002,-6.0649,-5.996,-5.9019,-5.8627,-5.7878,-5.6783,-5.6422,-5.6425,-5.6632,-5.6286,-5.6554,-5.7394,-5.7881,-5.8634,-5.9941,-6.182,-6.4695,-6.8209,-7.0063,-7.1342,-7.2244,-7.3113,-7.3791,-7.4335,-7.4713,-7.5153,-7.5478,-7.5762,-7.5971,-7.6244,-7.6378,-7.6381,-7.6188,-7.5946,-7.5868,-7.5985,-7.5678,-7.5291,-7.5033,-7.4608,-7.4273,-7.4047,-7.3722,-7.3564,-7.3564,-7.3615,-7.3665,-7.3715,-7.3715,-7.374,-7.3821,-7.3789,-7.3838,-7.3916,-7.3944,-7.3961,-7.3961,-7.3912,-7.3441,-7.2882,-7.2187,-7.1616,-7.1095,-7.0983,-7.1057,-7.0983,-7.0983,-7.0871,-7.0512,-7.0337,-7.0175,-6.9915,-6.9966,-6.9966,-6.9966,-6.9979,-6.9992,-6.9917,-6.9657,-6.9286,-6.9211,-6.8877,-6.8543,-6.8543,-6.8543,-6.8543,-6.8543,-6.8543,-6.8494,-6.8543,-6.8617,-6.8519,-6.8556,-6.847,-6.8309,-6.8107,-6.8004,-6.7899,-6.7794,-6.7847,-6.8004,-6.8107,-6.8319,-6.8482,-6.26,-6.226,-6.2051,-6.1973,-6.1973,-6.1973,-6.1973,-6.1973,-6.1973,-6.1718,-6.136,-6.1145,-6.0666,-5.9934,-5.9542,-5.8784,-5.7608,-5.7262,-5.7059,-5.7063,-5.6789,-5.6949,-5.7476,-5.7852,-5.8547,-5.974,-6.1918,-6.4708,-6.7401,-6.8863,-7.007,-7.1109,-7.2022,-7.2818,-7.3392,-7.3905,-7.4405,-7.4819,-7.5116,-7.5371,-7.5726,-7.5934,-7.6108,-7.6306,-7.6227,-7.6251,-7.646,-7.6162,-7.5838,-7.558,-7.5215,-7.4811,-7.4367,-7.375,-7.3372,-7.341,-7.3513,-7.3615,-7.3665,-7.3715,-7.374,-7.3821,-7.38,-7.3826,-7.3934,-7.3923,-7.3961,-7.3961,-7.4009,-7.3961,-7.38,-7.3389,-7.2828,-7.2208,-7.2096,-7.2134,-7.2096,-7.2134,-7.1973,-7.1615,-7.1231,-7.102,-7.102,-7.0983,-7.0946,-7.102,-7.102,-7.102,-7.0883,-7.0549,-7.0103,-7.0066,-6.9732,-6.9509,-6.9509,-6.9583,-6.8951,-6.8803,-6.9063,-6.8951,-6.8914,-6.8914,-6.8877,-6.8828,-6.8717,-6.8433,-6.8259,-6.8144,-6.8041,-6.792,-6.7899,-6.8055,-6.8269,-6.8555,-6.8816,-6.2835,-6.2705,-6.2208,-6.1999,-6.1973,-6.1973,-6.1973,-6.1973,-6.1973,-6.1947,-6.1868,-6.1398,-6.111,-6.0823,-5.9986,-5.9385,-5.9188,-5.8526,-5.7874,-5.7429,-5.7384,-5.7593,-5.8037,-5.8364,-5.9064,-6.0237,-6.2899,-6.4923,-6.6459,-6.777,-6.8863,-6.9794,-7.0872,-7.1796,-7.2602,-7.3018,-7.3622,-7.4174,-7.4446,-7.4709,-7.5116,-7.5406,-7.5621,-7.5798,-7.6036,-7.6403,-7.6664,-7.7009,-7.6754,-7.6227,-7.6258,-7.5769,-7.4293,-7.3554,-7.3111,-7.3037,-7.3145,-7.3252,-7.341,-7.3476,-7.3615,-7.3665,-7.3715,-7.3753,-7.3753,-7.3765,-7.3815,-7.3864,-7.3912,-7.4009,-7.4009,-7.3981,-7.3906,-7.3826,-7.3565,-7.3565,-7.3628,-7.374,-7.3478,-7.2694,-7.1973,-7.1424,-7.1386,-7.1563,-7.1637,-7.16,-7.1563,-7.154,-7.1541,-7.133,-7.1057,-7.0958,-7.071,-7.0425,-7.0636,-7.0772,-6.9843,-6.9211,-6.9583,-6.9732,-6.9732,-6.9732,-6.9732,-6.9694,-6.9385,-6.9187,-6.905,-6.8948,-6.8735,-6.8646,-6.8439,-6.8527,-6.8874,-6.9322,-6.962,-6.3175,-6.2809,-6.2626,-6.2339,-6.1999,-6.1973,-6.1973,-6.1973,-6.1973,-6.1973,-6.1921,-6.179,-6.1502,-6.1136,-6.0718,-6.0352,-5.9908,-5.9293,-5.8596,-5.7979,-5.7482,-5.7731,-5.8159,-5.8304,-5.8939,-6.0345,-6.2145,-6.3759,-6.5094,-6.6491,-6.7631,-6.8666,-6.9699,-7.0724,-7.162,-7.209,-7.2769,-7.3507,-7.3747,-7.4061,-7.4593,-7.4894,-7.5189,-7.5406,-7.5621,-7.5832,-7.6144,-7.6672,-7.6846,-7.6544,-7.6104,-7.5275,-7.4154,-7.3867,-7.3573,-7.3056,-7.3037,-7.3091,-7.3145,-7.3145,-7.3215,-7.3268,-7.3268,-7.3357,-7.3461,-7.3513,-7.3615,-7.3765,-7.3864,-7.3864,-7.3864,-7.3912,-7.3961,-7.4056,-7.4056,-7.4056,-7.4056,-7.4009,-7.3848,-7.3624,-7.3228,-7.3067,-7.2993,-7.2993,-7.2881,-7.2881,-7.2918,-7.2907,-7.2857,-7.2372,-7.216,-7.2062,-7.1689,-7.1391,-7.1491,-7.1603,-7.1119,-7.0511,-7.0611,-7.0636,-7.0599,-7.0549,-7.0549,-7.0326,-7.0103,-6.9942,-6.9841,-6.9753,-6.9554,-6.9651,-6.9725,-6.985,-6.9939,-7.0239,-7.0574,-6.3672,-6.3149,-6.2914,-6.2496,-6.1999,-6.1973,-6.1973,-6.1973,-6.1973,-6.1973,-6.1973,-6.1973,-6.179,-6.145,-6.1215,-6.0927,-6.0483,-5.9725,-5.911,-5.8657,-5.7979,-5.7937,-5.8536,-5.8903,-5.9506,-6.0784,-6.2195,-6.3473,-6.4516,-6.5947,-6.7048,-6.7978,-6.8958,-6.9868,-7.0608,-7.112,-7.183,-7.2686,-7.3018,-7.338,-7.3861,-7.4364,-7.4669,-7.4894,-7.5116,-7.5334,-7.5585,-7.6108,-7.6373,-7.6454,-7.5972,-7.5041,-7.4116,-7.3854,-7.3456,-7.2831,-7.2667,-7.2723,-7.2816,-7.2835,-7.2945,-7.3,-7.3,-7.3091,-7.3252,-7.3252,-7.332,-7.3424,-7.3527,-7.3578,-7.3665,-7.3715,-7.3815,-7.4009,-7.4104,-7.4151,-7.4151,-7.4151,-7.4104,-7.4019,-7.3934,-7.3961,-7.3961,-7.3961,-7.3961,-7.3961,-7.3961,-7.3912,-7.3838,-7.3415,-7.3191,-7.2955,-7.272,-7.2496,-7.2358,-7.232,-7.232,-7.2037,-7.1839,-7.1715,-7.1554,-7.1504,-7.1467,-7.0883,-7.0549,-7.0512,-7.0411,-7.0485,-7.0434,-7.0731,-7.0828,-7.0671,-7.0623,-7.1194,-7.1566,-6.4221,-6.3646,-6.3097,-6.2548,-6.1999,-6.1973,-6.1973,-6.1973,-6.1973,-6.1973,-6.1973,-6.1973,-6.1973,-6.1816,-6.145,-6.1215,-6.098,-6.0117,-5.962,-5.9346,-5.8727,-5.854,-5.8719,-5.9581,-6.0459,-6.1373,-6.2505,-6.3793,-6.4606,-6.5809,-6.6939,-6.7521,-6.8516,-6.9382,-6.9841,-7.0243,-7.1017,-7.1825,-7.2159,-7.2602,-7.3183,-7.3737,-7.4053,-7.4287,-7.4669,-7.4894,-7.5116,-7.5406,-7.5762,-7.6135,-7.5887,-7.5289,-7.4441,-7.3738,-7.307,-7.2363,-7.2204,-7.2285,-7.2496,-7.2516,-7.2723,-7.2835,-7.2835,-7.2982,-7.289,-7.2927,-7.2945,-7.3037,-7.3108,-7.3178,-7.3372,-7.3424,-7.3615,-7.3765,-7.3912,-7.4056,-7.4151,-7.4151,-7.4151,-7.4151,-7.4197,-7.4197,-7.4151,-7.4151,-7.4151,-7.4151,-7.4151,-7.4104,-7.4019,-7.3859,-7.3923,-7.3725,-7.3464,-7.3389,-7.3175,-7.3175,-7.3175,-7.3062,-7.2892,-7.2683,-7.2472,-7.2385,-7.2285,-7.1714,-7.1255,-7.118,-7.1204,-7.1427,-7.1464,-7.1575,-7.1464,-7.1156,-7.1516,-7.2162,-7.2496,-6.4587,-6.3672,-6.3515,-6.2888,-6.2051,-6.1973,-6.1973,-6.1973,-6.1973,-6.1973,-6.1973,-6.1973,-6.1973,-6.1947,-6.1816,-6.1764,-6.1502,-6.0953,-6.0666,-6.0535,-6.0053,-5.9325,-5.8955,-5.9535,-6.0303,-6.0886,-6.1784,-6.2678,-6.3911,-6.5084,-6.5961,-6.7001,-6.7966,-6.884,-6.9658,-6.9777,-7.0334,-7.1151,-7.1413,-7.1742,-7.2262,-7.297,-7.3299,-7.3622,-7.3975,-7.4287,-7.4593,-7.5042,-7.5478,-7.5868,-7.5963,-7.5593,-7.4921,-7.4252,-7.3479,-7.2838,-7.2279,-7.2048,-7.2108,-7.2167,-7.2226,-7.2226,-7.2285,-7.2285,-7.2401,-7.2553,-7.2667,-7.2779,-7.2945,-7.3,-7.3091,-7.3145,-7.3252,-7.3476,-7.3678,-7.3912,-7.4009,-7.4056,-7.4104,-7.4151,-7.4197,-7.4197,-7.4197,-7.4197,-7.4197,-7.4197,-7.4197,-7.4197,-7.4151,-7.4104,-7.4056,-7.4104,-7.3991,-7.4029,-7.4029,-7.4029,-7.3991,-7.3916,-7.3794,-7.3624,-7.3404,-7.3218,-7.3155,-7.2867,-7.2444,-7.2295,-7.2555,-7.2815,-7.2704,-7.242,-7.2546,-7.2534,-7.2845,-7.3392,-7.3415,-6.4848,-6.4012,-6.3776,-6.3149,-6.2339,-6.2077,-6.1973,-6.1973,-6.1973,-6.1973,-6.1973,-6.1973,-6.1973,-6.1973,-6.1973,-6.1973,-6.1894,-6.1398,-6.111,-6.098,-6.0498,-5.9842,-5.9648,-5.9965,-6.0428,-6.0955,-6.166,-6.2594,-6.3486,-6.4582,-6.5532,-6.6478,-6.7341,-6.82,-6.9021,-6.9294,-6.97,-7.037,-7.0837,-7.1185,-7.1512,-7.2176,-7.272,-7.3053,-7.3415,-7.3737,-7.4132,-7.4593,-7.5042,-7.5514,-7.5762,-7.5577,-7.4885,-7.426,-7.3559,-7.279,-7.2029,-7.162,-7.1718,-7.1744,-7.1805,-7.1866,-7.1964,-7.2048,-7.2108,-7.2226,-7.2343,-7.2401,-7.2553,-7.261,-7.2667,-7.2779,-7.2945,-7.3199,-7.3357,-7.3615,-7.3864,-7.3912,-7.3961,-7.4009,-7.4056,-7.4104,-7.4104,-7.4151,-7.4197,-7.4197,-7.4197,-7.4197,-7.4197,-7.4197,-7.4197,-7.4197,-7.4197,-7.4151,-7.4151,-7.4151,-7.4151,-7.4151,-7.4151,-7.4104,-7.3961,-7.3765,-7.3591,-7.3401,-7.3387,-7.3372,-7.3424,-7.3424,-7.3327,-7.3229,-7.3578,-7.3715,-7.3815,-7.3912,-7.4009,-6.5057,-6.4482,-6.3985,-6.341,-6.2783,-6.2287,-6.2051,-6.1973,-6.1973,-6.1973,-6.1973,-6.1973,-6.1973,-6.1973,-6.1973,-6.1973,-6.1947,-6.1502,-6.1319,-6.1084,-6.076,-6.0368,-6.0572,-6.0607,-6.1001,-6.1438,-6.2437,-6.2962,-6.3476,-6.4694,-6.547,-6.604,-6.6761,-6.7512,-6.8196,-6.8657,-6.9106,-6.9793,-7.0437,-7.0885,-7.1203,-7.1762,-7.219,-7.2657,-7.2957,-7.3287,-7.3737,-7.4132,-7.4482,-7.4968,-7.5442,-7.5227,-7.458,-7.3895,-7.3105,-7.2382,-7.1657,-7.111,-7.1276,-7.1404,-7.1531,-7.1656,-7.1744,-7.1927,-7.1866,-7.1866,-7.1927,-7.1927,-7.1964,-7.2108,-7.2226,-7.2459,-7.263,-7.2835,-7.289,-7.3162,-7.3564,-7.3715,-7.3765,-7.3815,-7.3912,-7.3961,-7.4009,-7.4104,-7.4151,-7.4151,-7.4151,-7.4197,-7.4197,-7.4197,-7.4197,-7.4197,-7.4197,-7.4197,-7.4197,-7.4197,-7.4197,-7.4197,-7.4197,-7.4151,-7.4056,-7.3912,-7.3728,-7.3628,-7.3578,-7.3564,-7.3564,-7.3564,-7.3615,-7.3665,-7.3765,-7.3826,-7.3923,-7.4056,-7.4151,-6.5057,-6.4508,-6.4378,-6.375,-6.2888,-6.2679,-6.2365,-6.1973,-6.1973,-6.1973,-6.1973,-6.1973,-6.1973,-6.1973,-6.1973,-6.1973,-6.1973,-6.179,-6.179,-6.1738,-6.1126,-6.118,-6.1318,-6.1318,-6.1538,-6.1931,-6.2398,-6.2827,-6.3159,-6.3863,-6.4752,-6.5522,-6.6272,-6.7155,-6.7836,-6.8272,-6.8813,-6.9549,-7.0131,-7.0662,-7.1158,-7.1493,-7.1907,-7.2382,-7.2674,-7.2873,-7.3252,-7.3542,-7.3782,-7.4096,-7.4482,-7.4752,-7.4508,-7.3476,-7.2762,-7.2472,-7.1466,-7.0847,-7.0979,-7.1045,-7.111,-7.1175,-7.124,-7.124,-7.124,-7.1368,-7.1467,-7.1531,-7.1656,-7.1842,-7.1988,-7.2108,-7.2226,-7.2343,-7.2386,-7.2556,-7.2908,-7.3231,-7.3476,-7.3615,-7.3765,-7.3864,-7.3864,-7.3961,-7.4056,-7.4056,-7.4104,-7.4151,-7.4197,-7.4151,-7.4197,-7.4197,-7.4197,-7.4197,-7.4197,-7.4197,-7.4197,-7.4197,-7.4197,-7.4197,-7.4104,-7.4056,-7.3875,-7.3777,-7.3765,-7.3715,-7.3665,-7.3715,-7.3765,-7.3815,-7.3864,-7.4009,-7.4104,-7.4197,-7.4335,-6.5214,-6.49,-6.4639,-6.4038,-6.3254,-6.294,-6.2496,-6.2051,-6.1973,-6.1973,-6.1973,-6.1973,-6.1973,-6.1973,-6.1973,-6.1973,-6.1973,-6.1973,-6.1973,-6.1921,-6.164,-6.1808,-6.2122,-6.2152,-6.2221,-6.2193,-6.2616,-6.2811,-6.2939,-6.3545,-6.4222,-6.4711,-6.5504,-6.6293,-6.7183,-6.7783,-6.8467,-6.9175,-6.9849,-7.0454,-7.0989,-7.1391,-7.1794,-7.2337,-7.2615,-7.2708,-7.2705,-7.2887,-7.3135,-7.338,-7.3622,-7.4132,-7.4345,-7.3216,-7.2655,-7.2371,-7.1196,-7.0445,-7.0443,-7.0579,-7.0615,-7.0647,-7.0714,-7.075,-7.0817,-7.0949,-7.0979,-7.1081,-7.1276,-7.1494,-7.162,-7.1682,-7.1744,-7.183,-7.1975,-7.2094,-7.2343,-7.2742,-7.3162,-7.332,-7.3513,-7.3527,-7.3628,-7.3815,-7.3864,-7.3912,-7.3912,-7.4009,-7.4104,-7.4104,-7.4151,-7.4151,-7.4197,-7.4197,-7.4197,-7.4197,-7.4197,-7.4197,-7.4197,-7.4197,-7.4151,-7.4104,-7.4056,-7.3961,-7.3864,-7.3777,-7.3728,-7.3826,-7.3912,-7.3961,-7.4009,-7.4104,-7.4243,-7.4297,-7.4432,-6.5397,-6.5345,-6.4848,-6.4325,-6.3776,-6.3306,-6.2757,-6.2156,-6.2104,-6.2104,-6.1973,-6.1973,-6.1973,-6.1973,-6.1973,-6.1973,-6.1973,-6.1973,-6.1973,-6.1947,-6.1947,-6.207,-6.229,-6.2577,-6.2645,-6.2248,-6.2823,-6.303,-6.3004,-6.3301,-6.3771,-6.4006,-6.4612,-6.5504,-6.6352,-6.7305,-6.8111,-6.8727,-6.965,-7.0416,-7.0961,-7.1317,-7.1753,-7.2177,-7.236,-7.2382,-7.2293,-7.2348,-7.2382,-7.2755,-7.2838,-7.3299,-7.3466,-7.3053,-7.2215,-7.2144,-7.0766,-7.0132,-6.992,-6.9956,-7.0062,-7.0132,-7.0272,-7.0341,-7.041,-7.0478,-7.0511,-7.0647,-7.0781,-7.0913,-7.1146,-7.1211,-7.124,-7.1368,-7.1557,-7.1682,-7.1842,-7.2226,-7.2573,-7.289,-7.3108,-7.3215,-7.3372,-7.3564,-7.3665,-7.3765,-7.3765,-7.3815,-7.3912,-7.4009,-7.4009,-7.4056,-7.4056,-7.4104,-7.4104,-7.4197,-7.4197,-7.4151,-7.4151,-7.4197,-7.4197,-7.4151,-7.4104,-7.4019,-7.3971,-7.3923,-7.3923,-7.3971,-7.4056,-7.4104,-7.4151,-7.4289,-7.438,-7.4476,-7.4601,-6.5397,-6.5371,-6.5292,-6.4926,-6.4404,-6.4273,-6.362,-6.2783,-6.2652,-6.2391,-6.2025,-6.1973,-6.1973,-6.1973,-6.1973,-6.1973,-6.1973,-6.1973,-6.1973,-6.1973,-6.1973,-6.2123,-6.2273,-6.2518,-6.2777,-6.3058,-6.3523,-6.352,-6.3224,-6.3306,-6.3628,-6.3856,-6.4381,-6.5054,-6.5882,-6.6816,-6.7879,-6.8612,-6.9506,-7.0505,-7.108,-7.144,-7.1713,-7.2111,-7.2122,-7.1934,-7.1965,-7.1851,-7.1776,-7.1864,-7.221,-7.2467,-7.2666,-7.2383,-7.1971,-7.1357,-7.0594,-6.9863,-6.9484,-6.9452,-6.9525,-6.967,-6.9742,-6.9813,-6.9956,-7.0026,-7.0026,-7.0096,-7.0166,-7.041,-7.065,-7.0682,-7.0781,-7.0847,-7.1045,-7.1175,-7.1404,-7.1593,-7.1988,-7.238,-7.2667,-7.2853,-7.3054,-7.3215,-7.3372,-7.3513,-7.3615,-7.3665,-7.3765,-7.3815,-7.3864,-7.3864,-7.3864,-7.3912,-7.4009,-7.4104,-7.4151,-7.4104,-7.4104,-7.4151,-7.4151,-7.4197,-7.4151,-7.4104,-7.4104,-7.4104,-7.4104,-7.4151,-7.4197,-7.4243,-7.4335,-7.4425,-7.4551,-7.4676,-7.4838,-6.5397,-6.5397,-6.5397,-6.5057,-6.4587,-6.4508,-6.4064,-6.328,-6.2966,-6.2679,-6.2391,-6.213,-6.1973,-6.1973,-6.1973,-6.1973,-6.1973,-6.1973,-6.1973,-6.1973,-6.1973,-6.1973,-6.2123,-6.2369,-6.2789,-6.3179,-6.3522,-6.3837,-6.3602,-6.3888,-6.3749,-6.3707,-6.4301,-6.4958,-6.5436,-6.6352,-6.7457,-6.8417,-6.9356,-7.0275,-7.114,-7.1553,-7.202,-7.2182,-7.2117,-7.1912,-7.1526,-7.1539,-7.1344,-7.1345,-7.1423,-7.1688,-7.1848,-7.1833,-7.1567,-7.0857,-7.0262,-6.954,-6.9031,-6.8932,-6.9008,-6.9083,-6.9157,-6.9157,-6.927,-6.9379,-6.9452,-6.9598,-6.967,-6.9813,-6.9991,-7.0096,-7.0166,-7.0305,-7.0475,-7.0678,-7.0883,-7.0985,-7.1376,-7.1842,-7.2167,-7.2459,-7.2723,-7.289,-7.3054,-7.3215,-7.3372,-7.3513,-7.3615,-7.3615,-7.3665,-7.3715,-7.3765,-7.3815,-7.3912,-7.3961,-7.4056,-7.4056,-7.4094,-7.4094,-7.4216,-7.4254,-7.4226,-7.4151,-7.4197,-7.4498,-7.4235,-7.4272,-7.4327,-7.4455,-7.462,-7.4789,-7.4795,-7.4918,-7.5225,-6.5397,-6.5397,-6.5397,-6.5109,-6.4743,-6.4717,-6.4378,-6.3829,-6.341,-6.3045,-6.2757,-6.2365,-6.2104,-6.1999,-6.1973,-6.1973,-6.1973,-6.1973,-6.1973,-6.1973,-6.1973,-6.1973,-6.2097,-6.2396,-6.2815,-6.3111,-6.3526,-6.3776,-6.4062,-6.4214,-6.4083,-6.4106,-6.4717,-6.5159,-6.5473,-6.6524,-6.7394,-6.8179,-6.9006,-6.9818,-7.0726,-7.1689,-7.2461,-7.2466,-7.2405,-7.1952,-7.1386,-7.1051,-7.087,-7.075,-7.0825,-7.1007,-7.1334,-7.1423,-7.1042,-7.0275,-6.9796,-6.9129,-6.8483,-6.8319,-6.8397,-6.8474,-6.8551,-6.8551,-6.8628,-6.8781,-6.8932,-6.9083,-6.9157,-6.9231,-6.9379,-6.9452,-6.9525,-6.9706,-6.9885,-7.0129,-7.0236,-7.0445,-7.0754,-7.1146,-7.162,-7.1988,-7.2263,-7.261,-7.2779,-7.2945,-7.3054,-7.3252,-7.3305,-7.3357,-7.3461,-7.3615,-7.3665,-7.3715,-7.3765,-7.3815,-7.3864,-7.3912,-7.3987,-7.4025,-7.4223,-7.4383,-7.4469,-7.4704,-7.4986,-7.5211,-7.4807,-7.474,-7.5246,-7.5449,-7.5248,-7.5372,-7.5792,-7.6028,-7.6259,-6.5397,-6.5397,-6.5397,-6.5345,-6.5266,-6.524,-6.4953,-6.4456,-6.4299,-6.3724,-6.2966,-6.2757,-6.2469,-6.213,-6.2025,-6.1999,-6.1973,-6.1973,-6.1973,-6.1973,-6.1973,-6.1973,-6.2123,-6.2448,-6.2842,-6.3111,-6.3433,-6.3873,-6.4327,-6.4516,-6.4523,-6.4583,-6.5177,-6.5791,-6.6025,-6.7086,-6.7754,-6.8211,-6.8951,-6.9849,-7.0645,-7.1456,-7.1982,-7.2184,-7.1974,-7.1532,-7.1191,-7.0832,-7.0433,-7.0092,-7.0209,-7.0363,-7.0608,-7.0608,-7.0172,-6.9794,-6.9474,-6.9062,-6.8002,-6.7878,-6.7971,-6.8051,-6.8062,-6.8039,-6.8162,-6.8319,-6.8474,-6.8474,-6.8628,-6.8781,-6.8857,-6.8932,-6.9083,-6.9157,-6.927,-6.949,-6.9705,-6.9884,-7.0097,-7.0514,-7.0943,-7.1368,-7.1718,-7.2144,-7.2553,-7.2667,-7.2816,-7.2927,-7.3091,-7.3145,-7.3199,-7.3357,-7.3461,-7.3513,-7.3564,-7.3615,-7.3665,-7.3715,-7.3989,-7.4101,-7.4412,-7.4761,-7.5383,-7.5668,-7.5904,-7.6,-7.5822,-7.5906,-7.6383,-7.6444,-7.6236,-7.6549,-7.7089,-7.7286,-7.7331,-6.5397,-6.5397,-6.5397,-6.5397,-6.5397,-6.5397,-6.524,-6.4979,-6.4665,-6.4247,-6.3776,-6.341,-6.2992,-6.2522,-6.2443,-6.226,-6.2051,-6.1973,-6.1973,-6.1973,-6.1973,-6.1973,-6.2123,-6.2448,-6.272,-6.3138,-6.3553,-6.4165,-6.4464,-6.4929,-6.5107,-6.539,-6.6072,-6.6689,-6.6795,-6.7923,-6.8655,-6.9215,-6.9839,-7.0526,-7.1087,-7.1314,-7.1534,-7.197,-7.1649,-7.1422,-7.1162,-7.0685,-7.027,-6.9878,-6.9808,-6.9703,-6.986,-7.0016,-6.981,-6.9261,-6.9379,-6.9059,-6.8353,-6.8269,-6.8132,-6.791,-6.7891,-6.7954,-6.789,-6.7834,-6.7879,-6.7879,-6.7959,-6.8083,-6.8162,-6.8241,-6.8397,-6.8474,-6.8809,-6.8927,-6.9153,-6.9302,-6.9522,-6.9849,-7.0236,-7.0714,-7.1146,-7.1557,-7.2048,-7.238,-7.2496,-7.2667,-7.2835,-7.2982,-7.3037,-7.3091,-7.3199,-7.3252,-7.3305,-7.3357,-7.3461,-7.3624,-7.4234,-7.4383,-7.4784,-7.5258,-7.5957,-7.6468,-7.6705,-7.6766,-7.6713,-7.6818,-7.704,-7.7092,-7.7187,-7.75,-7.7855,-7.8166,-7.8283,-6.5397,-6.5397,-6.5397,-6.5397,-6.5397,-6.5397,-6.5371,-6.5318,-6.4953,-6.4665,-6.4404,-6.3907,-6.3332,-6.2914,-6.2757,-6.2469,-6.1973,-6.1973,-6.1973,-6.1973,-6.1973,-6.1973,-6.2123,-6.2422,-6.2842,-6.3111,-6.3726,-6.431,-6.4889,-6.5407,-6.5753,-6.5921,-6.7022,-6.7563,-6.7946,-6.8733,-6.9687,-7.0098,-7.0606,-7.1097,-7.1468,-7.1358,-7.1441,-7.1537,-7.1566,-7.1432,-7.1155,-7.0744,-7.0274,-6.9808,-6.9451,-6.9321,-6.9351,-6.9445,-6.9471,-6.9103,-6.9217,-6.9077,-6.8717,-6.8618,-6.8479,-6.8229,-6.8012,-6.798,-6.7505,-6.7418,-6.7365,-6.7263,-6.7394,-6.7475,-6.7672,-6.7856,-6.8257,-6.8418,-6.8428,-6.8596,-6.8717,-6.8906,-6.9107,-6.9379,-6.9813,-7.0202,-7.0579,-7.1045,-7.1494,-7.1964,-7.2263,-7.2438,-7.261,-7.2779,-7.2872,-7.2927,-7.3037,-7.3091,-7.3145,-7.3199,-7.3252,-7.3527,-7.4174,-7.4694,-7.5097,-7.585,-7.6625,-7.7065,-7.7428,-7.7679,-7.7779,-7.7683,-7.7651,-7.8043,-7.8321,-7.823,-7.847,-7.8818,-7.9203,-6.5397,-6.5397,-6.5397,-6.5397,-6.5397,-6.5397,-6.5397,-6.5397,-6.5318,-6.5005,-6.456,-6.3985,-6.3515,-6.3045,-6.2966,-6.2679,-6.1999,-6.1973,-6.1999,-6.1999,-6.1973,-6.1973,-6.2273,-6.2545,-6.3111,-6.3259,-6.3873,-6.46,-6.5319,-6.5747,-6.6117,-6.6651,-6.7724,-6.8218,-6.9014,-6.9773,-7.0512,-7.0954,-7.1255,-7.134,-7.151,-7.1424,-7.1477,-7.1484,-7.1378,-7.1105,-7.0759,-7.0567,-7.0299,-6.9626,-6.9469,-6.9346,-6.9386,-6.9354,-6.9254,-6.9156,-6.9055,-6.902,-6.8913,-6.8685,-6.8349,-6.8272,-6.8194,-6.8014,-6.7584,-6.7517,-6.73,-6.6981,-6.7337,-6.7335,-6.7604,-6.7857,-6.8266,-6.8417,-6.8466,-6.8713,-6.8739,-6.8749,-6.8925,-6.9037,-6.9449,-6.9954,-7.0272,-7.0714,-7.1175,-7.1718,-7.2084,-7.2263,-7.238,-7.2496,-7.261,-7.2723,-7.2872,-7.2982,-7.2982,-7.3037,-7.3091,-7.3515,-7.4125,-7.4754,-7.5365,-7.6233,-7.7287,-7.7729,-7.8096,-7.8461,-7.8728,-7.8527,-7.8577,-7.9169,-7.9425,-7.9187,-7.9277,-7.9624,-7.9933,-6.5397,-6.5397,-6.5397,-6.5397,-6.5397,-6.5397,-6.5397,-6.5397,-6.5371,-6.5292,-6.5031,-6.4796,-6.4404,-6.3985,-6.3803,-6.3358,-6.26,-6.2496,-6.2313,-6.2051,-6.1973,-6.1973,-6.2246,-6.2693,-6.3111,-6.3259,-6.3873,-6.4745,-6.549,-6.589,-6.6707,-6.7541,-6.847,-6.919,-6.991,-7.0886,-7.1652,-7.1967,-7.2058,-7.2021,-7.2018,-7.1728,-7.1634,-7.1394,-7.1383,-7.1154,-7.0995,-7.0486,-7.0407,-7.0244,-6.9865,-6.9788,-6.9704,-6.9479,-6.9384,-6.9418,-6.9256,-6.9059,-6.9092,-6.8822,-6.8677,-6.8393,-6.8186,-6.7878,-6.7758,-6.7992,-6.7925,-6.7745,-6.7665,-6.7704,-6.794,-6.8142,-6.8398,-6.8519,-6.8692,-6.8863,-6.8913,-6.8822,-6.8923,-6.9194,-6.9561,-6.9976,-7.0203,-7.0374,-7.0913,-7.1431,-7.1744,-7.2084,-7.2204,-7.2321,-7.2438,-7.2553,-7.2704,-7.2816,-7.2779,-7.2872,-7.2872,-7.3444,-7.4146,-7.4885,-7.568,-7.6903,-7.7812,-7.8257,-7.8495,-7.8581,-7.8738,-7.9079,-7.9311,-7.95,-7.9734,-7.9958,-8.0119,-8.0354,-8.0468,-6.5397,-6.5397,-6.5397,-6.5397,-6.5397,-6.5397,-6.5397,-6.5397,-6.5397,-6.5397,-6.5397,-6.5371,-6.5083,-6.4665,-6.4482,-6.4012,-6.328,-6.3045,-6.2705,-6.2469,-6.2287,-6.213,-6.2299,-6.2693,-6.3111,-6.3286,-6.3873,-6.4745,-6.549,-6.589,-6.6847,-6.8062,-6.9144,-6.9943,-7.0859,-7.1947,-7.2734,-7.2829,-7.283,-7.2612,-7.2519,-7.2204,-7.2095,-7.1706,-7.1593,-7.132,-7.1234,-7.0838,-7.0486,-7.0428,-7.0289,-7.0179,-7.017,-7.0053,-6.9964,-6.9737,-6.961,-6.9451,-6.9385,-6.9125,-6.8927,-6.8752,-6.8423,-6.8274,-6.8253,-6.8278,-6.8144,-6.7969,-6.8092,-6.8283,-6.8316,-6.8439,-6.8696,-6.8909,-6.8997,-6.914,-6.918,-6.9169,-6.9252,-6.9392,-6.9817,-7.0336,-7.0874,-7.1123,-7.1237,-7.1585,-7.1718,-7.1903,-7.1964,-7.2084,-7.2263,-7.2321,-7.2475,-7.2496,-7.261,-7.2704,-7.2851,-7.357,-7.4253,-7.5121,-7.6085,-7.7213,-7.792,-7.8071,-7.8239,-7.8458,-7.8671,-7.8915,-7.9214,-7.9453,-7.9816,-8.0154,-8.0354,-8.0468,-8.0543,-6.5397,-6.5397,-6.5397,-6.5397,-6.5397,-6.5397,-6.5397,-6.5397,-6.5397,-6.5397,-6.5397,-6.5371,-6.5109,-6.4691,-6.4665,-6.4273,-6.3803,-6.3646,-6.3358,-6.294,-6.2809,-6.2496,-6.2588,-6.2932,-6.3511,-6.3339,-6.4235,-6.5072,-6.5656,-6.6508,-6.738,-6.8644,-6.9943,-7.0849,-7.1435,-7.2452,-7.2983,-7.2983,-7.2922,-7.2984,-7.2799,-7.255,-7.2483,-7.2376,-7.1925,-7.1772,-7.1484,-7.1186,-7.0838,-7.0486,-7.0684,-7.0546,-7.0308,-7.0429,-7.0371,-7.0442,-7.0377,-7.0312,-7.0312,-6.9482,-6.9125,-6.9026,-6.8862,-6.8728,-6.8427,-6.8324,-6.8286,-6.8301,-6.8161,-6.8244,-6.8435,-6.8794,-6.9061,-6.9286,-6.941,-6.9468,-6.9514,-6.9735,-6.9952,-6.9967,-7.0441,-7.1011,-7.1572,-7.1978,-7.1914,-7.1874,-7.1801,-7.1816,-7.1816,-7.1903,-7.2084,-7.2204,-7.2263,-7.2438,-7.2496,-7.2606,-7.292,-7.3618,-7.4485,-7.5448,-7.6206,-7.7134,-7.7636,-7.7805,-7.8014,-7.8183,-7.8458,-7.8723,-7.9128,-7.9509,-7.9908,-8.0237,-8.0468,-8.0614,-8.065,-6.5397,-6.5397,-6.5397,-6.5397,-6.5397,-6.5397,-6.5397,-6.5397,-6.5397,-6.5397,-6.5397,-6.5397,-6.5318,-6.5136,-6.5031,-6.477,-6.4325,-6.4221,-6.3933,-6.3437,-6.3384,-6.3306,-6.3402,-6.3725,-6.423,-6.4584,-6.5356,-6.6011,-6.6733,-6.7548,-6.8738,-6.996,-7.111,-7.1956,-7.2195,-7.2734,-7.2983,-7.2983,-7.2983,-7.2983,-7.2952,-7.283,-7.2767,-7.2849,-7.2526,-7.2136,-7.1907,-7.1642,-7.1249,-7.0902,-7.1169,-7.1304,-7.1274,-7.1325,-7.118,-7.1019,-7.0824,-7.0403,-7.0371,-6.9993,-6.9737,-6.9645,-6.9483,-6.9288,-6.8862,-6.8923,-6.8855,-6.8913,-6.897,-6.9064,-6.939,-6.9423,-6.9589,-6.9683,-6.981,-6.9903,-7.0113,-7.0468,-7.0799,-7.0601,-7.0869,-7.1734,-7.2363,-7.2834,-7.288,-7.2568,-7.25,-7.1884,-7.1801,-7.1853,-7.1939,-7.2084,-7.2204,-7.2321,-7.2511,-7.2826,-7.3303,-7.4059,-7.4904,-7.5786,-7.6507,-7.7179,-7.7422,-7.7703,-7.782,-7.7957,-7.8349,-7.8775,-7.9273,-7.9645,-8.0034,-8.0315,-8.0542,-8.065,-8.0758,-6.5397,-6.5397,-6.5397,-6.5397,-6.5397,-6.5397,-6.5397,-6.5397,-6.5397,-6.5397,-6.5397,-6.5397,-6.5371,-6.5371,-6.5345,-6.5266,-6.4822,-6.4822,-6.4534,-6.4038,-6.3985,-6.3803,-6.4006,-6.4492,-6.4763,-6.5226,-6.6128,-6.6964,-6.7467,-6.8681,-7.0041,-7.152,-7.2709,-7.2979,-7.3129,-7.3074,-7.2983,-7.2983,-7.2983,-7.2983,-7.2983,-7.3015,-7.3107,-7.3101,-7.3057,-7.2739,-7.2517,-7.2274,-7.204,-7.1886,-7.2094,-7.2316,-7.2453,-7.2617,-7.2508,-7.2346,-7.1958,-7.1504,-7.1278,-7.118,-7.0863,-7.0382,-7.016,-6.987,-6.9679,-6.9944,-6.991,-6.9876,-7.01,-6.9997,-6.9898,-6.9931,-6.9931,-7.0026,-6.9993,-7.0182,-7.0243,-7.0699,-7.1086,-7.1056,-7.1641,-7.2477,-7.3294,-7.3547,-7.3884,-7.3543,-7.3233,-7.2617,-7.2038,-7.2091,-7.2169,-7.2243,-7.2363,-7.2555,-7.2856,-7.3303,-7.3817,-7.4441,-7.5285,-7.6203,-7.6644,-7.7242,-7.7389,-7.7524,-7.7762,-7.7957,-7.8495,-7.8878,-7.9369,-7.9778,-8.0116,-8.0392,-8.0614,-8.0758,-8.0826,-6.5345,-6.5345,-6.5397,-6.5397,-6.5397,-6.5397,-6.5397,-6.5397,-6.5397,-6.5397,-6.5397,-6.5397,-6.5397,-6.5397,-6.5397,-6.5345,-6.5292,-6.5292,-6.4979,-6.4691,-6.456,-6.4273,-6.4347,-6.4704,-6.5296,-6.5592,-6.6318,-6.7607,-6.8037,-6.9793,-7.1422,-7.285,-7.3779,-7.3974,-7.3807,-7.3506,-7.3168,-7.3045,-7.2983,-7.2983,-7.2983,-7.3107,-7.3262,-7.3503,-7.3432,-7.3359,-7.3241,-7.3127,-7.2811,-7.2851,-7.3193,-7.3483,-7.374,-7.425,-7.4471,-7.4322,-7.363,-7.3016,-7.2434,-7.2272,-7.1916,-7.1342,-7.0857,-7.0669,-7.062,-7.0662,-7.06,-7.0667,-7.0697,-7.0398,-7.0196,-7.0196,-7.0196,-7.0163,-7.0163,-7.0258,-7.032,-7.0664,-7.1127,-7.1558,-7.2416,-7.3297,-7.4251,-7.469,-7.4857,-7.4735,-7.4428,-7.3885,-7.3305,-7.2862,-7.287,-7.2619,-7.2802,-7.2958,-7.3273,-7.4001,-7.4515,-7.5212,-7.5799,-7.657,-7.6974,-7.7231,-7.7365,-7.7463,-7.7703,-7.8014,-7.8512,-7.8979,-7.9462,-7.9865,-8.0197,-8.0468,-8.0723,-8.086,-8.0926,-6.477,-6.4822,-6.5214,-6.5397,-6.5397,-6.5397,-6.5397,-6.5397,-6.5397,-6.5397,-6.5397,-6.5397,-6.5397,-6.5397,-6.5397,-6.5397,-6.5397,-6.5371,-6.5292,-6.5162,-6.5031,-6.5162,-6.5371,-6.5732,-6.6276,-6.6864,-6.7598,-6.8595,-6.9567,-7.1109,-7.265,-7.3941,-7.4679,-7.4905,-7.4579,-7.4061,-7.3599,-7.3168,-7.3106,-7.2983,-7.3107,-7.3231,-7.357,-7.369,-7.3959,-7.3886,-7.3832,-7.3759,-7.3412,-7.3085,-7.322,-7.3416,-7.3416,-7.3724,-7.3948,-7.3916,-7.3659,-7.3338,-7.287,-7.2819,-7.267,-7.2262,-7.1916,-7.1245,-7.1,-7.1048,-7.1254,-7.1292,-7.1457,-7.1225,-7.109,-7.1024,-7.0991,-7.0958,-7.0958,-7.1054,-7.115,-7.1499,-7.1934,-7.2867,-7.3636,-7.4377,-7.5363,-7.5621,-7.5724,-7.5851,-7.5623,-7.5116,-7.45,-7.4058,-7.3534,-7.3348,-7.3496,-7.3726,-7.4359,-7.5028,-7.5469,-7.5983,-7.646,-7.6827,-7.7084,-7.7304,-7.7304,-7.7426,-7.7725,-7.8127,-7.8565,-7.9079,-7.9546,-7.9908,-8.0237,-8.0505,-8.0758,-8.0893,-8.1029,-6.4195,-6.4273,-6.4822,-6.5162,-6.5371,-6.5397,-6.5397,-6.5397,-6.5397,-6.5397,-6.5397,-6.5397,-6.5397,-6.5397,-6.5397,-6.5397,-6.5397,-6.5397,-6.5345,-6.5345,-6.5397,-6.5661,-6.6028,-6.6525,-6.6912,-6.7738,-6.8503,-6.9271,-7.0571,-7.2573,-7.4296,-7.5006,-7.5612,-7.5579,-7.5348,-7.5015,-7.4491,-7.3876,-7.3383,-7.3076,-7.3138,-7.3386,-7.357,-7.3936,-7.4299,-7.4256,-7.436,-7.4265,-7.3981,-7.3665,-7.4013,-7.4129,-7.4161,-7.4391,-7.4363,-7.4331,-7.4171,-7.39,-7.3499,-7.3449,-7.327,-7.3231,-7.3145,-7.3004,-7.2534,-7.2456,-7.2139,-7.1781,-7.2117,-7.2316,-7.215,-7.1985,-7.1951,-7.1951,-7.1951,-7.2049,-7.2308,-7.2563,-7.3341,-7.4213,-7.5025,-7.5697,-7.6217,-7.6445,-7.6767,-7.708,-7.7,-7.6492,-7.5835,-7.5175,-7.4506,-7.4004,-7.4299,-7.4665,-7.5335,-7.5836,-7.613,-7.646,-7.6864,-7.7157,-7.7304,-7.7304,-7.7365,-7.7547,-7.7842,-7.8294,-7.8671,-7.9079,-7.9546,-7.9908,-8.0237,-8.0505,-8.0758,-8.0965,-8.1029,-6.362,-6.3672,-6.4273,-6.4848,-6.5266,-6.5345,-6.5397,-6.5397,-6.5397,-6.5397,-6.5397,-6.5397,-6.5397,-6.5397,-6.5397,-6.5397,-6.5397,-6.5397,-6.5397,-6.5397,-6.5555,-6.5713,-6.6185,-6.6525,-6.7303,-6.8045,-6.8958,-6.9979,-7.145,-7.331,-7.4976,-7.5984,-7.6294,-7.6323,-7.6123,-7.5815,-7.5353,-7.4861,-7.4125,-7.3539,-7.3417,-7.3448,-7.3723,-7.3936,-7.4299,-7.4596,-7.4715,-7.4866,-7.4897,-7.4984,-7.507,-7.5156,-7.521,-7.5263,-7.5061,-7.4985,-7.4678,-7.4346,-7.4156,-7.4076,-7.425,-7.4264,-7.4626,-7.441,-7.3975,-7.3541,-7.3023,-7.2868,-7.3074,-7.3111,-7.2879,-7.2813,-7.278,-7.278,-7.2845,-7.2977,-7.314,-7.3654,-7.4514,-7.543,-7.6008,-7.6674,-7.7009,-7.7272,-7.7522,-7.8056,-7.8122,-7.7615,-7.7248,-7.6512,-7.5734,-7.5087,-7.5348,-7.5751,-7.5996,-7.646,-7.6644,-7.6937,-7.7304,-7.7304,-7.7304,-7.7365,-7.7426,-7.7666,-7.7957,-7.8404,-7.8827,-7.9263,-7.9638,-7.995,-8.0276,-8.0505,-8.0758,-8.1042,-8.1061,-6.3045,-6.3123,-6.4116,-6.4613,-6.4796,-6.5214,-6.5371,-6.5397,-6.5397,-6.5397,-6.5397,-6.5397,-6.5397,-6.5397,-6.5397,-6.5397,-6.5397,-6.5397,-6.5397,-6.5555,-6.5713,-6.6028,-6.6525,-6.6993,-6.7611,-6.8351,-6.9382,-7.069,-7.2459,-7.4149,-7.5384,-7.5954,-7.6488,-7.67,-7.6677,-7.6369,-7.5938,-7.5821,-7.5208,-7.4561,-7.4377,-7.4003,-7.3905,-7.4362,-7.4634,-7.4904,-7.4992,-7.4929,-7.4929,-7.4897,-7.5016,-7.4984,-7.4984,-7.5134,-7.5039,-7.4912,-7.4902,-7.4754,-7.4633,-7.4637,-7.4735,-7.4605,-7.4587,-7.4775,-7.4713,-7.4351,-7.4176,-7.4089,-7.3998,-7.3871,-7.374,-7.3674,-7.3641,-7.3741,-7.3841,-7.3974,-7.4138,-7.4999,-7.5879,-7.6522,-7.7122,-7.7496,-7.7909,-7.8134,-7.8279,-7.8456,-7.8524,-7.8481,-7.8545,-7.8098,-7.732,-7.6783,-7.6716,-7.6949,-7.7121,-7.7268,-7.7561,-7.7488,-7.7708,-7.7598,-7.7451,-7.7733,-7.7978,-7.7873,-7.8071,-7.8756,-7.9341,-7.9434,-7.9803,-8.0376,-8.0735,-8.1152,-8.1179,-8.1349,-8.1222,-6.2443,-6.2548,-6.3384,-6.3933,-6.4247,-6.477,-6.5083,-6.5056,-6.5345,-6.5397,-6.5397,-6.5397,-6.5397,-6.5397,-6.5397,-6.5397,-6.5397,-6.5397,-6.5397,-6.5555,-6.5871,-6.6212,-6.6681,-6.7303,-6.8045,-6.8806,-7.0276,-7.1711,-7.3451,-7.4672,-7.5654,-7.6191,-7.6752,-7.7016,-7.6985,-7.6615,-7.6561,-7.666,-7.6139,-7.5898,-7.5652,-7.5339,-7.5117,-7.5451,-7.5541,-7.5687,-7.5403,-7.534,-7.515,-7.5024,-7.4897,-7.4897,-7.4897,-7.4897,-7.4897,-7.4984,-7.5039,-7.5093,-7.5008,-7.5163,-7.5296,-7.5346,-7.5394,-7.589,-7.6234,-7.5906,-7.5292,-7.5207,-7.5289,-7.5165,-7.5165,-7.5098,-7.5098,-7.5098,-7.5437,-7.574,-7.6294,-7.7066,-7.7802,-7.8462,-7.8776,-7.8918,-7.9279,-7.9575,-7.9684,-7.9719,-7.968,-7.9351,-7.9485,-7.9579,-7.8836,-7.8483,-7.839,-7.8405,-7.8552,-7.8589,-7.8626,-7.8479,-7.8222,-7.8479,-7.8626,-7.8578,-7.8627,-7.8744,-7.9055,-7.9759,-8.0179,-8.0283,-8.0839,-8.1558,-8.1728,-8.1913,-8.1862,-8.1887,-8.2029,-6.1999,-6.2051,-6.26,-6.3123,-6.362,-6.4168,-6.4482,-6.4663,-6.503,-6.5318,-6.5397,-6.5397,-6.5397,-6.5397,-6.5397,-6.5397,-6.5397,-6.5397,-6.5397,-6.5555,-6.5871,-6.6369,-6.6993,-6.7611,-6.8503,-6.983,-7.1276,-7.243,-7.3731,-7.4976,-7.5923,-7.6488,-7.6752,-7.7016,-7.7016,-7.7116,-7.7185,-7.716,-7.7046,-7.7212,-7.7089,-7.6931,-7.646,-7.6521,-7.6798,-7.6635,-7.6288,-7.6003,-7.5687,-7.5466,-7.5213,-7.5024,-7.4929,-7.4897,-7.4897,-7.4897,-7.5134,-7.5454,-7.5592,-7.5906,-7.6281,-7.654,-7.6783,-7.6911,-7.727,-7.7096,-7.6515,-7.6399,-7.6485,-7.6258,-7.6258,-7.6258,-7.6258,-7.6465,-7.6875,-7.7379,-7.8211,-7.8992,-7.9583,-8.0056,-8.0252,-8.0268,-8.0466,-8.0764,-8.084,-8.0876,-8.0837,-8.0509,-8.0357,-8.0344,-8.0071,-7.9983,-8.0067,-8.0094,-7.98,-7.9617,-7.9433,-7.9323,-7.9103,-7.9507,-7.9753,-7.9448,-7.9425,-7.9852,-8.0279,-8.0654,-8.113,-8.1377,-8.2013,-8.2551,-8.2531,-8.2562,-8.2744,-8.2842,-8.3176,-6.1973,-6.1999,-6.2574,-6.2888,-6.3071,-6.3593,-6.4117,-6.4401,-6.4613,-6.4926,-6.5292,-6.5397,-6.5397,-6.5397,-6.5397,-6.5397,-6.5397,-6.5397,-6.5397,-6.5555,-6.6212,-6.6525,-6.7148,-6.8045,-6.9259,-7.0571,-7.2028,-7.3281,-7.4288,-7.5248,-7.6088,-7.6488,-7.6884,-7.7016,-7.7016,-7.7147,-7.7377,-7.7543,-7.7929,-7.8124,-7.781,-7.7527,-7.6864,-7.6861,-7.6983,-7.6888,-7.6793,-7.6793,-7.6698,-7.6477,-7.6035,-7.5529,-7.5182,-7.5024,-7.4992,-7.5016,-7.5283,-7.5603,-7.5835,-7.6181,-7.6524,-7.6783,-7.6896,-7.7134,-7.7479,-7.7697,-7.7453,-7.7536,-7.7384,-7.6689,-7.6523,-7.6556,-7.6523,-7.7176,-7.7581,-7.8439,-7.9314,-7.9997,-8.0681,-8.0954,-8.1168,-8.1317,-8.1593,-8.1525,-8.1201,-8.1274,-8.1382,-8.1198,-8.1478,-8.136,-8.1203,-8.1366,-8.1525,-8.0755,-8.0094,-8.0094,-7.9984,-7.991,-7.9947,-8.0241,-8.0304,-7.9989,-8.0076,-8.0701,-8.0931,-8.1194,-8.1656,-8.2443,-8.2671,-8.3053,-8.3142,-8.3208,-8.3504,-8.3764,-8.4099]}]]